[[{"header":{"parameterUnit":"m.s-1","parameterCategory":1,"la1":30.6,"la2":29.2853,"lo1":-89.7004,"lo2":-87.6739,"dy":0.0162,"dx":0.0183,"nx":112,"ny":82,"refTime":"2024-03-11T18:00:00:Z","depth":0,"parameterNumber":2,"parameterNumberName":"U-component_of_WINDS"},"data":[0.0,0.0,0.0,0.0,0.0,0.0,0.0,0.0,0.0,0.0,0.0,0.0,0.0,0.0,0.0,0.0,0.0,0.0,0.0,0.0,0.0,0.0,0.0,0.0,0.0,0.0,0.0,0.0,0.0,0.0,0.0,0.0,0.0,0.0,0.0,0.0,0.0,0.0,0.0,0.0,0.0,0.0,0.0,0.0,0.0,0.0,0.0,0.0,0.0,0.0,0.0,0.0,0.0,0.0,0.0,0.0,0.0,0.0,0.0,0.0,0.0,0.0,0.0,0.0,0.0,0.0,0.0,0.0,0.0,0.0,0.0,0.0,0.0,0.0,0.0,0.0,0.0,0.0,0.0,0.0,0.0,0.0,0.0,0.0,0.0,0.0,0.0,0.0,0.0,0.0,0.0,-2.9734,-3.5448,-3.9101,-3.9101,-3.9101,-3.5708,-2.7701,0.0,0.0,0.0,0.0,0.0,0.0,0.0,0.0,0.0,0.0,0.0,0.0,0.0,0.0,0.0,0.0,0.0,0.0,0.0,0.0,0.0,0.0,0.0,0.0,0.0,0.0,0.0,0.0,0.0,0.0,0.0,0.0,0.0,0.0,0.0,0.0,0.0,0.0,0.0,0.0,0.0,0.0,0.0,0.0,0.0,0.0,0.0,0.0,0.0,0.0,0.0,0.0,0.0,0.0,0.0,0.0,0.0,0.0,0.0,0.0,0.0,0.0,0.0,0.0,0.0,0.0,0.0,0.0,0.0,0.0,0.0,0.0,0.0,0.0,0.0,0.0,0.0,0.0,0.0,0.0,0.0,0.0,0.0,0.0,0.0,0.0,0.0,0.0,0.0,0.0,0.0,0.0,0.0,0.0,0.0,0.0,0.0,0.0,0.0,0.0,0.0,0.0,0.0,0.0,-2.8241,-3.6558,-3.8446,-3.9101,-3.9101,-3.9101,-3.5708,-2.7701,0.0,0.0,0.0,0.0,0.0,0.0,0.0,0.0,0.0,0.0,0.0,0.0,0.0,0.0,0.0,0.0,0.0,0.0,0.0,0.0,0.0,0.0,0.0,0.0,0.0,0.0,0.0,0.0,0.0,0.0,0.0,0.0,0.0,0.0,0.0,0.0,0.0,0.0,0.0,0.0,0.0,0.0,0.0,0.0,0.0,0.0,0.0,0.0,0.0,0.0,0.0,0.0,0.0,0.0,0.0,0.0,0.0,0.0,0.0,0.0,0.0,0.0,0.0,0.0,0.0,0.0,0.0,0.0,0.0,0.0,0.0,0.0,0.0,0.0,0.0,0.0,0.0,0.0,0.0,0.0,0.0,0.0,0.0,0.0,0.0,0.0,0.0,0.0,0.0,0.0,0.0,0.0,0.0,0.0,0.0,0.0,0.0,0.0,0.0,0.0,0.0,0.0,0.0,-2.5517,-2.9857,-3.8204,-3.9101,-3.9101,-3.9101,-3.9101,-3.5708,-2.7701,-2.5949,0.0,0.0,0.0,0.0,0.0,0.0,0.0,0.0,0.0,0.0,0.0,0.0,0.0,0.0,0.0,0.0,0.0,0.0,0.0,0.0,0.0,0.0,0.0,0.0,0.0,0.0,0.0,0.0,0.0,0.0,0.0,0.0,0.0,0.0,0.0,0.0,0.0,0.0,0.0,0.0,0.0,0.0,0.0,0.0,0.0,0.0,0.0,0.0,0.0,0.0,0.0,0.0,0.0,0.0,0.0,0.0,0.0,0.0,0.0,0.0,0.0,0.0,0.0,0.0,0.0,0.0,0.0,0.0,0.0,0.0,0.0,0.0,0.0,0.0,0.0,0.0,0.0,0.0,0.0,0.0,0.0,0.0,0.0,0.0,0.0,0.0,0.0,0.0,0.0,0.0,0.0,0.0,0.0,0.0,0.0,0.0,0.0,0.0,0.0,0.0,0.0,0.0,-2.9568,-3.2974,-3.852,-3.9101,-3.9101,-3.9101,-3.9101,-3.5708,-2.7701,-2.5558,0.0,0.0,0.0,0.0,0.0,0.0,0.0,0.0,0.0,0.0,0.0,0.0,0.0,0.0,0.0,0.0,0.0,0.0,0.0,0.0,0.0,0.0,0.0,0.0,0.0,0.0,0.0,0.0,0.0,0.0,0.0,0.0,0.0,0.0,0.0,0.0,0.0,0.0,0.0,0.0,0.0,0.0,0.0,0.0,0.0,0.0,0.0,0.0,0.0,0.0,0.0,0.0,0.0,0.0,0.0,0.0,0.0,0.0,0.0,0.0,0.0,0.0,0.0,0.0,0.0,0.0,0.0,0.0,0.0,0.0,0.0,0.0,0.0,0.0,0.0,0.0,0.0,0.0,0.0,0.0,0.0,0.0,0.0,0.0,0.0,0.0,0.0,0.0,0.0,0.0,0.0,0.0,0.0,0.0,0.0,0.0,0.0,0.0,0.0,0.0,0.0,0.0,-3.3258,-3.8539,-3.9045,-3.9101,-3.9101,-3.9101,-3.9101,-3.5708,-2.7701,-2.5558,0.0,0.0,0.0,0.0,0.0,0.0,0.0,0.0,0.0,0.0,0.0,0.0,0.0,0.0,0.0,0.0,0.0,0.0,0.0,0.0,0.0,0.0,0.0,0.0,0.0,0.0,0.0,0.0,0.0,0.0,0.0,0.0,0.0,0.0,0.0,0.0,0.0,0.0,0.0,0.0,0.0,0.0,0.0,0.0,0.0,0.0,0.0,0.0,0.0,0.0,0.0,0.0,0.0,0.0,0.0,0.0,0.0,0.0,0.0,0.0,0.0,0.0,0.0,0.0,0.0,0.0,0.0,0.0,0.0,0.0,0.0,0.0,0.0,0.0,0.0,0.0,0.0,0.0,0.0,0.0,0.0,0.0,0.0,0.0,0.0,0.0,0.0,0.0,0.0,0.0,0.0,0.0,0.0,0.0,0.0,0.0,0.0,0.0,0.0,0.0,0.0,0.0,-3.1805,-3.6366,0.0,-3.9101,-3.9101,-3.9101,-3.9101,-3.5708,-2.7701,0.0,0.0,0.0,0.0,0.0,0.0,0.0,0.0,0.0,0.0,0.0,0.0,0.0,0.0,0.0,0.0,0.0,0.0,0.0,0.0,0.0,0.0,0.0,0.0,0.0,0.0,0.0,0.0,0.0,0.0,0.0,0.0,0.0,0.0,0.0,0.0,0.0,0.0,0.0,0.0,0.0,0.0,0.0,0.0,0.0,0.0,0.0,0.0,0.0,0.0,0.0,0.0,0.0,0.0,0.0,0.0,0.0,0.0,0.0,0.0,0.0,0.0,0.0,0.0,0.0,0.0,0.0,0.0,0.0,0.0,0.0,0.0,0.0,0.0,0.0,0.0,0.0,0.0,0.0,0.0,0.0,0.0,0.0,0.0,0.0,0.0,0.0,0.0,0.0,0.0,0.0,0.0,0.0,0.0,0.0,0.0,0.0,0.0,0.0,0.0,0.0,0.0,-2.6634,-3.1807,-3.61,0.0,-3.9101,-3.9101,-3.9101,-3.9101,-3.5708,-2.7701,0.0,0.0,0.0,0.0,0.0,0.0,0.0,0.0,0.0,0.0,0.0,0.0,0.0,0.0,0.0,0.0,0.0,0.0,0.0,0.0,0.0,0.0,0.0,0.0,0.0,0.0,0.0,0.0,0.0,0.0,0.0,0.0,0.0,0.0,0.0,0.0,0.0,0.0,0.0,0.0,0.0,0.0,0.0,0.0,0.0,0.0,0.0,0.0,0.0,0.0,0.0,0.0,0.0,0.0,0.0,0.0,0.0,0.0,0.0,0.0,0.0,0.0,0.0,0.0,0.0,0.0,0.0,0.0,0.0,0.0,0.0,0.0,0.0,0.0,0.0,0.0,0.0,0.0,0.0,0.0,0.0,0.0,0.0,0.0,0.0,0.0,0.0,0.0,0.0,0.0,0.0,0.0,0.0,0.0,0.0,0.0,0.0,0.0,0.0,0.0,0.0,0.0,-2.6976,-3.4169,-3.9101,-3.9101,-3.9101,-3.9101,-3.9101,-3.9101,-3.5708,0.0,0.0,0.0,0.0,0.0,0.0,0.0,0.0,0.0,0.0,0.0,0.0,0.0,0.0,0.0,0.0,0.0,0.0,0.0,0.0,0.0,0.0,0.0,0.0,0.0,0.0,0.0,0.0,0.0,0.0,0.0,0.0,0.0,0.0,0.0,0.0,0.0,0.0,0.0,0.0,0.0,0.0,0.0,0.0,0.0,0.0,0.0,0.0,0.0,0.0,0.0,0.0,0.0,0.0,0.0,0.0,0.0,0.0,0.0,0.0,0.0,0.0,0.0,0.0,0.0,0.0,0.0,0.0,0.0,0.0,0.0,0.0,0.0,0.0,0.0,0.0,0.0,0.0,0.0,0.0,0.0,0.0,0.0,0.0,0.0,0.0,0.0,0.0,0.0,0.0,0.0,0.0,0.0,0.0,0.0,0.0,0.0,0.0,0.0,0.0,0.0,0.0,0.0,-2.7,-3.4336,-3.9311,-3.9129,-3.9101,-3.9101,-3.9101,-3.9101,-3.5708,-2.7701,0.0,0.0,0.0,0.0,0.0,0.0,0.0,0.0,0.0,0.0,0.0,0.0,0.0,0.0,0.0,0.0,0.0,0.0,0.0,0.0,0.0,0.0,0.0,0.0,0.0,0.0,0.0,0.0,0.0,0.0,0.0,0.0,0.0,0.0,0.0,0.0,0.0,0.0,0.0,0.0,0.0,0.0,0.0,0.0,0.0,0.0,0.0,0.0,0.0,0.0,0.0,0.0,0.0,0.0,0.0,0.0,0.0,0.0,0.0,0.0,0.0,0.0,0.0,0.0,0.0,0.0,0.0,0.0,0.0,0.0,0.0,0.0,0.0,0.0,0.0,0.0,0.0,0.0,0.0,0.0,0.0,0.0,0.0,0.0,0.0,0.0,0.0,0.0,0.0,0.0,0.0,0.0,0.0,0.0,0.0,0.0,0.0,0.0,0.0,0.0,0.0,0.0,-2.7016,-3.44,-3.9401,-3.9129,-3.9101,-3.9101,-3.9101,-3.9101,-3.6373,-3.001,0.0,0.0,0.0,0.0,0.0,0.0,0.0,0.0,0.0,0.0,0.0,0.0,0.0,0.0,0.0,0.0,0.0,0.0,0.0,0.0,0.0,0.0,0.0,0.0,0.0,0.0,0.0,0.0,0.0,0.0,0.0,0.0,0.0,0.0,0.0,0.0,0.0,0.0,0.0,0.0,0.0,0.0,0.0,0.0,0.0,0.0,0.0,0.0,0.0,0.0,0.0,0.0,0.0,0.0,0.0,0.0,0.0,0.0,0.0,0.0,0.0,0.0,0.0,0.0,0.0,0.0,0.0,0.0,0.0,0.0,0.0,0.0,0.0,0.0,0.0,0.0,0.0,0.0,0.0,0.0,0.0,0.0,0.0,0.0,0.0,0.0,0.0,0.0,0.0,0.0,0.0,0.0,0.0,0.0,0.0,0.0,0.0,0.0,0.0,0.0,0.0,0.0,-2.7016,-3.4421,-3.9408,-3.9142,-3.9101,-3.9101,-3.9101,-3.9101,-3.7407,-3.3448,0.0,0.0,0.0,0.0,0.0,0.0,0.0,0.0,0.0,0.0,0.0,0.0,0.0,0.0,0.0,0.0,0.0,0.0,0.0,0.0,0.0,0.0,0.0,0.0,0.0,0.0,0.0,0.0,0.0,0.0,0.0,0.0,0.0,0.0,0.0,0.0,0.0,0.0,0.0,0.0,0.0,0.0,0.0,0.0,0.0,0.0,0.0,0.0,0.0,0.0,0.0,0.0,0.0,0.0,0.0,0.0,0.0,0.0,0.0,0.0,-2.3234,0.0,0.0,0.0,0.0,0.0,0.0,0.0,0.0,0.0,0.0,0.0,0.0,0.0,0.0,0.0,0.0,0.0,0.0,0.0,0.0,0.0,0.0,0.0,0.0,0.0,0.0,0.0,0.0,0.0,0.0,0.0,0.0,0.0,0.0,0.0,0.0,0.0,0.0,0.0,0.0,0.0,-2.7039,-3.4536,-3.9578,-3.9137,-3.9101,-3.9101,-3.9101,-3.9101,-3.7407,-3.3448,0.0,0.0,0.0,0.0,0.0,0.0,0.0,0.0,0.0,0.0,0.0,0.0,0.0,0.0,0.0,0.0,0.0,0.0,0.0,0.0,0.0,0.0,0.0,0.0,0.0,0.0,0.0,0.0,0.0,0.0,0.0,0.0,0.0,0.0,0.0,0.0,0.0,0.0,0.0,0.0,0.0,0.0,0.0,0.0,0.0,0.0,0.0,0.0,0.0,0.0,0.0,0.0,0.0,0.0,0.0,0.0,0.0,0.0,0.0,0.0,0.0,-2.4083,0.0,0.0,0.0,0.0,0.0,0.0,0.0,0.0,0.0,0.0,0.0,0.0,0.0,0.0,0.0,0.0,0.0,0.0,0.0,0.0,0.0,0.0,0.0,0.0,0.0,0.0,0.0,0.0,0.0,0.0,0.0,0.0,0.0,0.0,0.0,0.0,0.0,0.0,0.0,0.0,-2.7629,-3.4841,-3.9618,-3.9151,-3.9101,-3.9101,-3.9101,-3.9101,-3.8218,-3.6162,-3.3429,0.0,0.0,0.0,0.0,0.0,0.0,0.0,0.0,0.0,0.0,0.0,0.0,0.0,0.0,0.0,0.0,0.0,0.0,0.0,0.0,0.0,0.0,0.0,0.0,0.0,0.0,0.0,0.0,0.0,0.0,0.0,0.0,0.0,0.0,0.0,0.0,0.0,0.0,0.0,0.0,0.0,0.0,0.0,0.0,0.0,0.0,0.0,0.0,0.0,0.0,0.0,0.0,0.0,-2.9393,-3.0094,-3.01,-3.0088,-3.1999,-3.5065,-3.0856,-3.0991,-3.3667,0.0,0.0,0.0,0.0,0.0,0.0,0.0,0.0,0.0,0.0,0.0,0.0,0.0,0.0,0.0,0.0,0.0,0.0,0.0,0.0,0.0,0.0,0.0,0.0,0.0,-3.2943,-3.4355,0.0,0.0,0.0,0.0,0.0,0.0,0.0,0.0,0.0,0.0,0.0,0.0,-2.9044,-3.5436,-3.959,-3.9137,-3.9101,-3.9101,-3.9101,-3.9101,-3.9129,-3.917,-3.5428,-3.2843,0.0,0.0,0.0,0.0,0.0,0.0,0.0,0.0,0.0,0.0,0.0,0.0,0.0,0.0,0.0,0.0,0.0,0.0,0.0,0.0,0.0,0.0,0.0,0.0,0.0,0.0,0.0,0.0,0.0,0.0,0.0,0.0,-2.5788,-2.6698,0.0,0.0,0.0,0.0,0.0,0.0,0.0,0.0,0.0,0.0,0.0,0.0,0.0,0.0,-2.7565,-3.1306,-3.3192,-3.3231,-3.7033,-3.8842,-3.8842,-3.8842,-3.913,-3.9631,-3.8957,0.0,-3.4103,-3.2993,0.0,0.0,0.0,0.0,0.0,0.0,0.0,0.0,0.0,0.0,0.0,0.0,0.0,0.0,0.0,0.0,0.0,0.0,0.0,0.0,0.0,0.0,-3.912,-3.9114,-3.9539,-3.9771,0.0,-3.2493,-2.647,-2.5681,0.0,0.0,0.0,0.0,0.0,0.0,0.0,0.0,-3.2268,-3.6753,-3.9421,-3.9142,-3.9101,-3.9101,-3.9101,-3.9101,-3.9192,-3.9439,-3.8845,-3.6596,-3.2345,-3.1525,0.0,0.0,0.0,0.0,0.0,0.0,0.0,0.0,0.0,0.0,0.0,0.0,0.0,0.0,0.0,0.0,0.0,0.0,0.0,0.0,0.0,0.0,0.0,0.0,0.0,0.0,0.0,0.0,0.0,-2.2528,-2.4939,-2.6246,-2.439,-2.1921,0.0,0.0,0.0,0.0,0.0,0.0,0.0,0.0,0.0,-3.0752,-3.1343,-3.2698,-3.4956,-3.6822,-3.7745,-3.7765,-3.9611,-4.0496,-4.0496,-4.0496,-4.0496,-4.0496,-4.0496,-3.9457,-3.7599,-3.57,-3.2478,-2.8555,0.0,0.0,0.0,0.0,0.0,-2.647,-2.9969,0.0,0.0,0.0,0.0,0.0,0.0,0.0,0.0,0.0,0.0,0.0,0.0,0.0,0.0,-4.0332,-4.0797,-4.0797,-4.0797,-3.7541,-3.377,0.0,-2.8853,-2.582,-2.0092,0.0,0.0,0.0,0.0,0.0,-3.3866,-3.7307,-3.9401,-3.9129,-3.9101,-3.9101,-3.9101,-3.9101,-3.9205,-3.9471,-3.9514,-3.8583,-3.6572,-3.3714,-3.0225,0.0,0.0,0.0,0.0,0.0,0.0,0.0,0.0,0.0,0.0,0.0,0.0,0.0,0.0,0.0,0.0,0.0,0.0,0.0,0.0,0.0,0.0,0.0,0.0,0.0,0.0,0.0,0.0,-2.4231,-2.6227,-2.6827,-2.6745,-2.5091,0.0,0.0,0.0,0.0,0.0,0.0,-2.9797,-3.0414,-3.2301,-3.5706,-3.6449,-3.7988,-4.0477,-4.0496,-4.0496,-4.0496,-4.0496,-4.0496,-4.0496,-4.0496,-4.0496,-4.0496,-4.0496,-4.0496,-4.0304,-3.781,-3.592,-3.4345,-3.1802,-3.0042,-2.9117,-3.0433,-3.1052,-3.1782,-3.5618,-3.6957,-3.6787,-3.54,0.0,-3.2024,-2.9703,0.0,0.0,0.0,0.0,-3.1724,-3.5148,0.0,-3.7644,-4.0197,-4.0797,-4.0797,-4.0797,-4.0274,-3.8856,0.0,-3.3538,-3.0269,-2.408,0.0,0.0,0.0,0.0,-3.3799,-3.5894,-3.815,-3.9471,-3.9232,-3.9165,-3.9137,-3.9137,-3.9129,-3.9205,-3.9471,-3.9556,-3.9637,-3.9797,-3.6215,-3.3693,-3.2526,0.0,0.0,0.0,0.0,0.0,0.0,0.0,0.0,0.0,0.0,0.0,0.0,0.0,0.0,0.0,0.0,0.0,0.0,0.0,0.0,0.0,0.0,0.0,0.0,0.0,0.0,0.0,0.0,0.0,-3.1473,-3.2617,0.0,0.0,0.0,0.0,-2.8825,-2.8972,-3.082,-3.4911,-3.5154,-3.6719,-4.0073,-4.0227,-4.0323,-4.0496,-4.0496,-4.0496,-4.0496,-4.0496,-4.0496,-4.0496,-4.0496,-4.0496,-4.0496,-4.0496,-4.0496,-4.0496,-4.0323,-3.8349,-3.5425,-3.5252,-3.3672,-3.1813,-3.4342,-3.5813,-3.6907,-3.9605,-4.0539,-4.0139,-3.7599,-3.404,-3.1294,-3.4331,-3.2396,0.0,0.0,-3.5336,-3.6173,-3.9597,-4.0507,-4.0584,-4.0758,-4.0797,-4.0797,-4.0797,-3.8856,-3.7754,0.0,-4.0313,-3.8824,-3.4394,0.0,-3.3895,-3.3683,-3.3814,-3.5358,-3.9319,-3.9764,-3.9637,-3.9495,-3.9376,-3.9285,-3.9285,-3.9165,-3.9205,-3.9471,-3.9683,-3.9786,-3.9797,-3.9795,-3.7404,-3.2307,-3.2216,0.0,0.0,0.0,0.0,0.0,0.0,0.0,0.0,0.0,0.0,0.0,0.0,0.0,0.0,0.0,0.0,0.0,0.0,0.0,0.0,0.0,0.0,0.0,0.0,0.0,0.0,0.0,0.0,-3.1734,-3.3504,0.0,0.0,-3.1648,-3.2917,-3.3224,-3.5232,-3.711,-3.8642,-3.8719,-3.9265,-4.0458,-4.0496,-4.0496,-4.0496,-4.0496,-4.0496,-4.0496,-4.0496,-4.0496,-4.0496,-4.0496,-4.0804,-4.1335,-4.1335,-4.1643,-4.2124,-4.1566,-4.0304,-3.8715,-3.8715,-3.8164,-3.7485,-3.8464,-3.9005,-3.9423,-4.041,-4.0739,-4.0585,-3.9701,-3.8392,-3.7392,-3.8611,-3.7914,-3.7025,-3.8553,-3.8978,-3.9268,-4.0487,-4.0797,-4.0797,-4.0797,-4.0797,-4.0797,-4.0797,-4.0081,-3.9688,-4.0623,-3.9437,-3.7464,-3.4858,-3.6696,-3.7555,-3.4726,-3.6489,-3.8629,-4.0048,-3.9913,-3.9675,-3.9637,-3.9501,-3.9439,-3.9439,-3.9311,-3.935,-3.9623,-3.9628,-3.9728,-4.0042,-3.9973,-3.9126,-3.7376,-3.743,-3.3366,0.0,0.0,0.0,0.0,0.0,0.0,0.0,0.0,0.0,0.0,0.0,0.0,0.0,0.0,0.0,0.0,0.0,0.0,0.0,0.0,0.0,0.0,0.0,0.0,0.0,0.0,-3.3717,-3.1762,-3.4798,-3.5741,-3.2378,-3.5159,-3.7199,-3.7199,-3.9238,-4.0496,-4.0496,-4.0496,-4.0496,-4.0496,-4.0496,-4.0496,-4.0496,-4.0785,-4.0931,-4.0931,-4.1247,-4.1381,-4.1381,-4.1381,-4.1681,-4.2239,-4.2239,-4.2566,-4.3066,-4.2489,-4.1893,-4.1324,-4.0727,-4.0496,-4.0516,-4.0573,-4.0607,-4.0615,-4.0673,-4.0707,-4.0739,-4.0784,-4.0797,-4.0797,-4.0797,-4.0797,-4.0797,-4.0797,-4.0797,-4.0797,-4.0797,-4.0797,-4.0797,-4.0797,-4.0797,-4.0797,-4.0797,-4.0797,-4.0797,-4.0797,-3.9398,-3.7851,-3.6754,-3.892,-3.9527,-3.5747,-3.8234,-4.0177,-3.9204,-3.9603,-3.9944,-3.9829,-3.9705,-3.9628,-3.9568,-3.8701,-3.8588,-3.9578,-3.8878,-3.8899,-3.9983,-3.8908,-3.8175,-3.7947,-3.803,-3.4615,-2.7563,0.0,0.0,0.0,0.0,0.0,0.0,0.0,0.0,0.0,0.0,0.0,0.0,0.0,0.0,0.0,0.0,0.0,0.0,0.0,0.0,0.0,0.0,0.0,-3.0784,-3.3336,-3.458,-3.2154,-3.6987,-3.9231,-3.5974,-3.8584,-4.0496,-4.0496,-4.0496,-4.0496,-4.0496,-4.0496,-4.0516,-4.0535,-4.0535,-4.0554,-4.0573,-4.1412,-4.1846,-4.1846,-4.2701,-4.3104,-4.3104,-4.3104,-4.3104,-4.3143,-4.3143,-4.3143,-4.3181,-4.3143,-4.3143,-4.297,-4.1247,-4.0573,-4.0593,-4.0611,-4.0626,-4.0615,-4.0673,-4.0739,-4.079,-4.079,-4.079,-4.0797,-4.0797,-4.0797,-4.0797,-4.0797,-4.0797,-4.0797,-4.0797,-4.0797,-4.0797,-4.0797,-4.0797,-4.0797,-4.0797,-4.0797,-4.0797,-4.0797,-4.0797,-4.0797,-4.0797,-4.0797,-3.9946,-3.7406,-3.9185,0.0,-3.7172,-3.8982,-4.038,-4.0024,-3.9859,-3.9743,-3.9615,-3.7335,-3.693,-3.9357,-3.7539,-3.7384,-3.9603,-3.6956,-3.4893,-3.3715,-3.3783,-3.3427,-3.2588,0.0,0.0,0.0,0.0,0.0,0.0,0.0,0.0,0.0,0.0,0.0,0.0,0.0,0.0,0.0,0.0,0.0,0.0,0.0,0.0,0.0,0.0,-3.4691,-3.4024,-3.6818,-3.8687,-3.8057,-3.946,-4.0145,-3.9211,-3.9954,-4.0496,-4.0496,-4.0496,-4.0496,-4.0496,-4.0496,-4.0785,-4.1431,-4.145,-4.1758,-4.2374,-4.2624,-4.2739,-4.2758,-4.2989,-4.3104,-4.3104,-4.3104,-4.3412,-4.397,-4.397,-4.4335,-4.4863,-4.422,-4.397,-4.3855,-4.2797,-4.2393,-4.2316,-4.1689,-4.1097,-4.0607,-4.061,-4.0646,-4.0668,-4.0707,-4.0733,-4.0739,-4.0784,-4.0797,-4.0797,-4.0797,-4.0797,-4.0797,-4.0797,-4.0797,-4.0797,-4.0797,-4.0797,-4.0797,-4.0797,-4.0797,-4.0797,-4.0797,-4.0797,-4.0797,-4.0797,-4.0797,-4.0565,-3.9849,-4.0352,0.0,-3.9773,-4.0156,-3.9769,-3.7847,-3.751,-3.7383,-3.7242,-3.6499,-3.7068,0.0,-3.8987,-3.8988,-3.981,-3.8972,-3.8365,-3.8071,-3.436,-3.24,0.0,0.0,0.0,0.0,0.0,0.0,0.0,0.0,0.0,0.0,0.0,0.0,0.0,0.0,0.0,0.0,0.0,0.0,0.0,0.0,0.0,0.0,-3.463,-3.7383,-3.7395,-3.9072,-4.0316,-4.0362,-4.0424,-4.0449,-4.0449,-4.0479,-4.0503,-4.0503,-4.0846,-4.1046,-4.1046,-4.1393,-4.1816,-4.2335,-4.2335,-4.2585,-4.3104,-4.3431,-4.3605,-4.3605,-4.397,-4.4143,-4.4143,-4.4143,-4.4393,0.0,-4.4836,-4.5133,-4.5556,-4.5056,-4.4836,0.0,0.0,0.0,0.0,0.0,-4.2051,-4.1609,-4.1262,-4.113,-4.1096,-4.0803,-4.07,-4.0707,-4.0784,-4.0797,-4.0797,-4.0797,-4.0797,-4.0797,-4.0797,-4.0797,-4.0797,-4.0797,-4.0797,-4.0797,-4.0797,-4.0797,-4.0797,-4.0797,0.0,0.0,-4.0797,-4.0797,-4.0429,-3.9321,-4.01,-4.041,0.0,-4.0024,-4.0021,-3.8469,-3.8178,-3.8032,-3.7899,-3.6834,0.0,0.0,0.0,-3.8064,-3.7857,-3.7394,0.0,0.0,0.0,-3.3549,-3.5346,0.0,0.0,0.0,-3.0144,-2.9211,0.0,0.0,0.0,0.0,0.0,0.0,0.0,0.0,0.0,0.0,0.0,0.0,0.0,0.0,0.0,0.0,-3.7606,-4.0301,-4.0289,-4.0298,-4.0298,-4.0316,-4.0362,-4.0407,-4.0415,-4.0554,-4.0636,-4.0644,-4.1445,-4.1942,-4.1942,0.0,0.0,0.0,0.0,-4.3278,-4.3374,-4.4085,-4.4451,-4.4451,-4.5229,-4.5594,-4.5594,-4.5594,-4.5594,-4.5594,-4.5594,-4.5594,-4.5594,-4.5594,-4.5594,-4.546,-4.3951,-4.3316,-4.3239,-4.3239,-4.3187,0.0,0.0,0.0,0.0,-4.1098,-4.0841,-4.0835,-4.0797,-4.079,-4.0797,-4.0797,-4.0797,-4.0797,-4.0797,-4.0797,-4.0797,-4.0797,-4.0797,-4.0797,-4.0797,-4.0797,-4.0797,-4.0797,-4.0797,-4.0797,-4.0797,-4.0797,-4.0004,-3.7696,-3.9301,0.0,-3.7638,-3.9359,-4.0623,-4.0135,0.0,0.0,-3.971,-3.7604,-3.7319,-3.9759,-3.7888,-3.6359,-3.5562,-3.4727,-3.4621,-3.5328,-3.469,-3.6109,-3.9682,-3.9728,-3.9775,-3.9578,-3.0761,-2.9224,0.0,0.0,0.0,0.0,0.0,0.0,0.0,0.0,0.0,0.0,0.0,0.0,0.0,0.0,0.0,-3.4867,-3.7988,-4.031,-4.0301,-4.0301,-4.0328,-4.037,-4.0379,-4.0424,-4.0485,-4.1078,-4.1498,-4.155,-4.2365,-4.2854,-4.2854,-4.3008,0.0,-4.4047,-4.4066,-4.4412,-4.5114,-4.5267,-4.5344,-4.5344,0.0,0.0,-4.5594,-4.5594,-4.5594,-4.5594,-4.5594,-4.5594,-4.5594,-4.5594,-4.5594,-4.5575,-4.5248,-4.4682,-4.4066,-4.4066,-4.3671,-4.3082,-4.2929,-4.2871,-4.2733,-4.1925,-4.1673,-4.154,-4.0906,-4.0752,0.0,-4.0797,-4.0797,-4.0797,-4.0797,-4.0797,-4.0797,-4.0797,-4.0797,-4.0797,-4.0797,-4.0797,-4.0797,-4.0797,-4.0797,-4.0797,-4.0797,-4.0797,-4.0623,-4.012,-4.0487,-4.0623,-4.012,-4.0487,-3.9972,-3.7821,-3.7475,-3.7336,-3.7215,-3.6658,-3.7319,-3.9759,-3.9467,-3.9075,-3.8806,-3.8614,-3.8527,-3.8592,-3.8446,-3.8766,-3.9551,-3.9556,-3.9597,-3.9664,-3.7814,-3.7604,0.0,0.0,0.0,0.0,0.0,0.0,0.0,0.0,0.0,0.0,0.0,-2.9647,-3.1716,0.0,-3.5815,-3.7519,-3.9202,-4.0301,-4.0301,-4.031,-4.0308,-4.0353,-4.0725,-4.1031,-4.1102,-4.1857,-4.2362,-4.2398,-4.3212,-4.3701,-4.3701,-4.4105,-4.4528,-4.494,-4.496,-4.5171,-4.5594,-4.5594,-4.5594,-4.5594,-4.5594,-4.5594,-4.5594,-4.5594,-4.5594,-4.5594,-4.5594,-4.5594,-4.5594,-4.5594,-4.5594,-4.5594,-4.5594,-4.5325,-4.496,-4.496,-4.4701,-4.4278,-4.3855,-4.3701,-4.3574,-4.2749,-4.2241,-4.1839,-4.1452,-4.1081,-4.0752,-4.079,-4.0797,-4.0797,-4.0797,-4.0797,-4.0797,-4.0797,-4.0797,-4.0797,-4.0797,-4.0797,-4.0797,-4.0797,-4.0797,-4.0797,-4.0797,-4.0797,-4.0797,-4.0797,-4.0797,-4.0797,-4.0797,-4.0797,-4.0294,-3.8992,-3.8704,-3.8546,-3.8413,-3.8213,-3.8607,-3.9824,-3.99,-3.9878,-3.9804,-3.9804,-3.977,-3.9693,-3.9635,-3.9611,-3.9611,-3.952,-3.952,-3.9592,-3.9632,-3.9827,0.0,0.0,0.0,0.0,0.0,0.0,0.0,0.0,-2.6855,-3.0388,-3.1671,-3.2978,-3.5687,-3.6755,-3.791,-3.9966,-4.0301,-4.0339,-4.0511,-4.0539,-4.0604,-4.0766,-4.1282,-4.1711,-4.1928,-4.2731,-4.3246,-4.3255,-4.4049,-4.4547,-4.4547,-4.5229,-4.5594,-4.5594,-4.5594,-4.5594,-4.5594,-4.5594,-4.5594,-4.5594,-4.5594,-4.5594,-4.5594,-4.5594,-4.5594,-4.5594,-4.5594,-4.5594,-4.5594,-4.5594,-4.5594,-4.5594,-4.5594,-4.5594,-4.5594,-4.5594,-4.5594,-4.5498,-4.4797,-4.4547,-4.4421,-4.3607,-4.2892,-4.2337,-4.2068,-4.1498,-4.0939,-4.0817,-4.079,-4.0797,-4.0797,-4.0797,-4.0797,-4.0797,-4.0797,-4.0797,-4.0797,-4.0797,-4.0797,-4.0797,-4.0797,-4.0797,-4.0797,-4.0797,-4.0797,-4.0797,-4.0797,-4.0797,-4.0797,-4.0797,-4.0797,-4.0797,-4.0621,-4.0431,-4.0274,-4.0051,-3.9933,-3.99,-3.99,-3.99,-3.99,-3.99,-3.99,-3.99,-3.9792,-3.9739,-3.9739,-3.9635,-3.9563,-3.9551,-3.9551,-3.9732,-2.3771,-2.3193,-2.4714,-2.7455,-2.7676,-2.915,0.0,0.0,-3.4044,-3.8162,-3.9107,-3.9279,-3.9652,-3.9814,-3.9966,-4.0244,-4.0301,-4.0559,-4.1266,-4.1371,-4.1657,-4.2431,-4.2028,-4.2005,-4.2787,-4.3632,-4.4149,-4.4154,-4.4951,-4.546,-4.546,-4.5556,-4.5594,-4.5594,-4.5594,-4.5594,-4.5594,-4.5594,-4.5594,-4.5594,-4.5594,-4.5594,-4.5594,-4.5594,-4.5594,-4.5594,-4.5594,-4.5594,-4.5594,-4.5594,-4.5594,-4.5594,-4.5594,-4.5594,-4.5594,-4.5594,-4.5594,-4.5594,-4.5498,-4.546,-4.5306,-4.444,-4.4157,-4.3835,-4.2349,-4.188,-4.1685,-4.0932,-4.0752,-4.0797,-4.0797,-4.0797,-4.0797,-4.0797,-4.0797,-4.0797,-4.0797,-4.0797,-4.0797,-4.0797,-4.0797,-4.0797,-4.0797,-4.0797,-4.0797,-4.0797,-4.0797,-4.0797,-4.0797,-4.0797,-4.0797,-4.0797,-4.0621,-4.0391,-4.0129,-4.0091,-4.003,-3.9911,-3.99,-3.99,-3.99,-3.99,-3.99,-3.99,-3.9889,-3.9878,-3.9878,-3.9867,-3.9792,-3.9682,-3.9682,-3.9777,-3.0951,-2.994,0.0,0.0,-3.2672,-3.3573,-3.6634,-3.6356,-3.6375,-3.9632,-4.0301,-4.0301,-4.0301,-4.0301,-4.0301,0.0,-4.0692,-4.1113,-4.1437,-4.1944,-4.2585,-4.3446,-4.3321,-4.3309,-4.3728,-4.4505,-4.5003,-4.5047,-4.5402,-4.5594,-4.5594,-4.5594,-4.5594,-4.5594,-4.5594,-4.5594,-4.5594,-4.5594,-4.5594,-4.5594,-4.5594,-4.5594,-4.5594,-4.5594,-4.5594,-4.5594,-4.5594,-4.5594,-4.5594,-4.5594,-4.5594,-4.5594,-4.5594,-4.5594,-4.5594,-4.5594,-4.5594,-4.5594,-4.5594,-4.5594,-4.5537,-4.519,-4.4737,-4.4207,-4.3558,-4.2691,-4.188,-4.1556,-4.1113,-4.0746,-4.079,-4.0797,-4.0797,-4.0797,-4.0797,-4.0797,-4.0797,-4.0797,-4.0797,-4.0797,-4.0797,-4.0797,-4.0797,-4.0797,-4.0797,-4.0797,-4.0797,-4.0797,-4.0797,-4.0797,-4.0797,-4.0797,-4.0621,-4.0446,-4.0342,-4.0257,-4.0185,-4.0139,-4.007,-4.001,-4.001,-3.9935,-3.99,-3.99,-3.99,-3.99,-3.99,-3.99,-3.9878,-3.9815,-3.9815,-3.9848,-3.3547,0.0,0.0,-3.4727,-3.6332,-3.7361,-3.6748,-3.7092,-3.8066,-3.9919,-4.0301,-4.0301,-4.0301,-4.0301,-4.0358,-4.0597,-4.1113,-4.1648,-4.2125,-4.2728,-4.3446,-4.4326,-4.448,-4.4557,-4.4612,-4.5149,-4.5522,-4.5586,-4.5594,-4.5594,-4.5594,-4.5594,-4.5594,-4.5594,-4.5594,-4.5594,-4.5594,-4.5594,-4.5594,-4.5594,-4.5594,-4.5594,-4.5594,-4.5594,-4.5594,-4.5594,-4.5594,-4.5594,-4.5594,-4.5594,-4.5594,-4.5594,-4.5594,-4.5594,-4.5594,-4.5594,-4.5594,-4.5594,-4.5594,-4.5594,-4.5594,-4.5594,-4.5171,-4.4613,-4.4427,-4.3538,-4.2503,-4.208,-4.153,-4.1016,-4.081,-4.079,-4.0797,-4.0797,-4.0797,-4.0797,-4.0797,-4.0797,-4.0797,-4.0797,-4.0797,-4.0797,-4.0797,-4.0797,-4.0797,-4.0797,-4.0797,-4.0797,-4.0797,-4.0797,-4.0797,-4.0797,-4.0668,-4.0566,-4.0492,-4.0407,-4.0342,-4.0309,-4.0167,-4.0101,-4.0101,-3.9977,-3.99,-3.99,-3.99,-3.99,-3.99,-3.99,-3.9922,-3.9956,-3.9956,-3.9956,-2.7816,0.0,-3.3007,-3.4754,-3.7658,-4.0101,-4.0139,-4.0167,-4.0205,-4.0282,-4.0301,-4.0301,-4.0301,-4.0301,-4.0559,-4.1342,-4.1476,-4.2068,-4.3701,-4.3949,-4.4284,-4.5154,-4.532,-4.5351,0.0,-4.5457,-4.5522,-4.5586,-4.5594,-4.5594,-4.5594,-4.5594,-4.5594,-4.5594,-4.5594,-4.5594,-4.5594,-4.5594,-4.5594,-4.5594,-4.5594,-4.5594,-4.5594,-4.5594,-4.5594,-4.5594,-4.5594,-4.5594,-4.5594,-4.5594,-4.5594,-4.5594,-4.5594,-4.5594,-4.5594,-4.5594,-4.5594,-4.5594,-4.5594,-4.5594,-4.5594,-4.5594,-4.5575,-4.5402,-4.4556,-4.4303,-4.3989,-4.236,-4.1938,-4.1782,-4.0913,-4.0746,-4.0797,-4.0797,-4.0797,-4.0797,-4.0797,-4.0797,-4.0797,-4.0797,-4.0797,-4.0797,-4.0797,-4.0797,-4.0797,-4.0797,-4.0797,-4.0797,-4.0797,-4.0797,-4.0797,-4.0797,-4.079,-4.0707,-4.0518,-4.0503,-4.0431,-4.0317,-4.0167,-4.0101,-4.0101,-3.9977,-3.99,-3.99,-3.99,-3.99,-3.99,-3.99,-3.9967,-4.0091,-4.0091,-4.0091,-3.0602,0.0,-3.5779,-3.8027,-3.9432,-4.0263,-4.0282,-4.0301,-4.0301,-4.0301,-3.9421,-3.8637,-3.8637,-3.9085,-3.9525,-3.9793,-4.1705,-4.3357,-4.3911,-4.4494,-4.4993,-4.5339,-4.5398,0.0,0.0,0.0,0.0,-4.5586,-4.5594,-4.5594,-4.5594,-4.5594,-4.5594,-4.5594,-4.5594,-4.5594,-4.5594,-4.5594,-4.5594,-4.5594,-4.5594,-4.5594,-4.5594,-4.5594,-4.5594,-4.5594,-4.5594,-4.5594,-4.5594,-4.5594,-4.5594,-4.5594,-4.5594,-4.5594,-4.5594,-4.5594,-4.5594,-4.5594,-4.5594,-4.5594,-4.5594,-4.5594,-4.5594,-4.5556,-4.5248,-4.4767,-4.4091,-4.3007,-4.234,-4.1747,-4.0906,-4.0746,-4.0797,-4.0797,-4.0797,-4.0797,-4.0797,-4.0797,-4.0797,-4.0797,-4.0797,-4.0797,-4.0797,-4.0797,-4.0797,-4.0797,-4.0797,-4.0797,-4.0797,-4.0797,-4.0797,-4.0797,-4.0797,-4.0759,-4.0707,-4.07,-4.0687,-4.0633,-4.0458,-4.0326,-4.0239,-4.0101,-3.9979,-3.99,-3.99,-3.99,-3.99,-3.9998,-4.006,-4.0101,-4.0185,-4.023,-3.3256,-3.535,-3.7174,-3.967,-4.0301,-4.0301,-4.0301,-4.0301,-4.0301,-4.0301,-3.8732,-3.7343,-3.7343,-3.8012,-3.8472,-3.8165,-4.117,-4.3567,-4.3567,-4.4313,-4.4994,-4.536,-4.5419,-4.5448,0.0,0.0,0.0,-4.5594,-4.5594,-4.5594,-4.5594,-4.5594,-4.5594,-4.5594,-4.5594,-4.5594,-4.5594,-4.5594,-4.5594,-4.5594,-4.5594,-4.5594,-4.5594,-4.5594,-4.5594,-4.5594,-4.5594,-4.5594,-4.5594,-4.5594,-4.5594,-4.5594,-4.5594,-4.5594,-4.5594,-4.5594,-4.5594,-4.5594,-4.5594,-4.5594,-4.5594,-4.5594,-4.5594,-4.5594,-4.5594,-4.521,-4.4594,-4.3753,-4.2946,-4.2147,-4.1347,-4.0951,-4.0752,-4.0752,-4.0784,-4.0797,-4.0797,-4.0797,-4.0797,-4.0797,-4.0797,-4.0797,-4.0797,-4.0797,-4.0797,-4.0797,-4.0797,-4.0797,-4.0797,-4.0797,-4.0797,-4.0797,-4.0797,-4.0797,-4.0797,-4.0797,-4.0797,-4.0797,-4.0614,-4.0454,-4.0375,-4.0239,-4.0139,-4.005,-4.005,-4.005,-4.005,-4.0129,-4.0213,-4.0258,-4.0334,-4.0375,-3.5295,-3.6648,-3.7264,-3.969,-4.0301,-4.0301,-4.0301,-4.0301,-4.0263,-4.0138,-3.812,-3.6337,0.0,0.0,-3.7477,-3.6635,-4.0128,-4.2928,-4.2928,-4.3636,-4.4479,0.0,0.0,0.0,0.0,0.0,0.0,-4.5586,0.0,-4.5594,-4.5594,-4.5594,-4.5594,-4.5594,-4.5594,-4.5594,-4.5594,-4.5594,-4.5594,-4.5594,-4.5594,-4.5594,-4.5594,-4.5594,-4.5594,-4.5594,-4.5594,-4.5594,-4.5594,-4.5594,-4.5594,-4.5594,-4.5594,-4.5594,-4.5594,-4.5594,-4.5594,-4.5594,-4.5594,-4.5594,-4.5594,-4.5594,-4.5594,-4.5594,-4.5594,-4.5594,-4.5421,-4.4547,-4.3753,-4.2977,-4.211,-4.134,-4.0752,-4.072,-4.0746,-4.079,-4.0797,-4.0797,-4.0797,-4.0797,-4.0797,-4.0797,-4.0797,-4.0797,-4.0797,-4.0797,-4.0797,-4.0797,-4.0797,-4.0797,-4.0797,-4.0797,-4.0797,-4.0797,-4.0797,-4.0797,-4.0797,-4.0797,-4.0621,-4.0511,-4.0511,-4.0383,-4.0317,-4.0309,-4.0309,-4.0309,-4.0309,-4.0317,-4.0375,-4.0511,-4.0511,-4.0518,-3.6192,-3.7902,-3.948,-4.0129,-4.0301,-4.0301,-4.0301,-4.0301,-3.9756,-3.7861,-3.6001,-3.4124,0.0,0.0,0.0,-3.661,-4.1112,0.0,-4.4727,-4.4898,0.0,-4.5381,0.0,-4.5419,-4.5419,-4.5495,0.0,0.0,-4.5568,-4.5594,-4.5594,-4.5594,-4.5594,-4.5594,-4.5594,-4.5594,-4.5594,-4.5594,-4.5594,-4.5594,-4.5594,-4.5594,-4.5594,-4.5594,-4.5594,-4.5594,-4.5594,-4.5594,-4.5594,-4.5594,-4.5594,-4.5594,-4.5594,-4.5594,-4.5594,-4.5594,-4.5594,-4.5594,-4.5594,-4.5594,-4.5594,-4.5594,-4.5594,-4.5594,-4.5594,-4.5594,-4.5421,-4.4547,-4.4196,-4.372,-4.2283,-4.1762,-4.1431,-4.0848,-4.0707,-4.0739,-4.079,-4.0797,-4.0797,-4.0797,-4.0797,-4.0797,-4.0797,-4.0797,-4.0797,-4.0797,-4.0797,-4.0797,-4.0797,-4.0797,-4.0797,-4.0797,-4.0797,-4.0797,-4.0797,-4.0797,-4.0797,-4.0797,-4.0752,-4.0661,-4.0511,-4.0481,-4.0399,-4.0309,-4.0309,-4.0309,-4.0309,-4.0399,-4.0481,-4.0511,-4.0654,-4.0713,-3.7874,-3.9212,-4.0301,-4.0301,-4.0301,-4.0014,-3.8888,-3.8638,-3.7929,-3.5392,-3.3293,0.0,-3.0036,0.0,0.0,0.0,0.0,0.0,-4.4286,-4.4554,-4.4938,0.0,-4.5409,0.0,-4.54,-4.5429,-4.5467,0.0,-4.555,-4.5594,-4.5594,-4.5594,-4.5594,-4.5594,-4.5594,-4.5594,-4.5594,-4.5594,-4.5594,-4.5594,-4.5594,-4.5594,-4.5594,-4.5594,-4.5594,-4.5594,0.0,-4.5594,-4.5594,-4.5594,-4.5594,-4.5594,-4.5594,-4.5594,-4.5594,-4.5594,-4.5594,-4.5594,-4.5594,-4.5594,-4.5594,-4.5594,-4.5594,-4.5594,-4.5594,-4.5594,-4.5498,-4.5017,-4.4622,-4.4138,-4.3195,-4.2688,-4.2321,-4.1902,-4.1537,-4.1286,-4.1326,-4.1048,-4.0797,-4.0797,-4.0797,-4.0797,-4.0797,-4.0797,-4.0797,-4.0797,-4.0797,-4.0797,-4.0797,-4.0797,-4.0797,-4.0797,-4.0797,-4.0797,-4.0797,-4.0797,-4.0797,-4.0797,-4.0797,-4.0746,-4.0647,-4.0628,-4.06,-4.0515,-4.0515,-4.0515,-4.0515,-4.0593,-4.0628,-4.0628,-4.0746,-4.0797,-3.969,-4.0301,-4.0301,-4.0301,-4.0301,-3.9632,-3.7082,-3.6495,-3.5667,-3.2747,0.0,-2.8961,-2.8526,-3.1833,-3.4316,-3.33,0.0,-4.3424,-4.3186,-4.3789,-4.4546,-4.5312,-4.538,-4.5381,-4.5381,-4.539,-4.539,-4.539,-4.5504,-4.5577,-4.5577,-4.5577,-4.5586,-4.5594,-4.5594,-4.5594,-4.5594,-4.5594,-4.5594,-4.5594,-4.5594,-4.5594,-4.5594,-4.5594,-4.5594,-4.5594,0.0,0.0,-4.5594,-4.5594,-4.5594,-4.5594,-4.5594,-4.5594,-4.5594,-4.5594,-4.5594,-4.5594,-4.5594,-4.5594,-4.5594,-4.5594,-4.5594,-4.5594,-4.5594,-4.5594,-4.5594,-4.5594,-4.5056,-4.4451,-4.4335,-4.3792,-4.3254,-4.3196,-4.2654,-4.2168,-4.217,-4.1525,-4.0971,-4.0971,-4.0874,-4.0797,-4.0797,-4.0797,-4.0797,-4.0797,-4.0797,-4.0797,-4.0797,-4.0797,-4.0797,-4.0797,-4.0797,-4.0797,-4.0797,-4.0797,-4.0797,-4.0797,-4.0797,-4.0797,-4.0797,-4.0797,-4.0797,-4.0797,-4.0797,-4.0797,-4.0797,-4.0797,-4.0797,-4.0797,-4.0797,-4.0797,-4.0186,-4.0301,-4.0301,-4.0301,-4.0301,-3.9623,-3.7077,-3.6501,0.0,0.0,-2.8892,-2.8244,-2.5476,-2.8359,-3.1979,-3.4469,0.0,0.0,0.0,0.0,-4.5156,0.0,0.0,0.0,0.0,0.0,0.0,0.0,0.0,0.0,-4.5429,-4.5495,-4.5531,-4.5594,-4.5594,-4.5594,-4.5594,-4.5594,-4.5594,-4.5594,-4.5594,-4.5594,-4.5594,-4.5594,-4.5594,-4.5594,0.0,0.0,-4.5594,-4.5594,-4.5594,-4.5594,-4.5594,-4.5594,-4.5594,-4.5594,-4.5594,-4.5594,-4.5594,-4.5594,-4.5594,-4.5594,-4.5594,-4.5594,-4.5594,-4.5594,-4.5594,-4.5594,-4.5498,-4.521,-4.4489,-4.4209,-4.3937,-4.3265,-4.3042,-4.2983,-4.2999,-4.2357,-4.1796,-4.1796,-4.1255,-4.0797,-4.0797,-4.0797,-4.0797,-4.0797,-4.0797,-4.0797,-4.0797,-4.0797,-4.0797,-4.0797,-4.0797,-4.0797,-4.0797,-4.0797,-4.0797,-4.0797,-4.0797,-4.0797,-4.0797,-4.0797,-4.0797,-4.0797,-4.0797,-4.0797,-4.0797,-4.0797,-4.0797,-4.0797,-4.0797,-4.0797,-4.0301,-4.0301,-4.0301,-4.0301,-4.0301,-3.9279,-3.5441,0.0,0.0,0.0,-2.583,-2.5466,-2.4317,-2.716,0.0,0.0,0.0,0.0,0.0,0.0,0.0,0.0,0.0,0.0,0.0,0.0,0.0,0.0,0.0,0.0,-4.54,-4.5457,-4.5513,-4.555,-4.5577,-4.5594,-4.5594,-4.5594,-4.5594,-4.5594,-4.5594,-4.5594,-4.5594,-4.5594,-4.5594,-4.5594,-4.5594,0.0,-4.5594,-4.5594,-4.5594,-4.5594,-4.5594,-4.5594,-4.5594,-4.5594,-4.5594,-4.5594,-4.5594,-4.5594,-4.5594,-4.5594,-4.5594,-4.5594,-4.5594,-4.5594,-4.5594,-4.5594,-4.5594,-4.5498,-4.5094,-4.4979,-4.4891,-4.4529,-4.416,-4.375,-4.3301,-4.293,-4.2686,-4.2686,-4.2357,-4.1951,-4.1506,-4.1409,-4.1274,-4.0855,-4.0797,-4.0797,-4.0797,-4.0797,-4.0797,-4.0797,-4.0797,-4.0797,-4.0797,-4.0797,-4.0797,-4.0797,-4.0797,-4.0797,-4.0797,-4.0797,-4.0797,-4.0797,-4.0797,-4.0797,-4.0797,-4.0797,-4.0797,-4.0797,-4.0797,-4.0797,-4.0205,-4.0301,-4.0339,-4.0511,-4.0559,-3.925,-3.4213,-3.2398,0.0,-2.4859,-2.3241,-2.3009,-2.3706,-2.6133,-2.8526,0.0,-3.4864,0.0,0.0,0.0,0.0,0.0,0.0,0.0,0.0,0.0,0.0,0.0,0.0,0.0,-4.54,-4.5448,-4.5476,-4.5485,-4.5531,-4.5577,-4.5577,-4.5586,-4.5594,-4.5594,-4.5594,-4.5594,-4.5594,-4.5594,-4.5594,-4.5594,-4.5594,0.0,0.0,-4.5594,-4.5594,-4.5594,-4.5594,-4.5594,-4.5594,-4.5594,-4.5594,-4.5594,-4.5594,-4.5594,-4.5594,-4.5594,-4.5594,-4.5594,-4.5594,-4.5594,-4.5594,-4.5594,-4.5594,-4.5594,-4.5594,-4.5594,-4.5622,-4.5693,-4.521,-4.4568,-4.39,-4.3664,-4.3576,-4.3576,-4.344,-4.3073,-4.2396,-4.228,-4.2067,-4.1429,-4.1184,-4.1067,-4.1067,-4.0913,-4.0797,-4.0797,-4.0797,-4.0797,-4.0797,-4.0797,-4.0797,-4.0797,-4.0797,-4.0797,-4.0797,-4.0797,-4.0797,-4.0797,-4.0797,-4.0797,-4.0797,-4.0797,-4.0797,-4.0797,-4.0797,-4.0797,-3.9862,-4.0301,-4.0473,-4.1208,-4.138,-4.01,-3.5109,0.0,-3.0829,-2.4255,-2.2851,-2.2816,-2.2893,-2.3817,-2.5817,-2.9665,0.0,-3.4186,0.0,0.0,0.0,0.0,0.0,0.0,0.0,0.0,0.0,0.0,0.0,0.0,0.0,-4.5418,-4.54,-4.541,-4.5466,-4.5504,-4.5504,-4.5568,-4.5594,-4.5594,-4.5594,-4.5594,-4.5594,-4.5594,-4.5594,-4.5594,0.0,0.0,0.0,-4.5594,-4.5594,-4.5594,-4.5594,-4.5594,-4.5594,-4.5594,-4.5594,-4.5594,-4.5594,-4.5594,-4.5594,-4.5594,-4.5594,-4.5594,-4.5594,-4.5594,-4.5594,-4.5594,-4.5594,-4.5594,-4.5594,-4.5594,-4.5622,-4.5693,-4.5637,-4.5588,-4.5568,-4.4998,-4.4478,-4.4478,-4.3846,-4.3266,-4.3189,-4.3189,-4.3169,-4.3073,-4.2396,-4.1893,-4.1893,-4.1255,-4.0797,-4.0797,-4.0797,-4.0797,-4.0797,-4.0797,-4.0797,-4.0797,-4.0797,-4.0797,-4.0797,-4.0797,-4.0797,-4.0797,-4.0797,-4.0797,-4.0797,-4.0797,-4.0797,-4.0797,-4.0797,-4.0797,-4.0291,-4.1017,-4.1227,-4.2068,-4.0768,-3.8367,-3.4887,0.0,-2.7837,-2.3668,-2.2004,-2.16,-2.2605,-2.3086,-2.4192,-2.6858,-2.9243,0.0,0.0,0.0,0.0,0.0,0.0,0.0,0.0,0.0,0.0,0.0,0.0,0.0,0.0,-4.5277,-4.5399,-4.54,-4.5477,-4.5504,-4.5504,-4.5568,-4.5594,-4.5594,-4.5594,-4.5594,-4.5594,-4.5594,-4.5594,-4.5594,0.0,0.0,0.0,-4.5594,-4.5594,-4.5594,-4.5594,-4.5594,-4.5594,-4.5594,-4.5594,-4.5594,-4.5594,-4.5594,-4.5594,-4.5594,-4.5594,-4.5594,-4.5594,-4.5594,-4.5594,-4.5594,-4.5594,-4.5594,-4.5594,-4.5594,-4.5614,-4.564,-4.5673,-4.5722,-4.5723,-4.5529,-4.5327,-4.5316,-4.5045,-4.4639,-4.4175,-4.4072,-4.3904,-4.3382,-4.2995,-4.2783,-4.2783,-4.2048,-4.1525,-4.1525,-4.1087,-4.0797,-4.0797,-4.0797,-4.0797,-4.0797,-4.0797,-4.0797,-4.0797,-4.0797,-4.0797,-4.0797,-4.0797,-4.0797,-4.0797,-4.0797,-4.0797,-4.0797,-4.0797,-4.0784,-3.9603,-4.1113,-4.2087,-4.2947,-4.0635,-3.7515,0.0,0.0,-2.6112,-2.3365,-2.1466,-2.0808,-2.2489,-2.2797,-2.3351,-2.5038,-2.7481,-2.9519,-3.0529,0.0,0.0,0.0,0.0,0.0,0.0,0.0,0.0,0.0,0.0,0.0,0.0,-4.4946,-4.5184,-4.5359,-4.5429,-4.5477,-4.5477,-4.5541,-4.5568,-4.5568,-4.5586,-4.5594,-4.5594,-4.5594,-4.5594,-4.5594,0.0,0.0,0.0,-4.5594,-4.5594,-4.5594,-4.5594,-4.5594,-4.5594,-4.5594,-4.5594,-4.5594,-4.5594,-4.5594,-4.5594,-4.5594,-4.5594,-4.5594,-4.5594,-4.5594,-4.5594,-4.5594,-4.5594,-4.5594,-4.5594,-4.5594,-4.5594,-4.5594,-4.5648,-4.5709,-4.5703,-4.575,-4.5795,-4.5805,-4.58,-4.5633,-4.5045,-4.4949,-4.4755,-4.4136,-4.3846,-4.3686,-4.3711,-4.2942,-4.2418,-4.2433,-4.1693,-4.1071,-4.0816,-4.0797,-4.0797,-4.0797,-4.0797,-4.0797,-4.0797,-4.0797,-4.0797,-4.0797,-4.0797,-4.0797,-4.0797,-4.0797,-4.079,-4.0778,-4.0778,-4.0733,-3.7273,-4.0215,-4.2985,-4.3796,-4.1476,-3.8338,0.0,0.0,-2.6836,-2.35,-2.1466,-2.0808,-2.2489,-2.2797,-2.3351,-2.5038,-2.6008,0.0,-3.1027,0.0,0.0,0.0,0.0,0.0,0.0,0.0,0.0,0.0,0.0,0.0,0.0,-4.4416,-4.4682,-4.5286,-4.5378,-4.5408,-4.5408,-4.5467,-4.5504,-4.5504,-4.5568,-4.5594,-4.5594,-4.5594,-4.5594,0.0,0.0,0.0,0.0,-4.5594,-4.5594,-4.5594,-4.5594,-4.5594,-4.5594,-4.5594,-4.5594,-4.5594,-4.5594,-4.5594,-4.5594,-4.5594,-4.5594,-4.5594,-4.5594,-4.5594,-4.5594,-4.5594,-4.5594,-4.5594,-4.5594,-4.5594,-4.5594,-4.5594,-4.5648,-4.5701,-4.5701,-4.5746,-4.5807,-4.5807,-4.5798,-4.5807,-4.5787,-4.5787,-4.5787,-4.5787,-4.5104,-4.4608,-4.4679,-4.3918,-4.3421,-4.3487,-4.2645,-4.1747,-4.0867,-4.0797,-4.0797,-4.0797,-4.0797,-4.0797,-4.0797,-4.0797,-4.0797,-4.0797,-4.0797,-4.0797,-4.0797,-4.0797,-4.0778,-4.07,-4.07,-4.0679,-3.4235,-3.5952,-3.7001,-3.7834,-3.5541,-3.2847,-3.2056,-2.7988,-2.4087,-2.3024,-2.1438,-2.0757,-2.2482,-2.279,-2.3539,-2.5826,-2.6362,0.0,0.0,0.0,0.0,0.0,0.0,0.0,0.0,0.0,0.0,0.0,0.0,0.0,0.0,-4.4289,-4.4498,-4.4669,-4.4745,-4.4868,-4.5068,-4.5126,-4.5243,-4.5429,-4.5504,-4.5522,-4.5522,-4.5577,0.0,0.0,0.0,0.0,0.0,-4.5594,-4.5594,-4.5594,-4.5594,-4.5594,-4.5594,-4.5594,-4.5594,-4.5594,-4.5594,-4.5594,-4.5594,-4.5594,-4.5594,-4.5594,-4.5594,-4.5594,-4.5594,-4.5594,-4.5594,-4.5594,-4.5594,-4.5594,-4.5594,-4.5594,-4.5622,-4.564,-4.5693,-4.5722,-4.5723,-4.5723,-4.5764,-4.58,-4.5791,-4.5805,-4.5807,-4.5807,-4.5654,-4.557,-4.5589,-4.4878,-4.4366,-4.439,-4.3594,-4.2692,-4.1824,-4.1213,-4.0888,-4.0937,-4.0898,-4.0893,-4.0937,-4.0898,-4.0893,-4.0937,-4.0937,-4.0913,-4.0861,-4.0861,-4.083,-4.0767,-4.0828,-4.0756,-3.0882,-3.3268,-3.4623,-3.5159,-3.2783,-3.0216,-2.9909,0.0,-2.272,-2.237,-2.1184,-2.0634,-2.2051,-2.2315,-2.305,-2.5259,-2.5575,0.0,0.0,0.0,0.0,0.0,0.0,0.0,0.0,0.0,0.0,0.0,0.0,0.0,0.0,0.0,-4.4053,-4.4053,-4.4425,-4.465,-4.4714,-4.4776,-4.4943,-4.5211,-4.5292,-4.539,-4.5504,-4.5531,0.0,0.0,0.0,0.0,0.0,-4.5594,-4.5594,-4.5594,-4.5594,-4.5594,-4.5594,-4.5594,-4.5594,-4.5594,-4.5594,-4.5594,-4.5594,-4.5594,-4.5594,-4.5594,-4.5594,-4.5594,-4.5594,-4.5594,-4.5594,-4.5594,-4.5594,-4.5594,-4.5594,-4.5594,-4.5594,-4.5603,-4.5648,-4.5671,-4.5703,-4.5703,-4.5739,-4.5776,-4.5807,-4.581,-4.5805,-4.58,-4.5861,-4.5944,-4.6032,-4.5605,-4.5306,-4.5369,-4.4558,-4.3812,-4.3301,-4.2413,-4.1902,-4.1948,-4.191,-4.1902,-4.1948,-4.1906,-4.1902,-4.1938,-4.1938,-4.1912,-4.1875,-4.1887,-4.1851,-4.1815,-4.1771,-4.1737,0.0,-3.1384,-3.4411,-3.4411,-3.2075,-2.9569,-2.8827,-2.5576,0.0,-2.1677,-2.0815,-2.0476,-2.1408,-2.16,-2.2157,-2.389,-2.4231,0.0,0.0,0.0,0.0,0.0,0.0,0.0,0.0,0.0,0.0,0.0,0.0,0.0,0.0,0.0,-4.3513,-4.3515,-4.4313,-4.4624,-4.4369,-4.4425,-4.4599,-4.4879,-4.4919,-4.5129,-4.5457,-4.5457,0.0,0.0,0.0,0.0,0.0,-4.5594,-4.5594,-4.5594,-4.5594,-4.5594,-4.5594,-4.5594,-4.5594,-4.5594,-4.5594,-4.5594,-4.5594,-4.5594,-4.5594,-4.5594,-4.5594,-4.5594,-4.5594,-4.5594,-4.5594,-4.5594,-4.5594,-4.5594,-4.5594,-4.5594,-4.5594,-4.5594,-4.5594,-4.5648,-4.5701,-4.5693,-4.5695,-4.5715,-4.5773,-4.5807,-4.5803,-4.58,-4.5814,-4.5879,-4.608,-4.6105,-4.6153,-4.6289,-4.552,-4.5029,-4.5097,-4.4126,-4.3506,-4.3509,-4.3506,-4.3503,-4.3509,-4.3503,-4.3513,-4.35,-4.352,-4.3509,-4.351,-4.3514,-4.3517,-4.348,-4.3325,-4.3288,-2.2949,0.0,-2.5737,-2.5737,-2.5143,-2.451,0.0,-2.3,-2.1754,0.0,0.0,0.0,0.0,-2.2417,-2.3179,-2.5535,0.0,0.0,0.0,0.0,0.0,0.0,0.0,0.0,0.0,0.0,0.0,0.0,0.0,0.0,0.0,0.0,-4.3765,-4.3515,-4.3952,-4.4166,-4.4091,-4.4106,-4.425,-4.4519,-4.4585,-4.48,-4.5107,-4.5107,0.0,0.0,0.0,0.0,-4.5594,-4.5594,-4.5594,-4.5594,-4.5594,-4.5594,-4.5594,-4.5594,-4.5594,-4.5594,-4.5594,-4.5594,-4.5594,-4.5594,-4.5594,-4.5594,-4.5594,-4.5594,-4.5594,-4.5594,-4.5594,-4.5594,-4.5594,-4.5594,-4.5594,-4.5594,-4.5594,-4.5594,-4.5594,-4.5648,-4.5673,-4.564,-4.5651,-4.5708,-4.5715,-4.5765,-4.5803,-4.58,-4.5899,-4.5993,-4.6087,-4.6145,-4.6207,-4.6289,-4.6093,-4.5976,-4.5996,-4.4518,-4.3609,-4.3646,-4.3604,-4.3599,-4.3641,-4.3593,-4.3604,-4.365,-4.3643,-4.3658,-4.3654,-4.3645,-4.3575,-4.3428,-4.3539,-4.3421,-2.0894,-2.2117,-2.3395,-2.3395,-2.3404,-2.3297,-2.2893,-2.212,0.0,0.0,0.0,0.0,0.0,0.0,0.0,0.0,0.0,0.0,0.0,0.0,0.0,0.0,0.0,0.0,0.0,0.0,0.0,0.0,0.0,0.0,0.0,0.0,-4.3682,-4.3515,-4.3682,-4.3781,-4.3781,-4.3781,-4.3923,-4.4221,-4.4265,-4.4457,-4.4776,-4.4776,0.0,0.0,0.0,0.0,-4.5594,-4.5594,-4.5594,-4.5594,-4.5594,-4.5594,-4.5594,-4.5594,-4.5594,-4.5594,-4.5594,-4.5594,-4.5594,-4.5594,-4.5594,-4.5594,-4.5594,-4.5594,-4.5594,-4.5594,-4.5594,-4.5594,-4.5594,-4.5594,-4.5594,-4.5594,-4.5594,-4.5594,-4.5594,-4.5631,-4.564,-4.5614,-4.5629,-4.5651,-4.5695,-4.5738,-4.575,-4.5791,-4.5867,-4.5947,-4.605,-4.6084,-4.6134,-4.6204,-4.6235,-4.6241,-4.6241,-4.5379,-4.4855,-4.4882,-4.4856,-4.4853,-4.4898,-4.4866,-4.4862,-4.4892,-4.4886,-4.4881,-4.4881,-4.4898,-4.4833,-4.4727,-4.4788,-4.467,-2.037,-2.245,-2.4442,-2.3842,-2.3793,-2.3692,-2.2957,-2.219,0.0,0.0,0.0,0.0,0.0,-2.4221,0.0,0.0,0.0,0.0,0.0,0.0,0.0,0.0,0.0,0.0,0.0,0.0,0.0,0.0,0.0,0.0,0.0,0.0,0.0,-4.3515,-4.3515,-4.3515,-4.3515,-4.3515,-4.3649,-4.3926,-4.3926,-4.4087,-4.4419,-4.4425,-4.465,0.0,0.0,0.0,-4.5513,-4.5568,-4.5586,-4.5586,-4.5605,-4.5594,-4.5594,-4.5594,-4.5594,-4.5594,-4.5594,-4.5594,-4.5594,-4.5594,-4.5594,-4.5594,-4.5594,-4.5594,-4.5594,-4.5594,-4.5594,-4.5594,-4.5594,-4.5594,-4.5594,-4.5594,-4.5594,-4.5594,-4.5594,-4.5594,-4.5594,-4.5594,-4.5594,-4.5631,-4.5693,-4.5701,-4.5726,-4.5785,-4.5781,-4.5833,-4.5975,-4.5972,-4.6018,-4.6087,-4.6142,-4.6184,-4.6184,-4.6252,-4.6303,-4.6305,-4.6306,-4.6304,-4.63,-4.63,-4.6297,-4.6291,-4.6305,-4.63,-4.63,-4.63,-4.6275,-4.624,-4.6153,-4.6098,-2.1107,-2.4005,-2.602,-2.271,-2.2412,-2.2873,-2.2758,-2.251,-2.2334,0.0,0.0,0.0,0.0,-2.6012,0.0,0.0,0.0,0.0,0.0,0.0,0.0,0.0,0.0,0.0,0.0,0.0,0.0,0.0,0.0,0.0,0.0,0.0,0.0,-4.3515,-4.3515,-4.3515,-4.3515,-4.3515,-4.3532,-4.3565,-4.3565,-4.3742,-4.4091,-4.4072,-4.4308,0.0,0.0,-4.4996,-4.5107,-4.54,-4.5513,-4.5513,-4.5577,-4.5594,-4.5594,-4.5594,-4.5594,-4.5594,-4.5594,-4.5594,-4.5594,-4.5594,-4.5594,-4.5594,-4.5594,-4.5594,-4.5594,-4.5594,-4.5594,-4.5594,-4.5594,-4.5594,-4.5594,-4.5594,-4.5594,-4.5594,-4.5594,-4.5594,-4.5594,-4.5594,-4.5594,-4.5631,-4.5693,-4.5701,-4.5698,-4.5708,-4.5765,-4.5826,-4.5908,-4.5925,-4.5949,-4.6006,-4.6086,-4.6114,-4.6114,-4.6228,-4.6301,-4.6296,-4.6296,-4.6293,-4.6305,-4.6305,-4.6303,-4.6303,-4.6302,-4.63,-4.63,-4.63,-4.6181,-4.5973,-4.6176,-4.6111,-2.0697,-2.2675,-2.4643,-2.4645,-2.6513,-2.8366,-2.8366,-2.7961,-2.7081,0.0,0.0,0.0,0.0,0.0,0.0,0.0,0.0,0.0,0.0,0.0,0.0,0.0,0.0,0.0,0.0,0.0,0.0,0.0,0.0,0.0,0.0,0.0,0.0,0.0,-4.3515,-4.3515,-4.3515,-4.3515,-4.3515,-4.3515,-4.3515,-4.358,-4.3726,-4.373,-4.3934,-4.4276,0.0,-4.4548,-4.48,-4.4996,-4.514,-4.5302,-4.5352,-4.5457,-4.5594,-4.5594,-4.5594,-4.5594,-4.5594,-4.5594,-4.5594,-4.5594,-4.5594,-4.5594,-4.5594,-4.5594,-4.5594,-4.5594,-4.5594,-4.5594,-4.5594,-4.5594,-4.5594,-4.5594,-4.5594,-4.5594,-4.5594,-4.5594,-4.5594,-4.5594,-4.5594,-4.5622,-4.564,-4.5648,-4.5657,-4.5687,-4.573,-4.5758,-4.5787,-4.5782,-4.5809,-4.5834,-4.5949,-4.6021,-4.5935,-4.6167,-4.6293,-4.6293,-4.6309,-4.6305,-4.63,-4.63,-4.63,-4.63,-4.63,-4.63,-4.63,-4.6238,-4.6135,-4.6005,-4.6057,-4.5979,-2.0666,-2.2062,-2.4089,-2.6812,-2.9364,-3.1601,-3.3114,-3.2331,-3.0798,-2.9063,0.0,0.0,0.0,0.0,0.0,0.0,0.0,0.0,0.0,0.0,0.0,0.0,0.0,0.0,0.0,0.0,0.0,0.0,0.0,0.0,0.0,0.0,0.0,0.0,-4.3515,-4.3515,-4.3515,-4.3515,-4.3515,-4.3515,-4.3515,-4.3515,-4.3515,-4.3515,-4.3629,-4.3896,-4.3974,-4.4165,-4.4465,-4.4599,-4.4812,-4.5063,-4.5137,-4.5332,-4.5577,-4.5586,-4.5594,-4.5594,-4.5594,-4.5594,-4.5594,-4.5594,-4.5594,-4.5594,-4.5594,-4.5594,-4.5594,-4.5594,-4.5594,-4.5594,-4.5594,-4.5594,-4.5594,-4.5594,-4.5594,-4.5594,-4.5594,-4.5594,-4.5594,-4.5594,-4.5594,-4.5594,-4.5594,-4.5594,-4.5622,-4.5676,-4.5693,-4.569,-4.5703,-4.5692,-4.5692,-4.5692,-4.5841,-4.5922,-4.5863,-4.6114,-4.6275,-4.6309,-4.6305,-4.63,-4.63,-4.63,-4.63,-4.63,-4.63,-4.63,-4.63,-4.6173,-4.6072,-4.6053,-4.594,-4.5858,-2.2057,-2.4366,-2.672,-2.7782,-2.6671,-2.688,-3.2854,-3.1775,-3.0296,-3.3183,0.0,0.0,0.0,0.0,0.0,0.0,0.0,0.0,0.0,0.0,0.0,0.0,0.0,0.0,0.0,0.0,0.0,0.0,0.0,0.0,0.0,0.0,0.0,0.0,0.0,-4.3515,-4.3515,-4.3515,-4.3515,-4.3515,-4.3515,-4.3515,-4.3515,-4.3515,-4.3513,-4.3548,-4.386,-4.4036,-4.4064,-4.4369,-4.4676,-4.4908,-4.4996,-4.5211,-4.5513,-4.5577,-4.5594,-4.5594,-4.5594,-4.5594,-4.5594,-4.5594,-4.5594,-4.5594,-4.5594,-4.5594,-4.5594,-4.5594,-4.5594,-4.5594,-4.5594,-4.5594,-4.5594,-4.5594,-4.5594,-4.5594,-4.5594,-4.5594,-4.5594,-4.5594,-4.5594,-4.5594,-4.5594,-4.5594,-4.5594,-4.5614,-4.5657,-4.5701,-4.5701,-4.5701,-4.5701,-4.5701,-4.5769,-4.5885,-4.6053,-4.6098,-4.6173,-4.63,-4.6302,-4.63,-4.63,-4.63,-4.63,-4.63,-4.63,-4.63,-4.63,-4.6173,-4.6041,-4.5915,-4.5905,-4.5858,-2.1431,-2.4094,-2.6875,-2.7201,-2.7709,-2.9691,-3.5678,-3.6067,-3.5229,-3.548,-3.6237,0.0,0.0,0.0,0.0,0.0,0.0,0.0,0.0,0.0,0.0,0.0,0.0,0.0,0.0,0.0,0.0,0.0,0.0,0.0,0.0,0.0,0.0,0.0,0.0,-4.3515,-4.3515,-4.3515,-4.3515,-4.3515,-4.3515,-4.3515,-4.3515,-4.3515,-4.3515,-4.3515,-4.3632,-4.3699,-4.3716,-4.3855,-4.4095,-4.4387,-4.4837,-4.518,-4.5438,-4.5476,-4.5504,-4.555,-4.555,-4.5568,-4.5594,-4.5594,-4.5594,-4.5594,-4.5594,-4.5594,-4.5594,-4.5594,-4.5594,-4.5594,-4.5594,-4.5594,-4.5594,-4.5594,-4.5594,-4.5594,-4.5594,-4.5594,-4.5594,-4.5594,-4.5594,-4.5594,-4.5594,-4.5594,-4.5594,-4.5594,-4.5631,-4.564,-4.564,-4.564,-4.564,-4.564,-4.5662,-4.5766,-4.5964,-4.5938,-4.5998,-4.615,-4.6247,-4.63,-4.63,-4.63,-4.63,-4.63,-4.63,-4.6269,-4.6178,-4.6045,-4.5929,-4.5841,-4.5754,-4.57,-2.2866,-2.4901,-2.7358,-2.8392,-2.9225,-3.1384,-3.7349,-3.812,-3.7771,-3.8432,-3.8836,-3.8817,-3.7973,0.0,0.0,0.0,0.0,0.0,0.0,0.0,0.0,0.0,0.0,0.0,0.0,0.0,0.0,0.0,0.0,0.0,0.0,0.0,0.0,0.0,0.0,0.0,-4.3515,-4.3515,-4.3515,-4.3515,-4.3515,-4.3515,-4.3515,-4.3515,-4.3515,-4.3515,-4.3515,-4.3515,-4.3496,-4.3548,-4.3744,-4.4065,-4.4707,-4.5074,-4.5253,-4.5352,-4.5438,-4.5504,-4.5504,-4.5531,-4.5594,-4.5594,-4.5594,-4.5594,-4.5594,-4.5594,-4.5594,-4.5594,-4.5594,-4.5594,-4.5594,-4.5594,-4.5594,-4.5594,-4.5594,-4.5594,-4.5594,-4.5594,-4.5594,-4.5594,-4.5594,-4.5594,-4.5594,-4.5594,-4.5594,-4.5594,-4.5594,-4.5594,-4.5594,-4.5594,-4.5594,-4.5594,-4.5594,-4.5673,-4.5846,-4.5822,-4.5866,-4.6033,-4.6112,-4.6184,-4.624,-4.624,-4.6214,-4.6176,-4.6176,-4.6135,-4.6041,-4.5924,-4.5841,-4.58,-4.566,-4.5594,-2.6931,-2.7284,-2.8594,-3.1757,-3.0821,-3.0785,-3.7239,-3.6853,-3.6725,-4.2341,-4.1605,-4.0157,-4.0948,0.0,0.0,0.0,0.0,0.0,0.0,0.0,0.0,0.0,0.0,0.0,0.0,0.0,0.0,0.0,0.0,0.0,0.0,0.0,0.0,0.0,0.0,0.0,-4.3515,-4.3496,-4.3496,-4.3496,-4.3478,-4.3496,-4.3515,-4.3515,-4.3515,-4.3515,-4.3515,-4.3515,-4.3515,-4.3515,-4.3699,-4.4064,-4.465,-4.4884,-4.495,-4.5263,-4.5438,-4.5504,-4.5504,-4.5531,-4.5594,-4.5594,-4.5594,-4.5594,-4.5594,-4.5594,-4.5594,-4.5594,-4.5594,-4.5594,-4.5594,-4.5594,-4.5594,-4.5594,-4.5594,-4.5594,-4.5594,-4.5594,-4.5594,-4.5594,-4.5594,-4.5594,-4.5594,-4.5594,-4.5594,-4.5594,-4.5594,-4.5594,-4.5594,-4.5594,-4.5594,-4.5594,-4.5594,-4.5643,-4.5793,-4.58,-4.5822,-4.5894,-4.5899,-4.5969,-4.6095,-4.6098,-4.6041,-4.5905,-4.5899,-4.5899,-4.5899,-4.5835,-4.5807,-4.58,-4.566,-4.5594,-2.3353,-2.672,0.0,-2.9402,0.0,0.0,0.0,-3.8157,0.0,0.0,-4.2029,-4.0836,-4.1058,0.0,0.0,0.0,0.0,0.0,0.0,0.0,0.0,0.0,0.0,0.0,0.0,0.0,0.0,0.0,0.0,0.0,0.0,0.0,0.0,0.0,0.0,0.0,-4.3515,-4.2928,-4.2653,-4.2653,-4.2084,-4.2396,-4.3515,-4.3515,-4.3515,-4.3515,-4.3515,-4.3515,-4.3515,-4.3515,-4.3699,-4.402,-4.421,-4.4498,-4.4837,-4.4931,-4.5167,-4.5438,-4.5438,-4.5457,-4.555,-4.5586,-4.5594,-4.5594,-4.5594,-4.5594,-4.5594,-4.5594,-4.5594,-4.5594,-4.5594,-4.5594,-4.5594,-4.5594,-4.5594,-4.5594,-4.5594,-4.5594,-4.5594,-4.5594,-4.5594,-4.5594,-4.5594,-4.5594,-4.5594,-4.5594,-4.5594,-4.5594,-4.5594,-4.5594,-4.5594,-4.5594,-4.5594,-4.5612,-4.5671,-4.5651,-4.5704,-4.5822,-4.5829,-4.5871,-4.5964,-4.5969,-4.5935,-4.5905,-4.5899,-4.5881,-4.5829,-4.5808,-4.5749,-4.5651,-4.562,-4.5594,-2.7279,-3.0148,0.0,-3.3747,-3.6743,-3.9625,-4.0432,0.0,0.0,0.0,0.0,0.0,0.0,0.0,0.0,0.0,0.0,0.0,0.0,0.0,0.0,0.0,0.0,0.0,0.0,0.0,0.0,0.0,0.0,0.0,0.0,0.0,0.0,0.0,0.0,0.0,-4.2543,-4.2066,-4.1827,-4.1827,-4.1334,-4.1625,-4.2543,-4.2543,-4.2543,-4.2543,-4.2543,-4.2543,-4.2543,-4.2543,-4.2677,-4.2852,-4.2974,-4.3273,-4.3687,-4.417,-4.4554,-4.4929,-4.5285,-4.5429,-4.5476,-4.5504,-4.555,-4.5568,-4.5568,-4.5577,-4.5594,-4.5594,-4.5594,-4.5594,-4.5594,-4.5594,-4.5594,-4.5594,-4.5594,-4.5594,-4.5594,-4.5594,-4.5594,-4.5594,-4.5594,-4.5594,-4.5594,-4.5594,-4.5594,-4.5594,-4.5594,-4.5594,-4.5594,-4.5594,-4.5594,-4.5594,-4.5594,-4.5594,-4.5594,-4.5594,-4.5618,-4.5723,-4.5712,-4.5737,-4.579,-4.5821,-4.5847,-4.577,-4.577,-4.5768,-4.5712,-4.5712,-4.5676,-4.5594,-4.5594,-4.5594,-3.4683,-3.5363,0.0,-4.1568,-4.1075,0.0,-4.2835,0.0,0.0,0.0,0.0,0.0,0.0,0.0,0.0,0.0,0.0,0.0,0.0,0.0,0.0,0.0,0.0,0.0,0.0,0.0,0.0,0.0,0.0,0.0,0.0,0.0,0.0,0.0,0.0,0.0,-4.1095,-4.1022,-4.0985,0.0,-4.0912,-4.0875,-4.0893,-4.1022,-4.1095,-4.1095,-4.1095,-4.1095,-4.1095,-4.1095,-4.1095,-4.1109,-4.1366,-4.1619,-4.1999,-4.3132,-4.3748,-4.4152,-4.5042,-4.5351,-4.5352,-4.5352,-4.5419,-4.5495,-4.5504,-4.5531,-4.5586,-4.5594,-4.5594,-4.5594,-4.5594,-4.5594,-4.5594,-4.5594,-4.5594,-4.5594,-4.5594,-4.5594,-4.5594,-4.5594,-4.5594,-4.5594,-4.5594,-4.5594,-4.5594,-4.5594,-4.5594,-4.5594,-4.5594,-4.5594,-4.5594,-4.5594,-4.5594,-4.5594,-4.5594,-4.5594,-4.5594,-4.5594,-4.5594,-4.5594,-4.5594,-4.5723,-4.5719,-4.5594,-4.5594,-4.5594,-4.5594,-4.5594,-4.5594,-4.5594,-4.5594,-4.5594,-2.8356,-3.2742,0.0,0.0,-4.1111,-4.2635,-4.3349,-4.3515,0.0,0.0,0.0,0.0,0.0,0.0,0.0,0.0,0.0,0.0,0.0,0.0,0.0,0.0,0.0,0.0,0.0,0.0,0.0,0.0,0.0,0.0,0.0,0.0,0.0,0.0,0.0,-4.1095,-4.1095,-4.0469,-4.0157,0.0,-3.9515,-3.9221,-3.9258,-4.0508,-4.1095,-4.1095,-4.1095,-4.1095,-4.1095,-4.1095,-4.1095,-4.1111,-4.1174,-4.1354,-4.1731,-4.2876,-4.3321,-4.3555,-4.463,-4.4996,-4.5019,-4.5074,-4.5232,-4.5429,-4.5485,-4.5504,-4.5522,-4.5586,-4.5594,-4.5594,-4.5594,-4.5594,-4.5594,-4.5594,-4.5594,-4.5594,-4.5594,-4.5594,-4.5594,-4.5594,-4.5594,-4.5594,-4.5594,-4.5594,-4.5594,-4.5594,-4.5594,-4.5594,-4.5594,-4.5594,-4.5594,-4.5594,-4.5594,-4.5594,-4.5594,-4.5594,-4.5594,-4.5594,-4.5594,-4.5594,-4.5594,-4.5629,-4.5629,-4.5594,-4.5594,-4.5594,-4.5594,-4.5594,-4.5594,-4.5594,-4.5594,-4.5594,-3.013,0.0,0.0,-4.012,0.0,-4.3515,-4.3515,0.0,0.0,0.0,0.0,0.0,0.0,0.0,0.0,0.0,0.0,0.0,0.0,0.0,0.0,0.0,0.0,0.0,0.0,0.0,0.0,0.0,0.0,0.0,0.0,0.0,0.0,0.0,-4.0141,-3.9939,-3.9939,-3.9551,-3.9331,-3.9313,-3.8909,-3.8707,-3.8726,-3.9554,-3.9939,-3.9939,-3.9939,-3.9939,-3.9939,-3.9939,-3.9939,-3.9939,-3.9939,-4.0102,-4.0523,-4.1885,-4.2468,-4.2771,-4.4177,-4.4739,-4.4868,-4.4884,-4.5126,-4.5419,-4.5448,-4.5466,-4.5513,-4.5577,-4.5594,-4.5594,-4.5594,-4.5594,-4.5594,-4.5594,-4.5594,-4.5594,-4.5594,-4.5594,-4.5594,-4.5594,-4.5594,-4.5594,-4.5594,-4.5594,-4.5594,-4.5594,-4.5594,-4.5594,-4.5594,-4.5594,-4.5594,-4.5594,-4.5594,-4.5594,-4.5594,-4.5594,-4.5594,-4.5594,-4.5594,-4.5594,-4.5594,-4.566,-4.566,-4.5594,-4.57,-4.57,-4.5594,-4.566,-4.566,-4.5594,-4.5594,-4.5594,-3.259,0.0,-3.5899,-4.1991,-4.3515,0.0,-4.3515,0.0,0.0,0.0,0.0,0.0,0.0,0.0,0.0,0.0,0.0,0.0,0.0,0.0,0.0,0.0,0.0,0.0,0.0,0.0,0.0,0.0,0.0,0.0,0.0,0.0,-3.968,-3.968,-3.9056,-3.8707,-3.8707,-3.8707,-3.8707,-3.8707,-3.8707,-3.8707,-3.8707,-3.8707,-3.8707,-3.8707,-3.8707,-3.8707,-3.8707,-3.8707,-3.8707,-3.8707,-3.8707,-3.8929,-3.942,-4.094,-4.1698,-4.2202,-4.3793,-4.4484,-4.465,-4.465,-4.4946,-4.5309,-4.5302,-4.54,-4.5495,-4.5568,-4.5586,-4.5594,-4.5594,-4.5594,-4.5594,-4.5594,-4.5594,-4.5594,-4.5594,-4.5594,-4.5594,-4.5594,-4.5594,-4.5594,-4.5594,-4.5594,-4.5594,-4.5594,-4.5594,-4.5594,-4.5594,-4.5594,-4.5594,-4.5594,-4.5594,-4.5594,-4.5594,-4.5594,-4.5594,-4.5594,-4.5594,-4.5594,-4.5594,-4.5719,-4.5734,-4.5594,-4.579,-4.5809,-4.5618,-4.5712,-4.5715,-4.5594,-4.5594,-4.5594,0.0,0.0,-3.8062,0.0,-4.3515,-4.3515,0.0,0.0,0.0,0.0,0.0,0.0,0.0,0.0,0.0,0.0,0.0,0.0,0.0,0.0,0.0,0.0,0.0,0.0,0.0,0.0,0.0,0.0,0.0,0.0,0.0,-3.8927,-3.8854,-3.8854,-3.8762,-3.8707,-3.8707,-3.8707,-3.8707,-3.8707,-3.8707,-3.8707,-3.8707,-3.8707,-3.8707,-3.8707,-3.8707,-3.8707,-3.8707,-3.8707,-3.8707,-3.8707,-3.8707,-3.916,-3.9936,-4.1089,-4.1826,-4.2412,-4.3639,-4.4079,-4.4109,-4.4109,-4.4457,-4.4891,-4.4962,-4.518,-4.5429,-4.5495,-4.5559,-4.5594,-4.5594,-4.5594,-4.5594,-4.5594,-4.5594,-4.5594,-4.5594,-4.5594,-4.5594,-4.5594,-4.5594,-4.5594,-4.5594,-4.5594,-4.5594,-4.5594,-4.5594,-4.5594,-4.5594,-4.5594,-4.5594,-4.5594,-4.5594,-4.5594,-4.5594,-4.5594,-4.5594,-4.5594,-4.5594,-4.5594,-4.5594,-4.5719,-4.5734,-4.5594,-4.5749,-4.5794,-4.5771,-4.5676,-4.562,-4.5594,-4.5594,-4.5594,-2.7769,-3.3366,-3.842,0.0,-4.3339,-4.3375,0.0,0.0,0.0,0.0,0.0,0.0,0.0,0.0,0.0,0.0,0.0,0.0,0.0,0.0,0.0,0.0,0.0,0.0,0.0,0.0,0.0,0.0,0.0,0.0,-3.8726,-3.8707,-3.8707,-3.8707,-3.8707,-3.8707,-3.8707,-3.8707,-3.8707,-3.8707,-3.8707,-3.8707,-3.8707,-3.8707,-3.8707,-3.8707,-3.8707,-3.8707,-3.8707,-3.8707,-3.8707,-3.8707,-3.8707,-3.9184,-4.0024,-4.0938,-4.1701,-4.2431,-4.3389,-4.3846,-4.4005,-4.4005,-4.436,-4.48,-4.4872,-4.5126,-4.5419,-4.5476,-4.5513,-4.5559,-4.5586,-4.5594,-4.5594,-4.5594,-4.5594,-4.5594,-4.5594,-4.5594,-4.5594,-4.5594,-4.5594,-4.5594,-4.5594,-4.5594,-4.5594,-4.5594,-4.5594,-4.5594,-4.5594,-4.5594,-4.5594,-4.5594,-4.5594,-4.5594,-4.5594,-4.5594,-4.5594,-4.5594,-4.5594,-4.5594,-4.5594,-4.5719,-4.5771,-4.5704,-4.5815,-4.5809,-4.5692,-4.5688,-4.5676,-4.5594,-4.5594,-4.5594,0.0,0.0,-3.5809,-4.0236,-4.174,-4.2139,0.0,0.0,0.0,0.0,0.0,0.0,0.0,0.0,0.0,0.0,0.0,0.0,0.0,0.0,0.0,0.0,0.0,0.0,0.0,0.0,0.0,0.0,0.0,0.0,-3.8707,-3.8707,-3.8707,-3.8707,-3.8707,-3.8707,-3.8707,-3.8707,-3.8707,-3.8707,-3.8707,-3.8707,-3.8707,-3.8707,-3.8707,-3.8707,-3.8707,-3.8707,-3.8707,-3.8707,-3.8707,-3.8707,-3.8707,-3.9331,-4.0286,-4.0875,-4.1754,-4.269,-4.3277,-4.3666,-4.3878,-4.3878,-4.4206,-4.4612,-4.4739,-4.5004,-4.529,-4.5448,-4.5485,-4.5513,-4.5568,-4.5586,-4.5594,-4.5594,-4.5594,-4.5594,-4.5594,-4.5594,-4.5594,-4.5594,-4.5594,-4.5594,-4.5594,-4.5594,-4.5594,-4.5594,-4.5594,-4.5594,-4.5594,-4.5594,-4.5594,-4.5594,-4.5594,-4.5594,-4.5594,-4.5594,-4.5594,-4.5594,-4.5594,-4.5594,-4.5594,-4.57,-4.5749,-4.5749,-4.5796,-4.5763,-4.5643,-4.5723,-4.57,-4.5594,-4.5594,-4.5594,0.0,-2.5878,0.0,-3.5457,0.0,0.0,0.0,0.0,0.0,0.0,0.0,0.0,0.0,0.0,0.0,0.0,0.0,0.0,0.0,0.0,0.0,0.0,0.0,0.0,0.0,0.0,0.0,0.0,0.0,0.0,-3.8707,-3.8707,-3.8707,-3.8707,-3.8707,-3.8707,-3.8707,-3.8707,-3.8707,-3.8707,-3.8707,-3.8707,-3.8707,-3.8707,-3.8707,-3.8707,-3.8707,-3.8707,-3.8707,-3.8707,-3.8707,-3.8707,-3.8707,-3.9646,-4.104,-4.1077,-4.2084,-4.3441,-4.3496,-4.3515,-4.3532,-4.3532,-4.3747,-4.4094,-4.4346,-4.4663,-4.4985,-4.5309,-4.5448,-4.5504,-4.5504,-4.5559,-4.5594,-4.5594,-4.5594,-4.5594,-4.5594,-4.5594,-4.5594,-4.5594,-4.5594,-4.5594,-4.5594,-4.5594,-4.5594,-4.5594,-4.5594,-4.5594,-4.5594,-4.5594,-4.5594,-4.5594,-4.5594,-4.5594,-4.5594,-4.5594,-4.5594,-4.5594,-4.5594,-4.5594,-4.5594,-4.5603,-4.5603,-4.5603,-4.562,-4.5676,-4.5793,-4.5668,-4.5603,-4.5594,-4.5594,-4.5594,0.0,0.0,0.0,-3.252,-3.5491,0.0,0.0,0.0,0.0,0.0,0.0,0.0,0.0,0.0,0.0,0.0,0.0,0.0,0.0,0.0,0.0,0.0,0.0,0.0,0.0,0.0,0.0,0.0,0.0,0.0,-3.8707,-3.8707,-3.8707,-3.8707,-3.8707,-3.8707,-3.8707,-3.8707,-3.8707,-3.8707,-3.8707,-3.8707,-3.8707,-3.8707,-3.8707,-3.8707,-3.8707,-3.8707,-3.8707,-3.8707,-3.8707,-3.8707,-3.8707,-3.9664,-4.1095,-4.1095,-4.2121,-4.3515,-4.3515,-4.3515,-4.3515,-4.3515,-4.3732,-4.4048,-4.4318,-4.4599,-4.4915,-4.5288,-4.5419,-4.5438,-4.5495,-4.5559,-4.5594,-4.5594,-4.5594,-4.5594,-4.5594,-4.5594,-4.5594,-4.5594,-4.5594,-4.5594,-4.5594,-4.5594,-4.5594,-4.5594,-4.5594,-4.5594,-4.5594,-4.5594,-4.5594,-4.5594,-4.5594,-4.5594,-4.5594,-4.5594,-4.5594,-4.5594,-4.5594,-4.5594,-4.5594,-4.5594,-4.5594,-4.5594,-4.5594,-4.5629,-4.5668,-4.5629,-4.5594,-4.5594,-4.5594,-4.5594,-2.108,0.0,0.0,0.0,0.0,0.0,0.0,0.0,0.0,0.0,0.0,0.0,0.0,0.0,0.0,0.0,0.0,0.0,0.0,0.0,0.0,0.0,0.0,0.0,0.0,0.0,0.0,0.0,0.0,0.0,-3.8707,-3.8707,-3.8707,-3.8707,-3.8707,-3.8707,-3.8707,-3.8707,-3.8707,-3.8707,-3.8707,-3.8707,-3.8707,-3.8707,-3.8707,-3.8707,-3.8707,-3.8707,-3.8707,-3.8707,-3.8707,-3.8707,-3.8707,-3.9664,-4.1095,-4.1095,-4.2121,-4.3515,-4.3515,-4.3515,-4.3515,-4.3515,-4.3649,-4.3876,-4.4177,-4.4438,-4.4739,-4.5132,-4.5311,-4.5419,-4.5485,-4.5559,-4.5594,-4.5594,-4.5594,-4.5594,-4.5594,-4.5594,-4.5594,-4.5594,-4.5594,-4.5594,-4.5594,-4.5594,-4.5594,-4.5594,-4.5594,-4.5594,-4.5594,-4.5594,-4.5594,-4.5594,-4.5594,-4.5594,-4.5594,-4.5594,-4.5594,-4.5594,-4.5594,-4.5594,-4.5594,-4.5594,-4.5594,-4.5594,-4.5594,-4.5594,-4.5594,-4.5594,-4.5594,-4.5594,-4.5594,-4.5594,0.0,0.0,0.0,0.0,0.0,0.0,0.0,0.0,0.0,0.0,0.0,0.0,0.0,0.0,0.0,0.0,0.0,0.0,0.0,0.0,0.0,0.0,0.0,0.0,0.0,0.0,0.0,0.0,0.0,-3.8692,-3.8692,-3.8707,-3.8707,-3.8707,-3.8707,-3.8707,-3.8707,-3.8707,-3.8707,-3.8707,-3.8707,-3.8707,-3.8707,-3.8707,-3.8707,-3.8707,-3.8707,-3.8707,-3.8707,-3.8707,-3.8707,-3.8707,-3.8707,-3.9664,-4.1095,-4.1095,-4.2121,-4.3515,-4.3515,-4.3515,-4.3515,-4.3515,-4.3515,-4.3565,-4.391,-4.4196,-4.4465,-4.48,-4.5148,-4.5419,-4.5485,-4.5559,-4.5594,-4.5594,-4.5594,-4.5594,-4.5594,-4.5594,-4.5594,-4.5594,-4.5594,-4.5594,-4.5594,-4.5594,-4.5594,-4.5594,-4.5594,-4.5594,-4.5594,-4.5594,-4.5594,-4.5594,-4.5594,-4.5594,-4.5594,-4.5594,-4.5594,-4.5594,-4.5594,-4.5594,-4.5594,-4.5594,-4.5594,-4.5594,-4.5594,-4.5594,-4.5594,-4.5594,-4.5594,-4.5594,-4.5594,-4.5594,-1.8849,0.0,0.0,0.0,0.0,0.0,0.0,-3.3513,0.0,0.0,0.0,0.0,0.0,0.0,0.0,0.0,0.0,0.0,0.0,0.0,0.0,0.0,0.0,0.0,0.0,0.0,0.0,0.0,-3.8528,-3.8559,-3.8559,-3.8658,-3.8707,-3.8707,-3.8707,-3.8707,-3.8707,-3.8707,-3.8707,-3.8707,-3.8707,-3.8707,-3.8707,-3.8707,-3.8707,-3.8707,-3.8707,-3.8707,-3.8707,-3.8707,-3.8707,-3.8707,-3.8707,-3.9664,-4.1095,-4.1095,-4.2121,-4.3515,-4.3515,-4.3515,-4.3515,-4.3515,-4.3515,-4.3565,-4.391,-4.4196,-4.4452,-4.4751,-4.5113,-4.5429,-4.5476,-4.5559,-4.5594,-4.5594,-4.5594,-4.5594,-4.5594,-4.5594,-4.5594,-4.5594,-4.5594,-4.5594,-4.5594,-4.5594,-4.5594,-4.5594,-4.5594,-4.5594,-4.5594,-4.5594,-4.5594,-4.5594,-4.5594,-4.5594,-4.5594,-4.5594,-4.5594,-4.5594,-4.5594,-4.5594,-4.5594,-4.5594,-4.5594,-4.5594,-4.5594,-4.5594,-4.5594,-4.5594,-4.5594,-4.5594,-4.5594,-4.5594,0.0,0.0,0.0,0.0,0.0,0.0,-2.8378,-3.1769,0.0,0.0,0.0,0.0,0.0,0.0,0.0,0.0,0.0,0.0,0.0,0.0,0.0,0.0,0.0,0.0,0.0,0.0,0.0,0.0,-3.843,-3.8478,-3.851,-3.8624,-3.8707,-3.8707,-3.8707,-3.8707,-3.8707,-3.8707,-3.8707,-3.8707,-3.8707,-3.8707,-3.8707,-3.8707,-3.8707,-3.8707,-3.8707,-3.8707,-3.8707,-3.8707,-3.8707,-3.8707,-3.8707,-3.9664,-4.1095,-4.1095,-4.2121,-4.3515,-4.3515,-4.3515,-4.3515,-4.3515,-4.3515,-4.3549,-4.3732,-4.3999,-4.4279,-4.4419,-4.4868,-4.531,-4.5467,-4.5559,-4.5594,-4.5594,-4.5594,-4.5594,-4.5594,-4.5594,-4.5594,-4.5594,-4.5594,-4.5594,-4.5594,-4.5594,-4.5594,-4.5594,-4.5594,-4.5594,-4.5594,-4.5594,-4.5594,-4.5594,-4.5594,-4.5594,-4.5594,-4.5594,-4.5594,-4.5594,-4.5594,-4.5594,-4.5594,-4.5594,-4.5594,-4.5594,-4.5594,-4.5787,-4.6144,-4.5787,-4.5594,-4.5594,-4.5594,-4.5594,0.0,0.0,0.0,0.0,0.0,0.0,-2.9727,-3.0935,-3.2091,0.0,0.0,0.0,0.0,0.0,0.0,0.0,0.0,0.0,0.0,0.0,0.0,0.0,0.0,0.0,0.0,0.0,-3.8399,-3.8382,-3.8401,-3.843,-3.851,-3.8609,-3.8673,-3.8673,-3.8673,-3.8673,-3.8676,-3.8673,-3.8673,-3.8673,-3.8673,-3.8692,-3.8707,-3.8707,-3.8707,-3.8707,-3.8707,-3.8707,-3.8707,-3.8707,-3.8707,-3.8707,-3.8799,-3.9772,-4.1113,-4.1187,-4.2194,-4.3515,-4.3515,-4.3515,-4.3515,-4.3515,-4.3515,-4.3515,-4.3515,-4.3732,-4.4017,-4.4061,-4.4587,-4.518,-4.5429,-4.555,-4.5586,-4.5594,-4.5594,-4.5594,-4.5594,-4.5594,-4.5594,-4.5594,-4.5594,-4.5594,-4.5594,-4.5594,-4.5594,-4.5594,-4.5594,-4.5594,-4.5594,-4.5594,-4.5594,-4.5594,-4.5594,-4.5594,-4.5594,-4.5594,-4.5594,-4.5594,-4.5594,-4.5594,-4.5594,-4.5594,-4.5652,-4.5748,-4.5825,-4.6259,-4.7019,-4.6259,-4.5883,-4.5883,-4.5883,-4.5883,0.0,0.0,0.0,0.0,0.0,0.0,-2.3672,-2.6227,-2.848,0.0,0.0,0.0,0.0,0.0,0.0,0.0,0.0,0.0,0.0,0.0,0.0,0.0,0.0,0.0,0.0,0.0,-3.8385,-3.8322,-3.8368,-3.843,-3.851,-3.8525,-3.8525,-3.8525,-3.8525,-3.851,-3.8465,-3.851,-3.8525,-3.8525,-3.8525,-3.8609,-3.8707,-3.8707,-3.8707,-3.8707,-3.8707,-3.8707,-3.8707,-3.8707,-3.8707,-3.8762,-3.9405,-4.0249,-4.1168,-4.1827,-4.2671,-4.3515,-4.3515,-4.3515,-4.3515,-4.3515,-4.3515,-4.3515,-4.3515,-4.3732,-4.4094,-4.4533,-4.4981,-4.535,-4.5419,-4.5476,-4.5522,-4.5586,-4.5594,-4.5594,-4.5594,-4.5594,-4.5594,-4.5594,-4.5594,-4.5594,-4.5594,-4.5594,-4.5594,-4.5594,-4.5594,-4.5594,-4.5594,-4.5594,-4.5594,-4.5594,-4.5594,-4.5594,-4.5594,-4.5594,-4.5594,-4.5594,-4.5594,-4.5594,-4.5594,-4.5594,-4.5932,-4.6624,-4.7278,-4.7702,-4.7875,-4.7702,-4.7605,-4.7605,-4.7605,-4.7605,0.0,0.0,0.0,-2.3602,0.0,0.0,0.0,-2.5914,-2.7073,0.0,0.0,0.0,0.0,0.0,0.0,0.0,0.0,0.0,0.0,0.0,0.0,0.0,0.0,0.0,0.0,0.0,-3.8354,-3.8354,-3.8385,-3.8415,-3.8446,-3.8446,-3.8446,-3.8446,-3.8446,-3.843,-3.8399,-3.843,-3.8446,-3.8446,-3.8446,-3.8496,-3.8546,-3.8546,-3.8546,-3.8546,-3.8546,-3.8578,-3.8609,-3.8609,-3.8643,-3.8781,-3.9588,-4.0396,-4.1187,-4.2011,-4.28,-4.3515,-4.3515,-4.3515,-4.3515,-4.3515,-4.3515,-4.3515,-4.3515,-4.3615,-4.3857,-4.4438,-4.477,-4.5023,-4.532,-4.5448,-4.5504,-4.5531,-4.5577,-4.5594,-4.5594,-4.5594,-4.5594,-4.5594,-4.5594,-4.5594,-4.5594,-4.5594,-4.5594,-4.5594,-4.5594,-4.5594,-4.5594,-4.5594,-4.5594,-4.5594,-4.5594,-4.5594,-4.5594,-4.5594,-4.5594,-4.5594,-4.5594,-4.5787,-4.622,-4.624,-4.6644,-4.749,-4.8317,-4.8759,-4.8759,-4.9183,-4.8952,-4.8105,-4.8105,-4.8105,0.0,0.0,0.0,0.0,0.0,-2.4492,0.0,0.0,0.0,0.0,0.0,0.0,0.0,0.0,0.0,0.0,0.0,0.0,0.0,0.0,0.0,0.0,0.0,0.0,0.0,0.0,-3.7847,-3.8348,-3.7963,-3.7906,-3.838,-3.8401,-3.8385,-3.8385,-3.8385,-3.8385,-3.8368,-3.8385,-3.8385,-3.8385,-3.8385,-3.8401,-3.8399,-3.8399,-3.8399,-3.8399,-3.8399,-3.843,-3.8494,-3.8476,-3.8559,-3.875,-3.9753,-4.0524,-4.1224,-4.2176,-4.2928,-4.3515,-4.3515,-4.3515,-4.3515,-4.3515,-4.3515,-4.3515,-4.3515,-4.3566,-4.3697,-4.4188,-4.4397,-4.4599,-4.5154,-4.5351,-4.541,-4.5485,-4.5531,-4.5577,-4.5594,-4.5594,-4.5594,-4.5594,-4.5594,-4.5594,-4.5594,-4.5594,-4.5594,-4.5594,-4.5594,-4.5594,-4.5594,-4.5594,-4.5594,-4.5594,-4.5594,-4.5594,-4.5594,-4.5594,-4.5594,-4.5594,-4.5768,-4.6163,-4.6865,-4.7221,-4.7702,-4.8336,-4.9202,-4.9644,-4.9644,-5.0366,-4.9971,-4.8606,-4.8606,-4.8606,0.0,0.0,0.0,0.0,-2.6179,0.0,0.0,0.0,0.0,0.0,0.0,0.0,0.0,0.0,0.0,0.0,0.0,0.0,0.0,0.0,0.0,0.0,0.0,0.0,0.0,0.0,0.0,-3.8142,-3.6385,-3.614,-3.8289,-3.8354,-3.8305,-3.8305,-3.8305,-3.829,-3.8224,-3.829,-3.8305,-3.8305,-3.8305,-3.8354,-3.8399,-3.8399,-3.8399,-3.8399,-3.8399,-3.8399,-3.8415,-3.8478,-3.851,-3.869,-4.0327,-4.1022,-4.1279,-4.28,-4.3423,-4.3515,-4.3515,-4.3515,-4.3515,-4.3515,-4.3515,-4.3515,-4.3515,-4.3716,-4.3958,-4.4017,-4.4221,-4.4493,-4.4868,-4.4962,-4.5063,-4.5419,-4.5504,-4.5522,-4.5586,-4.5594,-4.5594,-4.5594,-4.5594,-4.5594,-4.5594,-4.5594,-4.5594,-4.5594,-4.5594,-4.5594,-4.5594,-4.5594,-4.5594,-4.5594,-4.5594,-4.5594,-4.5594,-4.5594,-4.5594,-4.5594,-4.6336,-4.6797,-4.6904,-4.8336,-4.9163,-4.924,-5.0106,-5.0558,-5.0558,-5.0654,-5.0596,-5.0404,-5.0404,-5.0404,0.0,0.0,0.0,0.0,0.0,0.0,0.0,0.0,-2.329,0.0,0.0,0.0,0.0,0.0,0.0,0.0,0.0,0.0,0.0,0.0,0.0,0.0,0.0,0.0,0.0,0.0,0.0,0.0,0.0,-3.7309,-3.83,-3.829,-3.8241,-3.8241,-3.8241,-3.8242,-3.8209,-3.8242,-3.8241,-3.8241,-3.8241,-3.8257,-3.8272,-3.8272,-3.8272,-3.8272,-3.8272,-3.8305,-3.8354,-3.8368,-3.8433,-3.8674,-4.0388,-4.1062,-4.1279,-4.291,-4.3515,-4.3515,-4.3515,-4.3515,-4.3515,-4.3515,-4.3515,-4.3515,-4.3515,-4.3599,-4.3749,-4.3958,-4.4079,-4.4236,-4.4533,-4.4751,-4.4931,-4.5107,-4.5302,-4.5448,-4.5522,-4.5531,-4.5559,-4.5586,-4.5594,-4.5594,-4.5594,-4.5594,-4.5594,-4.5594,-4.5594,-4.5594,-4.5594,-4.5594,-4.5594,-4.5594,-4.5594,-4.5594,-4.5594,-4.5594,-4.5825,-4.6317,-4.7605,-4.8355,-4.8355,-4.951,-5.0144,-5.0144,-5.0519,-5.0712,-5.0712,-5.0712,-5.0712,-5.0712,-5.0712,-5.0712,-2.7668,0.0,0.0,0.0,0.0,0.0,0.0,0.0,0.0,0.0,0.0,0.0,0.0,0.0,0.0,0.0,0.0,0.0,0.0,0.0,0.0,0.0,0.0,0.0,0.0,0.0,0.0,0.0,0.0,0.0,-3.8271,-3.8242,-3.8209,-3.8209,-3.8209,-3.8209,-3.8209,-3.8209,-3.8209,-3.8209,-3.8209,-3.8209,-3.8209,-3.8209,-3.8209,-3.8209,-3.8209,-3.8242,-3.8274,-3.829,-3.8354,-3.8629,-4.0323,-4.1029,-4.128,-4.291,-4.3515,-4.3515,-4.3515,-4.3515,-4.3515,-4.3515,-4.3515,-4.3515,-4.3515,-4.3515,-4.3548,-4.3798,-4.3862,-4.3955,-4.4303,-4.4585,-4.48,-4.5004,-4.522,-4.5419,-4.5467,-4.5495,-4.5513,-4.5568,-4.5586,-4.5594,-4.5594,-4.5594,-4.5594,-4.5594,-4.5594,-4.5594,-4.5594,-4.5594,-4.5594,-4.5594,-4.5594,-4.5594,-4.5594,-4.5825,-4.6413,-4.7528,-4.8721,-4.951,-4.974,-5.0366,-5.0712,-5.0712,-5.0712,-5.0712,-5.0712,-5.0712,-5.0712,-5.0712,-5.0712,-5.0712,0.0,0.0,0.0,-2.6859,0.0,0.0,0.0,0.0,-2.5834,0.0,0.0,0.0,0.0,0.0,0.0,0.0,0.0,0.0,0.0,0.0,0.0,0.0,0.0,0.0,0.0,0.0,0.0,0.0,0.0,0.0,-3.818,-3.8242,-3.8209,-3.8209,-3.8209,-3.8209,-3.8209,-3.8209,-3.8209,-3.8209,-3.8209,-3.8209,-3.8209,-3.8209,-3.8209,-3.8209,-3.8209,-3.8209,-3.8209,-3.8274,-3.8307,-3.8487,-4.0273,-4.1014,-4.1214,-4.2875,-4.3515,-4.3515,-4.3515,-4.3515,-4.3515,-4.3515,-4.3515,-4.3515,-4.3515,-4.3515,-4.3496,-4.3496,-4.3532,-4.3647,-4.426,-4.4416,-4.4591,-4.5227,-4.5379,-4.5399,-4.54,-4.5448,-4.5504,-4.5504,-4.5559,-4.5594,-4.5594,-4.5594,-4.5594,-4.5594,-4.5594,-4.5594,-4.5594,-4.5594,-4.5594,-4.5594,-4.5594,-4.5594,-4.5594,-4.6374,-4.7567,-4.9221,-4.9375,-4.9779,-5.0616,-5.0693,-5.0712,-5.0712,-5.0712,-5.0712,-5.0712,-5.0712,-5.0712,-5.0712,-5.0712,-5.0712,0.0,0.0,-3.4099,-2.9381,0.0,0.0,0.0,0.0,0.0,0.0,0.0,0.0,0.0,0.0,0.0,0.0,0.0,0.0,0.0,0.0,0.0,0.0,0.0,0.0,0.0,0.0,0.0,0.0,0.0,0.0,0.0,-3.8225,-3.8209,-3.8209,-3.8209,-3.8209,-3.8209,-3.8209,-3.8209,-3.8209,-3.8209,-3.8209,-3.8209,-3.8209,-3.8209,-3.8209,-3.8209,-3.8209,-3.8209,-3.8207,-3.829,-3.8532,-4.0203,-4.0874,-4.1142,-4.2875,-4.3515,-4.3515,-4.3515,-4.3515,-4.3515,-4.3515,-4.3515,-4.3515,-4.3515,-4.3515,-4.3515,-4.3515,-4.3515,-4.3599,-4.403,-4.4279,-4.4493,-4.491,-4.5164,-4.5348,-4.538,-4.5429,-4.5429,-4.5429,-4.5448,-4.5476,-4.5476,-4.5504,-4.5559,-4.5586,-4.5594,-4.5594,-4.5594,-4.5594,-4.5594,-4.5594,-4.5594,-4.5825,-4.6413,-4.7759,-4.8798,-4.9356,-4.9904,-5.0326,-5.0614,-5.0633,-5.0633,-5.0633,-5.0692,-5.0712,-5.0712,-5.0712,-5.0712,-5.0712,-5.0712,-5.0712,-3.481,-3.5695,0.0,-3.1627,-3.0953,0.0,-2.6292,0.0,0.0,0.0,0.0,0.0,0.0,0.0,0.0,0.0,0.0,0.0,0.0,-2.0051,0.0,0.0,0.0,0.0,0.0,0.0,0.0,0.0,0.0,0.0,0.0,0.0,-3.8209,-3.8209,-3.8209,-3.8209,-3.8209,-3.8209,-3.8209,-3.8209,-3.8209,-3.8209,-3.8209,-3.8209,-3.8209,-3.8209,-3.8209,-3.8209,-3.8209,-3.8209,-3.8421,-3.8884,-4.0244,-4.1005,-4.1476,-4.2949,-4.3515,-4.3515,-4.3515,-4.3515,-4.3515,-4.3515,-4.3515,-4.3515,-4.3515,-4.3515,-4.3515,-4.3515,-4.3515,-4.3599,-4.403,-4.4279,-4.4511,-4.4887,-4.5132,-4.5317,-4.5367,-4.5369,-4.5399,-4.539,-4.539,-4.54,-4.54,-4.5429,-4.5495,-4.554,-4.5568,-4.5577,-4.5594,-4.5577,-4.5568,-4.5568,-4.5865,-4.6519,-4.7674,-4.8712,-4.9451,-4.9759,-5.0285,-5.0553,-5.0553,-5.0553,-5.0553,-5.0553,-5.0613,-5.0633,-5.0633,-5.0633,-5.0643,-5.0653,-5.0653,-5.0692]},{"header":{"parameterUnit":"m.s-1","parameterCategory":1,"la1":30.6,"la2":29.2853,"lo1":-89.7004,"lo2":-87.6739,"dy":0.0162,"dx":0.0183,"nx":112,"ny":82,"refTime":"2024-03-11T18:00:00:Z","depth":0,"parameterNumber":3,"parameterNumberName":"V-component_of_WINDS"},"data":[0.0,0.0,0.0,0.0,0.0,0.0,0.0,0.0,0.0,0.0,0.0,0.0,0.0,0.0,0.0,0.0,0.0,0.0,0.0,0.0,0.0,0.0,0.0,0.0,0.0,0.0,0.0,0.0,0.0,0.0,0.0,0.0,0.0,0.0,0.0,0.0,0.0,0.0,0.0,0.0,0.0,0.0,0.0,0.0,0.0,0.0,0.0,0.0,0.0,0.0,0.0,0.0,0.0,0.0,0.0,0.0,0.0,0.0,0.0,0.0,0.0,0.0,0.0,0.0,0.0,0.0,0.0,0.0,0.0,0.0,0.0,0.0,0.0,0.0,0.0,0.0,0.0,0.0,0.0,0.0,0.0,0.0,0.0,0.0,0.0,0.0,0.0,0.0,0.0,0.0,0.0,0.9162,1.1304,1.2705,1.2705,1.2705,1.1259,0.791,0.0,0.0,0.0,0.0,0.0,0.0,0.0,0.0,0.0,0.0,0.0,0.0,0.0,0.0,0.0,0.0,0.0,0.0,0.0,0.0,0.0,0.0,0.0,0.0,0.0,0.0,0.0,0.0,0.0,0.0,0.0,0.0,0.0,0.0,0.0,0.0,0.0,0.0,0.0,0.0,0.0,0.0,0.0,0.0,0.0,0.0,0.0,0.0,0.0,0.0,0.0,0.0,0.0,0.0,0.0,0.0,0.0,0.0,0.0,0.0,0.0,0.0,0.0,0.0,0.0,0.0,0.0,0.0,0.0,0.0,0.0,0.0,0.0,0.0,0.0,0.0,0.0,0.0,0.0,0.0,0.0,0.0,0.0,0.0,0.0,0.0,0.0,0.0,0.0,0.0,0.0,0.0,0.0,0.0,0.0,0.0,0.0,0.0,0.0,0.0,0.0,0.0,0.0,0.0,0.85,1.1746,1.2445,1.2705,1.2705,1.2705,1.1259,0.791,0.0,0.0,0.0,0.0,0.0,0.0,0.0,0.0,0.0,0.0,0.0,0.0,0.0,0.0,0.0,0.0,0.0,0.0,0.0,0.0,0.0,0.0,0.0,0.0,0.0,0.0,0.0,0.0,0.0,0.0,0.0,0.0,0.0,0.0,0.0,0.0,0.0,0.0,0.0,0.0,0.0,0.0,0.0,0.0,0.0,0.0,0.0,0.0,0.0,0.0,0.0,0.0,0.0,0.0,0.0,0.0,0.0,0.0,0.0,0.0,0.0,0.0,0.0,0.0,0.0,0.0,0.0,0.0,0.0,0.0,0.0,0.0,0.0,0.0,0.0,0.0,0.0,0.0,0.0,0.0,0.0,0.0,0.0,0.0,0.0,0.0,0.0,0.0,0.0,0.0,0.0,0.0,0.0,0.0,0.0,0.0,0.0,0.0,0.0,0.0,0.0,0.0,0.0,0.7377,0.9093,1.2367,1.2705,1.2705,1.2705,1.2705,1.1259,0.791,0.7502,0.0,0.0,0.0,0.0,0.0,0.0,0.0,0.0,0.0,0.0,0.0,0.0,0.0,0.0,0.0,0.0,0.0,0.0,0.0,0.0,0.0,0.0,0.0,0.0,0.0,0.0,0.0,0.0,0.0,0.0,0.0,0.0,0.0,0.0,0.0,0.0,0.0,0.0,0.0,0.0,0.0,0.0,0.0,0.0,0.0,0.0,0.0,0.0,0.0,0.0,0.0,0.0,0.0,0.0,0.0,0.0,0.0,0.0,0.0,0.0,0.0,0.0,0.0,0.0,0.0,0.0,0.0,0.0,0.0,0.0,0.0,0.0,0.0,0.0,0.0,0.0,0.0,0.0,0.0,0.0,0.0,0.0,0.0,0.0,0.0,0.0,0.0,0.0,0.0,0.0,0.0,0.0,0.0,0.0,0.0,0.0,0.0,0.0,0.0,0.0,0.0,0.0,0.8969,1.0318,1.247,1.2705,1.2705,1.2705,1.2705,1.1259,0.791,0.7449,0.0,0.0,0.0,0.0,0.0,0.0,0.0,0.0,0.0,0.0,0.0,0.0,0.0,0.0,0.0,0.0,0.0,0.0,0.0,0.0,0.0,0.0,0.0,0.0,0.0,0.0,0.0,0.0,0.0,0.0,0.0,0.0,0.0,0.0,0.0,0.0,0.0,0.0,0.0,0.0,0.0,0.0,0.0,0.0,0.0,0.0,0.0,0.0,0.0,0.0,0.0,0.0,0.0,0.0,0.0,0.0,0.0,0.0,0.0,0.0,0.0,0.0,0.0,0.0,0.0,0.0,0.0,0.0,0.0,0.0,0.0,0.0,0.0,0.0,0.0,0.0,0.0,0.0,0.0,0.0,0.0,0.0,0.0,0.0,0.0,0.0,0.0,0.0,0.0,0.0,0.0,0.0,0.0,0.0,0.0,0.0,0.0,0.0,0.0,0.0,0.0,0.0,1.0327,1.2476,1.2687,1.2705,1.2705,1.2705,1.2705,1.1259,0.791,0.7449,0.0,0.0,0.0,0.0,0.0,0.0,0.0,0.0,0.0,0.0,0.0,0.0,0.0,0.0,0.0,0.0,0.0,0.0,0.0,0.0,0.0,0.0,0.0,0.0,0.0,0.0,0.0,0.0,0.0,0.0,0.0,0.0,0.0,0.0,0.0,0.0,0.0,0.0,0.0,0.0,0.0,0.0,0.0,0.0,0.0,0.0,0.0,0.0,0.0,0.0,0.0,0.0,0.0,0.0,0.0,0.0,0.0,0.0,0.0,0.0,0.0,0.0,0.0,0.0,0.0,0.0,0.0,0.0,0.0,0.0,0.0,0.0,0.0,0.0,0.0,0.0,0.0,0.0,0.0,0.0,0.0,0.0,0.0,0.0,0.0,0.0,0.0,0.0,0.0,0.0,0.0,0.0,0.0,0.0,0.0,0.0,0.0,0.0,0.0,0.0,0.0,0.0,0.9534,1.151,0.0,1.2705,1.2705,1.2705,1.2705,1.1259,0.791,0.0,0.0,0.0,0.0,0.0,0.0,0.0,0.0,0.0,0.0,0.0,0.0,0.0,0.0,0.0,0.0,0.0,0.0,0.0,0.0,0.0,0.0,0.0,0.0,0.0,0.0,0.0,0.0,0.0,0.0,0.0,0.0,0.0,0.0,0.0,0.0,0.0,0.0,0.0,0.0,0.0,0.0,0.0,0.0,0.0,0.0,0.0,0.0,0.0,0.0,0.0,0.0,0.0,0.0,0.0,0.0,0.0,0.0,0.0,0.0,0.0,0.0,0.0,0.0,0.0,0.0,0.0,0.0,0.0,0.0,0.0,0.0,0.0,0.0,0.0,0.0,0.0,0.0,0.0,0.0,0.0,0.0,0.0,0.0,0.0,0.0,0.0,0.0,0.0,0.0,0.0,0.0,0.0,0.0,0.0,0.0,0.0,0.0,0.0,0.0,0.0,0.0,0.723,0.9459,1.1382,0.0,1.2705,1.2705,1.2705,1.2705,1.1259,0.791,0.0,0.0,0.0,0.0,0.0,0.0,0.0,0.0,0.0,0.0,0.0,0.0,0.0,0.0,0.0,0.0,0.0,0.0,0.0,0.0,0.0,0.0,0.0,0.0,0.0,0.0,0.0,0.0,0.0,0.0,0.0,0.0,0.0,0.0,0.0,0.0,0.0,0.0,0.0,0.0,0.0,0.0,0.0,0.0,0.0,0.0,0.0,0.0,0.0,0.0,0.0,0.0,0.0,0.0,0.0,0.0,0.0,0.0,0.0,0.0,0.0,0.0,0.0,0.0,0.0,0.0,0.0,0.0,0.0,0.0,0.0,0.0,0.0,0.0,0.0,0.0,0.0,0.0,0.0,0.0,0.0,0.0,0.0,0.0,0.0,0.0,0.0,0.0,0.0,0.0,0.0,0.0,0.0,0.0,0.0,0.0,0.0,0.0,0.0,0.0,0.0,0.0,0.7386,1.0487,1.2705,1.2705,1.2705,1.2705,1.2705,1.2705,1.1259,0.0,0.0,0.0,0.0,0.0,0.0,0.0,0.0,0.0,0.0,0.0,0.0,0.0,0.0,0.0,0.0,0.0,0.0,0.0,0.0,0.0,0.0,0.0,0.0,0.0,0.0,0.0,0.0,0.0,0.0,0.0,0.0,0.0,0.0,0.0,0.0,0.0,0.0,0.0,0.0,0.0,0.0,0.0,0.0,0.0,0.0,0.0,0.0,0.0,0.0,0.0,0.0,0.0,0.0,0.0,0.0,0.0,0.0,0.0,0.0,0.0,0.0,0.0,0.0,0.0,0.0,0.0,0.0,0.0,0.0,0.0,0.0,0.0,0.0,0.0,0.0,0.0,0.0,0.0,0.0,0.0,0.0,0.0,0.0,0.0,0.0,0.0,0.0,0.0,0.0,0.0,0.0,0.0,0.0,0.0,0.0,0.0,0.0,0.0,0.0,0.0,0.0,0.0,0.7298,0.9927,1.1972,1.2619,1.2705,1.2705,1.2705,1.2705,1.1259,0.791,0.0,0.0,0.0,0.0,0.0,0.0,0.0,0.0,0.0,0.0,0.0,0.0,0.0,0.0,0.0,0.0,0.0,0.0,0.0,0.0,0.0,0.0,0.0,0.0,0.0,0.0,0.0,0.0,0.0,0.0,0.0,0.0,0.0,0.0,0.0,0.0,0.0,0.0,0.0,0.0,0.0,0.0,0.0,0.0,0.0,0.0,0.0,0.0,0.0,0.0,0.0,0.0,0.0,0.0,0.0,0.0,0.0,0.0,0.0,0.0,0.0,0.0,0.0,0.0,0.0,0.0,0.0,0.0,0.0,0.0,0.0,0.0,0.0,0.0,0.0,0.0,0.0,0.0,0.0,0.0,0.0,0.0,0.0,0.0,0.0,0.0,0.0,0.0,0.0,0.0,0.0,0.0,0.0,0.0,0.0,0.0,0.0,0.0,0.0,0.0,0.0,0.0,0.7239,0.9702,1.1671,1.2619,1.2705,1.2705,1.2705,1.2705,1.1556,0.8854,0.0,0.0,0.0,0.0,0.0,0.0,0.0,0.0,0.0,0.0,0.0,0.0,0.0,0.0,0.0,0.0,0.0,0.0,0.0,0.0,0.0,0.0,0.0,0.0,0.0,0.0,0.0,0.0,0.0,0.0,0.0,0.0,0.0,0.0,0.0,0.0,0.0,0.0,0.0,0.0,0.0,0.0,0.0,0.0,0.0,0.0,0.0,0.0,0.0,0.0,0.0,0.0,0.0,0.0,0.0,0.0,0.0,0.0,0.0,0.0,0.0,0.0,0.0,0.0,0.0,0.0,0.0,0.0,0.0,0.0,0.0,0.0,0.0,0.0,0.0,0.0,0.0,0.0,0.0,0.0,0.0,0.0,0.0,0.0,0.0,0.0,0.0,0.0,0.0,0.0,0.0,0.0,0.0,0.0,0.0,0.0,0.0,0.0,0.0,0.0,0.0,0.0,0.7239,0.9627,1.158,1.2577,1.2705,1.2705,1.2705,1.2705,1.1974,1.0306,0.0,0.0,0.0,0.0,0.0,0.0,0.0,0.0,0.0,0.0,0.0,0.0,0.0,0.0,0.0,0.0,0.0,0.0,0.0,0.0,0.0,0.0,0.0,0.0,0.0,0.0,0.0,0.0,0.0,0.0,0.0,0.0,0.0,0.0,0.0,0.0,0.0,0.0,0.0,0.0,0.0,0.0,0.0,0.0,0.0,0.0,0.0,0.0,0.0,0.0,0.0,0.0,0.0,0.0,0.0,0.0,0.0,0.0,0.0,0.0,0.3369,0.0,0.0,0.0,0.0,0.0,0.0,0.0,0.0,0.0,0.0,0.0,0.0,0.0,0.0,0.0,0.0,0.0,0.0,0.0,0.0,0.0,0.0,0.0,0.0,0.0,0.0,0.0,0.0,0.0,0.0,0.0,0.0,0.0,0.0,0.0,0.0,0.0,0.0,0.0,0.0,0.0,0.715,0.9052,1.0837,1.2528,1.2705,1.2705,1.2705,1.2705,1.1974,1.0306,0.0,0.0,0.0,0.0,0.0,0.0,0.0,0.0,0.0,0.0,0.0,0.0,0.0,0.0,0.0,0.0,0.0,0.0,0.0,0.0,0.0,0.0,0.0,0.0,0.0,0.0,0.0,0.0,0.0,0.0,0.0,0.0,0.0,0.0,0.0,0.0,0.0,0.0,0.0,0.0,0.0,0.0,0.0,0.0,0.0,0.0,0.0,0.0,0.0,0.0,0.0,0.0,0.0,0.0,0.0,0.0,0.0,0.0,0.0,0.0,0.0,0.3761,0.0,0.0,0.0,0.0,0.0,0.0,0.0,0.0,0.0,0.0,0.0,0.0,0.0,0.0,0.0,0.0,0.0,0.0,0.0,0.0,0.0,0.0,0.0,0.0,0.0,0.0,0.0,0.0,0.0,0.0,0.0,0.0,0.0,0.0,0.0,0.0,0.0,0.0,0.0,0.0,0.721,0.8889,1.0616,1.2485,1.2705,1.2705,1.2705,1.2705,1.2326,1.1445,1.05,0.0,0.0,0.0,0.0,0.0,0.0,0.0,0.0,0.0,0.0,0.0,0.0,0.0,0.0,0.0,0.0,0.0,0.0,0.0,0.0,0.0,0.0,0.0,0.0,0.0,0.0,0.0,0.0,0.0,0.0,0.0,0.0,0.0,0.0,0.0,0.0,0.0,0.0,0.0,0.0,0.0,0.0,0.0,0.0,0.0,0.0,0.0,0.0,0.0,0.0,0.0,0.0,0.0,0.5051,0.5239,0.5206,0.5272,0.557,0.6065,0.5302,0.5325,0.5785,0.0,0.0,0.0,0.0,0.0,0.0,0.0,0.0,0.0,0.0,0.0,0.0,0.0,0.0,0.0,0.0,0.0,0.0,0.0,0.0,0.0,0.0,0.0,0.0,0.0,0.4593,0.479,0.0,0.0,0.0,0.0,0.0,0.0,0.0,0.0,0.0,0.0,0.0,0.0,0.7511,0.9164,1.0794,1.2528,1.2705,1.2705,1.2705,1.2705,1.2619,1.2491,1.1043,1.008,0.0,0.0,0.0,0.0,0.0,0.0,0.0,0.0,0.0,0.0,0.0,0.0,0.0,0.0,0.0,0.0,0.0,0.0,0.0,0.0,0.0,0.0,0.0,0.0,0.0,0.0,0.0,0.0,0.0,0.0,0.0,0.0,0.4229,0.4229,0.0,0.0,0.0,0.0,0.0,0.0,0.0,0.0,0.0,0.0,0.0,0.0,0.0,0.0,0.4736,0.545,0.5778,0.5785,0.6488,0.6805,0.6805,0.6805,0.6856,0.6943,0.6825,0.0,0.5898,0.5669,0.0,0.0,0.0,0.0,0.0,0.0,0.0,0.0,0.0,0.0,0.0,0.0,0.0,0.0,0.0,0.0,0.0,0.0,0.0,0.0,0.0,0.0,0.5411,0.5454,0.5513,0.5545,0.0,0.4567,0.3779,0.3638,0.0,0.0,0.0,0.0,0.0,0.0,0.0,0.0,0.8308,1.0063,1.1537,1.2577,1.2705,1.2705,1.2705,1.2705,1.2357,1.1542,1.1276,1.0407,0.8856,0.8595,0.0,0.0,0.0,0.0,0.0,0.0,0.0,0.0,0.0,0.0,0.0,0.0,0.0,0.0,0.0,0.0,0.0,0.0,0.0,0.0,0.0,0.0,0.0,0.0,0.0,0.0,0.0,0.0,0.0,0.3467,0.3978,0.4333,0.3945,0.3301,0.0,0.0,0.0,0.0,0.0,0.0,0.0,0.0,0.0,0.5215,0.5351,0.5655,0.6124,0.6451,0.6613,0.6616,0.694,0.7095,0.7095,0.7095,0.7095,0.7095,0.7095,0.6913,0.6545,0.6175,0.5435,0.4491,0.0,0.0,0.0,0.0,0.0,0.3338,0.4279,0.0,0.0,0.0,0.0,0.0,0.0,0.0,0.0,0.0,0.0,0.0,0.0,0.0,0.0,0.5623,0.5688,0.5688,0.5688,0.5276,0.4746,0.0,0.4087,0.3629,0.2846,0.0,0.0,0.0,0.0,0.0,0.8601,1.0258,1.1671,1.2619,1.2705,1.2705,1.2705,1.2705,1.2314,1.1365,1.1284,1.07,0.9373,0.8876,0.7782,0.0,0.0,0.0,0.0,0.0,0.0,0.0,0.0,0.0,0.0,0.0,0.0,0.0,0.0,0.0,0.0,0.0,0.0,0.0,0.0,0.0,0.0,0.0,0.0,0.0,0.0,0.0,0.0,0.3946,0.4448,0.476,0.4776,0.4255,0.0,0.0,0.0,0.0,0.0,0.0,0.4886,0.5226,0.5659,0.6256,0.6427,0.6698,0.7092,0.7095,0.7095,0.7095,0.7095,0.7095,0.7095,0.7095,0.7095,0.7095,0.7095,0.7095,0.7061,0.6582,0.6051,0.5517,0.4966,0.4456,0.4027,0.4209,0.4295,0.4431,0.5204,0.5359,0.517,0.5212,0.0,0.4536,0.4208,0.0,0.0,0.0,0.0,0.4423,0.4901,0.0,0.5249,0.5605,0.5688,0.5688,0.5688,0.5615,0.5461,0.0,0.4713,0.4254,0.3384,0.0,0.0,0.0,0.0,0.7261,0.87,1.0133,1.1365,1.2229,1.2443,1.2528,1.2528,1.2619,1.2314,1.1365,1.1063,1.0621,0.9923,0.903,0.8245,0.7584,0.0,0.0,0.0,0.0,0.0,0.0,0.0,0.0,0.0,0.0,0.0,0.0,0.0,0.0,0.0,0.0,0.0,0.0,0.0,0.0,0.0,0.0,0.0,0.0,0.0,0.0,0.0,0.0,0.0,0.626,0.6414,0.0,0.0,0.0,0.0,0.4533,0.4848,0.54,0.6156,0.6238,0.6474,0.7021,0.7048,0.7065,0.7095,0.7095,0.7095,0.7095,0.7095,0.7095,0.7095,0.7095,0.7095,0.7095,0.7095,0.7095,0.7095,0.7065,0.6676,0.6047,0.6018,0.5635,0.5145,0.5286,0.5352,0.5433,0.561,0.5697,0.5597,0.5284,0.4784,0.4398,0.4825,0.4553,0.0,0.0,0.4966,0.5044,0.5521,0.5648,0.5659,0.5683,0.5688,0.5688,0.5688,0.5461,0.5306,0.0,0.5621,0.5413,0.4795,0.0,0.4839,0.5071,0.5962,0.7153,0.8717,0.973,1.0621,1.1278,1.1757,1.2057,1.2057,1.2443,1.2314,1.1365,1.0448,0.9966,0.9923,0.9005,0.8507,0.8544,0.7623,0.0,0.0,0.0,0.0,0.0,0.0,0.0,0.0,0.0,0.0,0.0,0.0,0.0,0.0,0.0,0.0,0.0,0.0,0.0,0.0,0.0,0.0,0.0,0.0,0.0,0.0,0.0,0.0,0.6348,0.6664,0.0,0.0,0.5652,0.5767,0.5709,0.6133,0.6502,0.6814,0.6827,0.6879,0.7088,0.7095,0.7095,0.7095,0.7095,0.7095,0.7095,0.7095,0.7095,0.7095,0.7095,0.7149,0.7288,0.7288,0.7343,0.7428,0.7329,0.7061,0.6739,0.6739,0.6601,0.6399,0.635,0.6309,0.6288,0.6039,0.5952,0.593,0.5624,0.5396,0.5214,0.5383,0.5286,0.5162,0.5375,0.5435,0.5475,0.5645,0.5688,0.5688,0.5688,0.5688,0.5688,0.5688,0.5588,0.5578,0.5664,0.5542,0.5265,0.486,0.5116,0.532,0.5229,0.6311,0.7421,0.8102,0.9444,1.0399,1.0621,1.1187,1.1542,1.1542,1.1972,1.1843,1.0895,1.0804,1.0274,0.9061,0.9274,0.9123,0.8543,0.8212,0.7321,0.0,0.0,0.0,0.0,0.0,0.0,0.0,0.0,0.0,0.0,0.0,0.0,0.0,0.0,0.0,0.0,0.0,0.0,0.0,0.0,0.0,0.0,0.0,0.0,0.0,0.0,0.6592,0.621,0.6764,0.6826,0.6001,0.6318,0.6559,0.6559,0.6919,0.7095,0.7095,0.7095,0.7095,0.7095,0.7095,0.7095,0.7095,0.7146,0.7217,0.7217,0.7227,0.725,0.725,0.725,0.735,0.7448,0.7448,0.7506,0.7594,0.7492,0.7387,0.724,0.7136,0.7095,0.7098,0.6881,0.6795,0.6751,0.626,0.6038,0.5952,0.5777,0.5688,0.5688,0.5688,0.5688,0.5688,0.5688,0.5688,0.5688,0.5688,0.5688,0.5688,0.5688,0.5688,0.5688,0.5688,0.5688,0.5688,0.5688,0.5537,0.532,0.5125,0.5427,0.5599,0.5263,0.6184,0.6994,0.7222,0.8328,0.9314,0.9792,1.0361,1.0804,1.102,1.1143,1.1111,1.0837,1.0508,0.9969,0.9231,0.9027,0.8813,0.8586,0.8301,0.7555,0.6332,0.0,0.0,0.0,0.0,0.0,0.0,0.0,0.0,0.0,0.0,0.0,0.0,0.0,0.0,0.0,0.0,0.0,0.0,0.0,0.0,0.0,0.0,0.0,0.5706,0.6404,0.6761,0.6032,0.6855,0.7182,0.6424,0.6803,0.7095,0.7095,0.7095,0.7095,0.7095,0.7095,0.7098,0.7102,0.7102,0.7105,0.7109,0.7302,0.7426,0.7426,0.7529,0.76,0.76,0.76,0.76,0.7607,0.7607,0.7607,0.7614,0.7607,0.7607,0.7577,0.7227,0.7109,0.7112,0.6887,0.6799,0.6751,0.626,0.5952,0.5733,0.5733,0.5733,0.5688,0.5688,0.5688,0.5688,0.5688,0.5688,0.5688,0.5688,0.5688,0.5688,0.5688,0.5688,0.5688,0.5688,0.5688,0.5688,0.5688,0.5688,0.5688,0.5688,0.5688,0.557,0.5257,0.5507,0.0,0.6137,0.6567,0.7302,0.869,0.9248,0.9817,1.0476,1.0004,1.0155,1.1193,0.9534,0.9105,1.0519,0.8362,0.7656,0.8798,0.7955,0.7411,0.7225,0.0,0.0,0.0,0.0,0.0,0.0,0.0,0.0,0.0,0.0,0.0,0.0,0.0,0.0,0.0,0.0,0.0,0.0,0.0,0.0,0.0,0.0,0.7097,0.6652,0.7323,0.7739,0.7398,0.7447,0.7395,0.7179,0.7135,0.7095,0.7095,0.7095,0.7095,0.7095,0.7095,0.7146,0.7305,0.7309,0.7363,0.7472,0.7516,0.7536,0.7539,0.758,0.76,0.76,0.76,0.7655,0.7753,0.7753,0.7818,0.786,0.7797,0.7753,0.7733,0.7546,0.7475,0.7461,0.7304,0.7062,0.6795,0.6659,0.6438,0.6169,0.6038,0.5997,0.5952,0.5777,0.5688,0.5688,0.5688,0.5688,0.5688,0.5688,0.5688,0.5688,0.5688,0.5688,0.5688,0.5688,0.5688,0.5688,0.5688,0.5688,0.5688,0.5688,0.5688,0.5656,0.5556,0.5626,0.0,0.5811,0.6405,0.6834,0.6929,0.7546,0.8245,0.8941,0.9185,0.9716,0.0,1.0629,1.0401,1.0111,0.9762,0.961,0.958,0.9408,0.8947,0.0,0.0,0.0,0.0,0.0,0.0,0.0,0.0,0.0,0.0,0.0,0.0,0.0,0.0,0.0,0.0,0.0,0.0,0.0,0.0,0.0,0.0,0.7203,0.7776,0.7523,0.7905,0.8157,0.8028,0.7812,0.768,0.768,0.7411,0.7279,0.7279,0.7248,0.7238,0.7238,0.7299,0.7373,0.7465,0.7465,0.7509,0.76,0.7658,0.7689,0.7689,0.7753,0.7784,0.7784,0.7784,0.7828,0.0,0.7906,0.7907,0.7982,0.7894,0.7906,0.0,0.0,0.0,0.0,0.0,0.7273,0.6963,0.6905,0.6745,0.6463,0.6189,0.6083,0.6038,0.5777,0.5688,0.5688,0.5688,0.5688,0.5688,0.5688,0.5688,0.5688,0.5688,0.5688,0.5688,0.5688,0.5688,0.5688,0.5688,0.0,0.0,0.5688,0.5688,0.5637,0.5526,0.5591,0.5634,0.0,0.5982,0.6384,0.6437,0.7076,0.7824,0.8532,0.8716,0.0,0.0,0.0,0.9844,0.9307,0.9627,0.0,0.0,0.0,0.9265,0.943,0.0,0.0,0.0,0.6133,0.5513,0.0,0.0,0.0,0.0,0.0,0.0,0.0,0.0,0.0,0.0,0.0,0.0,0.0,0.0,0.0,0.0,0.7951,0.852,0.8288,0.8245,0.8245,0.8157,0.8028,0.79,0.7856,0.7654,0.7531,0.7487,0.7448,0.7443,0.7443,0.0,0.0,0.0,0.0,0.7631,0.7648,0.7773,0.7838,0.7838,0.7924,0.7988,0.7988,0.7988,0.7988,0.7988,0.7988,0.7988,0.7988,0.7988,0.7988,0.7965,0.775,0.7638,0.7624,0.7624,0.7469,0.0,0.0,0.0,0.0,0.6326,0.6195,0.6103,0.5824,0.5733,0.5688,0.5688,0.5688,0.5688,0.5688,0.5688,0.5688,0.5688,0.5688,0.5688,0.5688,0.5688,0.5688,0.5688,0.5688,0.5688,0.5688,0.5688,0.5578,0.5298,0.5523,0.0,0.529,0.5532,0.5935,0.6536,0.0,0.0,0.8667,0.8509,0.8873,0.9913,0.9096,0.8603,0.8661,0.886,0.9115,0.9342,0.877,0.9212,1.0679,1.0274,1.0009,0.9914,0.7492,0.6145,0.0,0.0,0.0,0.0,0.0,0.0,0.0,0.0,0.0,0.0,0.0,0.0,0.0,0.0,0.0,0.7213,0.8031,0.8568,0.852,0.852,0.8388,0.7984,0.794,0.7812,0.7595,0.7613,0.7598,0.742,0.7518,0.7556,0.7556,0.7584,0.0,0.7767,0.777,0.7831,0.7904,0.7931,0.7944,0.7944,0.0,0.0,0.7988,0.7988,0.7988,0.7988,0.7988,0.7988,0.7988,0.7988,0.7988,0.7985,0.7928,0.7879,0.777,0.777,0.7651,0.75,0.7473,0.7463,0.7343,0.6969,0.6694,0.6533,0.6159,0.5863,0.0,0.5688,0.5688,0.5688,0.5688,0.5688,0.5688,0.5688,0.5688,0.5688,0.5688,0.5688,0.5688,0.5688,0.5688,0.5688,0.5688,0.5688,0.5664,0.5594,0.5645,0.5664,0.5594,0.5645,0.5662,0.5526,0.6103,0.6794,0.7529,0.8085,0.8873,0.9913,0.9794,0.9833,1.0172,1.0211,1.0459,1.0884,1.0753,1.0842,1.1154,1.1063,1.0842,1.0443,0.956,0.8595,0.0,0.0,0.0,0.0,0.0,0.0,0.0,0.0,0.0,0.0,0.0,0.5931,0.6633,0.0,0.745,0.7889,0.8333,0.8612,0.8612,0.8476,0.8292,0.8072,0.8101,0.8068,0.7803,0.7805,0.7756,0.7667,0.7668,0.7706,0.7706,0.7777,0.7851,0.7874,0.7877,0.7914,0.7988,0.7988,0.7988,0.7988,0.7988,0.7988,0.7988,0.7988,0.7988,0.7988,0.7988,0.7988,0.7988,0.7988,0.7988,0.7988,0.7988,0.7941,0.7877,0.7877,0.7882,0.7807,0.7733,0.7706,0.7634,0.725,0.6974,0.6767,0.6334,0.6048,0.5863,0.5733,0.5688,0.5688,0.5688,0.5688,0.5688,0.5688,0.5688,0.5688,0.5688,0.5688,0.5688,0.5688,0.5688,0.5688,0.5688,0.5688,0.5688,0.5688,0.5688,0.5688,0.5688,0.5688,0.5618,0.548,0.6087,0.6797,0.751,0.8559,0.9447,0.9975,0.9994,1.0081,1.0294,1.0294,1.0424,1.0636,1.0852,1.0939,1.0939,1.1192,1.1192,1.0933,1.0712,0.9884,0.0,0.0,0.0,0.0,0.0,0.0,0.0,0.0,0.5739,0.6494,0.666,0.6897,0.7586,0.7729,0.7928,0.8495,0.8612,0.862,0.8657,0.8432,0.8307,0.8294,0.8305,0.825,0.8055,0.8016,0.7918,0.787,0.7866,0.7855,0.7855,0.7924,0.7988,0.7988,0.7988,0.7988,0.7988,0.7988,0.7988,0.7988,0.7988,0.7988,0.7988,0.7988,0.7988,0.7988,0.7988,0.7988,0.7988,0.7988,0.7988,0.7988,0.7988,0.7988,0.7988,0.7988,0.7988,0.7971,0.7899,0.7855,0.7783,0.7444,0.7226,0.699,0.6569,0.6294,0.6073,0.5827,0.5733,0.5688,0.5688,0.5688,0.5688,0.5688,0.5688,0.5688,0.5688,0.5688,0.5688,0.5688,0.5688,0.5688,0.5688,0.5688,0.5688,0.5688,0.5688,0.5688,0.5688,0.5688,0.5688,0.5688,0.6343,0.7129,0.7965,0.9109,0.9864,0.9994,0.9994,0.9994,0.9994,0.9994,0.9994,0.9994,1.0337,1.0463,1.0463,1.0852,1.1111,1.1154,1.1154,1.0414,0.3978,0.422,0.5,0.5337,0.5725,0.6396,0.0,0.0,0.7236,0.8155,0.8312,0.8349,0.8473,0.8463,0.8495,0.86,0.8612,0.8621,0.8771,0.8746,0.8712,0.8633,0.836,0.807,0.793,0.8087,0.8083,0.7835,0.7926,0.7965,0.7965,0.7982,0.7988,0.7988,0.7988,0.7988,0.7988,0.7988,0.7988,0.7988,0.7988,0.7988,0.7988,0.7988,0.7988,0.7988,0.7988,0.7988,0.7988,0.7988,0.7988,0.7988,0.7988,0.7988,0.7988,0.7988,0.7988,0.7988,0.7971,0.7965,0.7938,0.7786,0.7588,0.7385,0.7039,0.6633,0.623,0.6117,0.5863,0.5688,0.5688,0.5688,0.5688,0.5688,0.5688,0.5688,0.5688,0.5688,0.5688,0.5688,0.5688,0.5688,0.5688,0.5688,0.5688,0.5688,0.5688,0.5688,0.5688,0.5688,0.5688,0.5688,0.6343,0.7349,0.8667,0.8934,0.9288,0.9951,0.9994,0.9994,0.9994,0.9994,0.9994,0.9994,1.0038,1.0081,1.0081,1.0125,1.0337,1.0679,1.0679,1.0241,0.5771,0.565,0.0,0.0,0.7019,0.7289,0.7829,0.7728,0.7732,0.8469,0.8612,0.8612,0.8612,0.8612,0.8612,0.0,0.8649,0.8739,0.8808,0.8772,0.8761,0.8839,0.8568,0.832,0.8104,0.8198,0.8189,0.7943,0.7955,0.7988,0.7988,0.7988,0.7988,0.7988,0.7988,0.7988,0.7988,0.7988,0.7988,0.7988,0.7988,0.7988,0.7988,0.7988,0.7988,0.7988,0.7988,0.7988,0.7988,0.7988,0.7988,0.7988,0.7988,0.7988,0.7988,0.7988,0.7988,0.7988,0.7988,0.7988,0.7978,0.7917,0.7788,0.7646,0.7387,0.7001,0.6633,0.6303,0.6098,0.5908,0.5733,0.5688,0.5688,0.5688,0.5688,0.5688,0.5688,0.5688,0.5688,0.5688,0.5688,0.5688,0.5688,0.5688,0.5688,0.5688,0.5688,0.5688,0.5688,0.5688,0.5688,0.5688,0.6343,0.7041,0.7614,0.8053,0.8404,0.8715,0.9113,0.9375,0.9375,0.9772,0.9994,0.9994,0.9994,0.9994,0.9994,0.9994,1.0081,1.025,1.025,1.012,0.6445,0.0,0.0,0.75,0.793,0.8069,0.7853,0.7926,0.8135,0.8531,0.8612,0.8612,0.8612,0.8612,0.8624,0.8629,0.8739,0.8852,0.8954,0.8936,0.8938,0.9119,0.8949,0.8661,0.8369,0.8368,0.8283,0.8038,0.7988,0.7988,0.7988,0.7988,0.7988,0.7988,0.7988,0.7988,0.7988,0.7988,0.7988,0.7988,0.7988,0.7988,0.7988,0.7988,0.7988,0.7988,0.7988,0.7988,0.7988,0.7988,0.7988,0.7988,0.7988,0.7988,0.7988,0.7988,0.7988,0.7988,0.7988,0.7988,0.7988,0.7988,0.7914,0.7816,0.7634,0.7384,0.7065,0.6618,0.6346,0.6084,0.5872,0.5733,0.5688,0.5688,0.5688,0.5688,0.5688,0.5688,0.5688,0.5688,0.5688,0.5688,0.5688,0.5688,0.5688,0.5688,0.5688,0.5688,0.5688,0.5688,0.5688,0.5688,0.6169,0.6561,0.6776,0.7261,0.7614,0.779,0.8492,0.889,0.889,0.9598,0.9994,0.9994,0.9994,0.9994,0.9994,0.9994,0.9907,0.9685,0.9685,0.9685,0.4999,0.0,0.7318,0.7466,0.8176,0.8798,0.8623,0.8584,0.8592,0.8608,0.8612,0.8612,0.8612,0.8612,0.8621,0.8787,0.8816,0.8942,0.9339,0.9392,0.9413,0.9546,0.9324,0.9072,0.0,0.8528,0.8283,0.8038,0.7988,0.7988,0.7988,0.7988,0.7988,0.7988,0.7988,0.7988,0.7988,0.7988,0.7988,0.7988,0.7988,0.7988,0.7988,0.7988,0.7988,0.7988,0.7988,0.7988,0.7988,0.7988,0.7988,0.7988,0.7988,0.7988,0.7988,0.7988,0.7988,0.7988,0.7988,0.7988,0.7988,0.7988,0.7985,0.7955,0.7806,0.7662,0.7411,0.7089,0.6642,0.6244,0.6114,0.5908,0.5688,0.5688,0.5688,0.5688,0.5688,0.5688,0.5688,0.5688,0.5688,0.5688,0.5688,0.5688,0.5688,0.5688,0.5688,0.5688,0.5688,0.5688,0.5688,0.5688,0.5733,0.6038,0.6735,0.6823,0.7129,0.7746,0.8492,0.889,0.889,0.9598,0.9994,0.9994,0.9994,0.9994,0.9994,0.9994,0.9641,0.8934,0.8934,0.8934,0.5396,0.0,0.7239,0.8039,0.8472,0.8696,0.8608,0.8612,0.8612,0.8612,0.8334,0.808,0.808,0.813,0.8221,0.8277,0.877,0.9265,0.9384,0.9458,0.9461,0.9327,0.9236,0.0,0.0,0.0,0.0,0.8038,0.7988,0.7988,0.7988,0.7988,0.7988,0.7988,0.7988,0.7988,0.7988,0.7988,0.7988,0.7988,0.7988,0.7988,0.7988,0.7988,0.7988,0.7988,0.7988,0.7988,0.7988,0.7988,0.7988,0.7988,0.7988,0.7988,0.7988,0.7988,0.7988,0.7988,0.7988,0.7988,0.7988,0.7988,0.7988,0.7982,0.7928,0.7843,0.7626,0.7245,0.6848,0.6472,0.6159,0.5908,0.5688,0.5688,0.5688,0.5688,0.5688,0.5688,0.5688,0.5688,0.5688,0.5688,0.5688,0.5688,0.5688,0.5688,0.5688,0.5688,0.5688,0.5688,0.5688,0.5688,0.5688,0.5819,0.6038,0.6083,0.6171,0.639,0.7088,0.7702,0.8141,0.889,0.9506,0.9994,0.9994,0.9994,0.9994,0.951,0.9157,0.889,0.8404,0.8185,0.5976,0.6791,0.7436,0.8387,0.8612,0.8612,0.8612,0.8612,0.8612,0.8612,0.81,0.7682,0.7682,0.782,0.7915,0.7852,0.8657,0.931,0.931,0.9369,0.9359,0.9229,0.9034,0.8783,0.0,0.0,0.0,0.7988,0.7988,0.7988,0.7988,0.7988,0.7988,0.7988,0.7988,0.7988,0.7988,0.7988,0.7988,0.7988,0.7988,0.7988,0.7988,0.7988,0.7988,0.7988,0.7988,0.7988,0.7988,0.7988,0.7988,0.7988,0.7988,0.7988,0.7988,0.7988,0.7988,0.7988,0.7988,0.7988,0.7988,0.7988,0.7988,0.7988,0.7988,0.7921,0.7813,0.7518,0.7139,0.6817,0.6503,0.612,0.5863,0.5863,0.5777,0.5688,0.5688,0.5688,0.5688,0.5688,0.5688,0.5688,0.5688,0.5688,0.5688,0.5688,0.5688,0.5688,0.5688,0.5688,0.5688,0.5688,0.5688,0.5688,0.5688,0.5688,0.5688,0.5688,0.6387,0.6997,0.7438,0.8141,0.8715,0.92,0.92,0.92,0.92,0.8759,0.8364,0.8145,0.7658,0.7438,0.6661,0.7373,0.7963,0.8482,0.8612,0.8612,0.8612,0.8612,0.8604,0.8532,0.7972,0.7434,0.0,0.0,0.771,0.7537,0.8392,0.9125,0.9125,0.9076,0.9049,0.0,0.0,0.0,0.0,0.0,0.0,0.8038,0.0,0.7988,0.7988,0.7988,0.7988,0.7988,0.7988,0.7988,0.7988,0.7988,0.7988,0.7988,0.7988,0.7988,0.7988,0.7988,0.7988,0.7988,0.7988,0.7988,0.7988,0.7988,0.7988,0.7988,0.7988,0.7988,0.7988,0.7988,0.7988,0.7988,0.7988,0.7988,0.7988,0.7988,0.7988,0.7988,0.7988,0.7988,0.7958,0.7855,0.7518,0.7192,0.7047,0.6548,0.6136,0.6086,0.5908,0.5733,0.5688,0.5688,0.5688,0.5688,0.5688,0.5688,0.5688,0.5688,0.5688,0.5688,0.5688,0.5688,0.5688,0.5688,0.5688,0.5688,0.5688,0.5688,0.5688,0.5688,0.5688,0.5688,0.6343,0.6779,0.6779,0.7394,0.7746,0.779,0.779,0.779,0.779,0.7746,0.7438,0.6779,0.6779,0.6735,0.7363,0.797,0.8437,0.8575,0.8612,0.8612,0.8612,0.8612,0.845,0.7875,0.7324,0.6749,0.0,0.0,0.0,0.7365,0.8551,0.0,0.9202,0.9339,0.0,0.8924,0.0,0.8931,0.8726,0.8432,0.0,0.0,0.8137,0.7988,0.7988,0.7988,0.7988,0.7988,0.7988,0.7988,0.7988,0.7988,0.7988,0.7988,0.7988,0.7988,0.7988,0.7988,0.7988,0.7988,0.7988,0.7988,0.7988,0.7988,0.7988,0.7988,0.7988,0.7988,0.7988,0.7988,0.7988,0.7988,0.7988,0.7988,0.7988,0.7988,0.7988,0.7988,0.7988,0.7988,0.7958,0.7855,0.7594,0.7365,0.7076,0.6755,0.6469,0.615,0.6038,0.5952,0.5733,0.5688,0.5688,0.5688,0.5688,0.5688,0.5688,0.5688,0.5688,0.5688,0.5688,0.5688,0.5688,0.5688,0.5688,0.5688,0.5688,0.5688,0.5688,0.5688,0.5688,0.5688,0.5863,0.6213,0.6779,0.6956,0.7305,0.779,0.779,0.779,0.779,0.7305,0.6956,0.6779,0.6257,0.5994,0.8007,0.838,0.8612,0.8612,0.8612,0.8551,0.831,0.8169,0.7932,0.7281,0.6622,0.0,0.5669,0.0,0.0,0.0,0.0,0.0,0.9212,0.9267,0.9245,0.0,0.8981,0.0,0.8825,0.8676,0.8581,0.0,0.8237,0.7988,0.7988,0.7988,0.7988,0.7988,0.7988,0.7988,0.7988,0.7988,0.7988,0.7988,0.7988,0.7988,0.7988,0.7988,0.7988,0.7988,0.0,0.7988,0.7988,0.7988,0.7988,0.7988,0.7988,0.7988,0.7988,0.7988,0.7988,0.7988,0.7988,0.7988,0.7988,0.7988,0.7988,0.7988,0.7988,0.7988,0.7971,0.7887,0.7768,0.7584,0.7422,0.7143,0.6845,0.6496,0.63,0.6124,0.5854,0.5723,0.5688,0.5688,0.5688,0.5688,0.5688,0.5688,0.5688,0.5688,0.5688,0.5688,0.5688,0.5688,0.5688,0.5688,0.5688,0.5688,0.5688,0.5688,0.5688,0.5688,0.5688,0.5908,0.6302,0.6299,0.6476,0.6871,0.6871,0.6871,0.6871,0.652,0.6299,0.6299,0.5908,0.5688,0.8482,0.8612,0.8612,0.8612,0.8612,0.8469,0.7882,0.7633,0.7297,0.6662,0.0,0.5466,0.5351,0.6152,0.6787,0.6586,0.0,0.923,0.913,0.9108,0.9114,0.9167,0.9027,0.8924,0.8924,0.8874,0.8874,0.8874,0.8382,0.8088,0.8088,0.8088,0.8038,0.7988,0.7988,0.7988,0.7988,0.7988,0.7988,0.7988,0.7988,0.7988,0.7988,0.7988,0.7988,0.7988,0.0,0.0,0.7988,0.7988,0.7988,0.7988,0.7988,0.7988,0.7988,0.7988,0.7988,0.7988,0.7988,0.7988,0.7988,0.7988,0.7988,0.7988,0.7988,0.7988,0.7988,0.7988,0.7894,0.7838,0.7818,0.7525,0.719,0.6938,0.6613,0.6302,0.602,0.5836,0.5712,0.5712,0.5699,0.5688,0.5688,0.5688,0.5688,0.5688,0.5688,0.5688,0.5688,0.5688,0.5688,0.5688,0.5688,0.5688,0.5688,0.5688,0.5688,0.5688,0.5688,0.5688,0.5688,0.5688,0.5688,0.5688,0.5688,0.5688,0.5688,0.5688,0.5688,0.5688,0.5688,0.5688,0.8588,0.8612,0.8612,0.8612,0.8612,0.8422,0.7712,0.7509,0.0,0.0,0.5518,0.5267,0.4549,0.5288,0.6216,0.6817,0.0,0.0,0.0,0.0,0.9444,0.0,0.0,0.0,0.0,0.0,0.0,0.0,0.0,0.0,0.8676,0.8432,0.8233,0.7988,0.7988,0.7988,0.7988,0.7988,0.7988,0.7988,0.7988,0.7988,0.7988,0.7988,0.7988,0.7988,0.0,0.0,0.7988,0.7988,0.7988,0.7988,0.7988,0.7988,0.7988,0.7988,0.7988,0.7988,0.7988,0.7988,0.7988,0.7988,0.7988,0.7988,0.7988,0.7988,0.7988,0.7988,0.7971,0.7921,0.7845,0.7746,0.7599,0.724,0.6913,0.6664,0.6426,0.6094,0.5874,0.5874,0.5798,0.5688,0.5688,0.5688,0.5688,0.5688,0.5688,0.5688,0.5688,0.5688,0.5688,0.5688,0.5688,0.5688,0.5688,0.5688,0.5688,0.5688,0.5688,0.5688,0.5688,0.5688,0.5688,0.5688,0.5688,0.5688,0.5688,0.5688,0.5688,0.5688,0.5688,0.5688,0.8612,0.8612,0.8612,0.8612,0.8612,0.8349,0.7331,0.0,0.0,0.0,0.4787,0.4605,0.426,0.5003,0.0,0.0,0.0,0.0,0.0,0.0,0.0,0.0,0.0,0.0,0.0,0.0,0.0,0.0,0.0,0.0,0.8825,0.8528,0.8333,0.8237,0.8088,0.7988,0.7988,0.7988,0.7988,0.7988,0.7988,0.7988,0.7988,0.7988,0.7988,0.7988,0.7988,0.0,0.7988,0.7988,0.7988,0.7988,0.7988,0.7988,0.7988,0.7988,0.7988,0.7988,0.7988,0.7988,0.7988,0.7988,0.7988,0.7988,0.7988,0.7988,0.7988,0.7988,0.7988,0.7971,0.7901,0.788,0.7815,0.7501,0.7093,0.6685,0.652,0.6225,0.5999,0.5999,0.5953,0.5896,0.5833,0.582,0.5801,0.5696,0.5688,0.5688,0.5688,0.5688,0.5688,0.5688,0.5688,0.5688,0.5688,0.5688,0.5688,0.5688,0.5688,0.5688,0.5688,0.5688,0.5688,0.5688,0.5688,0.5688,0.5688,0.5688,0.5688,0.5688,0.5688,0.5688,0.8592,0.8612,0.862,0.8657,0.8621,0.8298,0.7,0.6518,0.0,0.4664,0.4176,0.4031,0.4127,0.4755,0.5351,0.0,0.6935,0.0,0.0,0.0,0.0,0.0,0.0,0.0,0.0,0.0,0.0,0.0,0.0,0.0,0.8928,0.868,0.8531,0.8482,0.8233,0.8088,0.8088,0.8038,0.7988,0.7988,0.7988,0.7988,0.7988,0.7988,0.7988,0.7988,0.7988,0.0,0.0,0.7988,0.7988,0.7988,0.7988,0.7988,0.7988,0.7988,0.7988,0.7988,0.7988,0.7988,0.7988,0.7988,0.7988,0.7988,0.7988,0.7988,0.7988,0.7988,0.7988,0.7988,0.7988,0.7988,0.7942,0.7646,0.7211,0.676,0.661,0.6331,0.6124,0.6124,0.6105,0.6053,0.5958,0.5942,0.5912,0.5822,0.5742,0.5726,0.5726,0.5704,0.5688,0.5688,0.5688,0.5688,0.5688,0.5688,0.5688,0.5688,0.5688,0.5688,0.5688,0.5688,0.5688,0.5688,0.5688,0.5688,0.5688,0.5688,0.5688,0.5688,0.5688,0.5688,0.8518,0.8612,0.8649,0.8759,0.8796,0.8432,0.7103,0.0,0.6097,0.4386,0.4029,0.3998,0.4011,0.4173,0.4639,0.5632,0.0,0.6839,0.0,0.0,0.0,0.0,0.0,0.0,0.0,0.0,0.0,0.0,0.0,0.0,0.0,0.9137,0.9031,0.8775,0.8478,0.8382,0.8382,0.8137,0.7988,0.7988,0.7988,0.7988,0.7988,0.7988,0.7988,0.7988,0.0,0.0,0.0,0.7988,0.7988,0.7988,0.7988,0.7988,0.7988,0.7988,0.7988,0.7988,0.7988,0.7988,0.7988,0.7988,0.7988,0.7988,0.7988,0.7988,0.7988,0.7988,0.7988,0.7988,0.7988,0.7988,0.7942,0.7646,0.7381,0.7068,0.681,0.6524,0.63,0.63,0.6162,0.6081,0.607,0.607,0.6067,0.6053,0.5958,0.5888,0.5888,0.5798,0.5688,0.5688,0.5688,0.5688,0.5688,0.5688,0.5688,0.5688,0.5688,0.5688,0.5688,0.5688,0.5688,0.5688,0.5688,0.5688,0.5688,0.5688,0.5688,0.5688,0.5688,0.5688,0.8564,0.8718,0.8763,0.8942,0.8573,0.7937,0.7019,0.0,0.5316,0.4227,0.388,0.3809,0.396,0.4045,0.4293,0.4917,0.5552,0.0,0.0,0.0,0.0,0.0,0.0,0.0,0.0,0.0,0.0,0.0,0.0,0.0,0.0,0.9624,0.9133,0.9031,0.8634,0.8382,0.8382,0.8137,0.7988,0.7988,0.7988,0.7988,0.7988,0.7988,0.7988,0.7988,0.0,0.0,0.0,0.7988,0.7988,0.7988,0.7988,0.7988,0.7988,0.7988,0.7988,0.7988,0.7988,0.7988,0.7988,0.7988,0.7988,0.7988,0.7988,0.7988,0.7988,0.7988,0.7988,0.7988,0.7988,0.7988,0.7992,0.7842,0.7643,0.7344,0.7089,0.6804,0.6572,0.6369,0.6331,0.6274,0.6208,0.6243,0.617,0.6097,0.6043,0.6013,0.6013,0.5909,0.5836,0.5836,0.5729,0.5688,0.5688,0.5688,0.5688,0.5688,0.5688,0.5688,0.5688,0.5688,0.5688,0.5688,0.5688,0.5688,0.5688,0.5688,0.5688,0.5688,0.5688,0.5777,0.8418,0.8739,0.8946,0.9129,0.8545,0.7718,0.0,0.0,0.4869,0.4146,0.3785,0.3692,0.394,0.3994,0.4117,0.4443,0.5093,0.5671,0.6003,0.0,0.0,0.0,0.0,0.0,0.0,0.0,0.0,0.0,0.0,0.0,0.0,1.0739,0.9965,0.9331,0.8882,0.8634,0.8634,0.8287,0.8137,0.8137,0.8038,0.7988,0.7988,0.7988,0.7988,0.7988,0.0,0.0,0.0,0.7988,0.7988,0.7988,0.7988,0.7988,0.7988,0.7988,0.7988,0.7988,0.7988,0.7988,0.7988,0.7988,0.7988,0.7988,0.7988,0.7988,0.7988,0.7988,0.7988,0.7988,0.7988,0.7988,0.7988,0.7988,0.7793,0.7547,0.7341,0.7042,0.6742,0.6539,0.6437,0.6363,0.6331,0.6317,0.629,0.6203,0.6162,0.6042,0.5706,0.5558,0.5349,0.5069,0.5165,0.5407,0.5691,0.5688,0.5688,0.5688,0.5688,0.5688,0.5688,0.5688,0.5688,0.5688,0.5688,0.5688,0.5688,0.5688,0.5733,0.5822,0.5822,0.5997,0.7923,0.8548,0.9137,0.9359,0.8721,0.7887,0.0,0.0,0.5034,0.417,0.3785,0.3692,0.394,0.3994,0.4117,0.4443,0.4791,0.0,0.6101,0.0,0.0,0.0,0.0,0.0,0.0,0.0,0.0,0.0,0.0,0.0,0.0,1.2684,1.1712,0.9677,0.9335,0.9187,0.9187,0.8684,0.8382,0.8382,0.8137,0.7988,0.7988,0.7988,0.7988,0.0,0.0,0.0,0.0,0.7988,0.7988,0.7988,0.7988,0.7988,0.7988,0.7988,0.7988,0.7988,0.7988,0.7988,0.7988,0.7988,0.7988,0.7988,0.7988,0.7988,0.7988,0.7988,0.7988,0.7988,0.7988,0.7988,0.7988,0.7988,0.7793,0.7596,0.7596,0.7194,0.6795,0.6795,0.6589,0.6387,0.6384,0.6384,0.6384,0.6384,0.6339,0.5922,0.4844,0.4616,0.4085,0.3041,0.3778,0.471,0.5607,0.5688,0.5688,0.5688,0.5688,0.5688,0.5688,0.5688,0.5688,0.5688,0.5688,0.5688,0.5688,0.5688,0.5822,0.6083,0.6083,0.6352,0.7277,0.756,0.7696,0.7912,0.7231,0.6459,0.6231,0.5251,0.4328,0.406,0.3828,0.3753,0.4091,0.4147,0.4283,0.4699,0.4916,0.0,0.0,0.0,0.0,0.0,0.0,0.0,0.0,0.0,0.0,0.0,0.0,0.0,0.0,1.3119,1.2393,1.176,1.1468,1.0979,1.0301,0.9953,0.941,0.8676,0.8382,0.8283,0.8283,0.8088,0.0,0.0,0.0,0.0,0.0,0.7988,0.7988,0.7988,0.7988,0.7988,0.7988,0.7988,0.7988,0.7988,0.7988,0.7988,0.7988,0.7988,0.7988,0.7988,0.7988,0.7988,0.7988,0.7988,0.7988,0.7988,0.7988,0.7988,0.7988,0.7988,0.7942,0.7842,0.7646,0.7344,0.7089,0.7089,0.6686,0.6437,0.6639,0.6539,0.6387,0.6387,0.5757,0.5142,0.4792,0.4025,0.3346,0.3007,0.3192,0.3454,0.3751,0.4377,0.4478,0.3807,0.4389,0.4433,0.3807,0.4389,0.4433,0.3807,0.3807,0.3849,0.3979,0.3979,0.4472,0.5322,0.4832,0.5411,0.6423,0.6844,0.7044,0.7153,0.6484,0.5771,0.5712,0.0,0.3981,0.3944,0.3807,0.3778,0.4062,0.4136,0.4246,0.4653,0.4769,0.0,0.0,0.0,0.0,0.0,0.0,0.0,0.0,0.0,0.0,0.0,0.0,0.0,0.0,0.0,1.389,1.389,1.2581,1.1755,1.1512,1.1268,1.0583,0.9558,0.9266,0.8874,0.8382,0.8233,0.0,0.0,0.0,0.0,0.0,0.7988,0.7988,0.7988,0.7988,0.7988,0.7988,0.7988,0.7988,0.7988,0.7988,0.7988,0.7988,0.7988,0.7988,0.7988,0.7988,0.7988,0.7988,0.7988,0.7988,0.7988,0.7988,0.7988,0.7988,0.7988,0.7988,0.7939,0.7793,0.754,0.7341,0.7341,0.6989,0.6739,0.6795,0.6642,0.6539,0.6437,0.5834,0.5133,0.428,0.3539,0.2771,0.1931,0.214,0.22,0.1843,0.3012,0.3528,0.2933,0.3436,0.3528,0.2933,0.3482,0.3528,0.3071,0.3071,0.3161,0.3388,0.3481,0.3892,0.4626,0.4667,0.5125,0.0,0.6207,0.6806,0.6806,0.6235,0.5614,0.544,0.4654,0.0,0.3822,0.3764,0.3772,0.3992,0.4028,0.4132,0.4428,0.4518,0.0,0.0,0.0,0.0,0.0,0.0,0.0,0.0,0.0,0.0,0.0,0.0,0.0,0.0,0.0,1.573,1.5784,1.2969,1.1853,1.2775,1.2581,1.195,1.093,1.0681,0.985,0.8528,0.8528,0.0,0.0,0.0,0.0,0.0,0.7988,0.7988,0.7988,0.7988,0.7988,0.7988,0.7988,0.7988,0.7988,0.7988,0.7988,0.7988,0.7988,0.7988,0.7988,0.7988,0.7988,0.7988,0.7988,0.7988,0.7988,0.7988,0.7988,0.7988,0.7988,0.7988,0.7988,0.7988,0.7793,0.7596,0.7646,0.7391,0.7138,0.6892,0.6795,0.6692,0.6437,0.6337,0.5532,0.3475,0.3123,0.2318,0.0202,0.0795,0.0933,0.0098,0.1734,0.2756,0.2709,0.2756,0.2804,0.2709,0.2804,0.2947,0.3137,0.3139,0.3281,0.352,0.3711,0.3903,0.4091,0.5176,0.5315,0.4253,0.0,0.4857,0.4857,0.4632,0.4404,0.0,0.4081,0.3836,0.0,0.0,0.0,0.0,0.4332,0.4506,0.5079,0.0,0.0,0.0,0.0,0.0,0.0,0.0,0.0,0.0,0.0,0.0,0.0,0.0,0.0,0.0,0.0,1.5016,1.5784,1.4334,1.3661,1.3902,1.3854,1.3318,1.2242,1.1999,1.117,0.9948,0.9948,0.0,0.0,0.0,0.0,0.7988,0.7988,0.7988,0.7988,0.7988,0.7988,0.7988,0.7988,0.7988,0.7988,0.7988,0.7988,0.7988,0.7988,0.7988,0.7988,0.7988,0.7988,0.7988,0.7988,0.7988,0.7988,0.7988,0.7988,0.7988,0.7988,0.7988,0.7988,0.7988,0.7793,0.7643,0.7842,0.7537,0.7188,0.7138,0.6942,0.6692,0.6437,0.5687,0.4682,0.3374,0.2469,0.1462,0.0151,0.0201,0.0251,0.0,0.1069,0.1428,0.0714,0.157,0.1713,0.1,0.1856,0.2047,0.1381,0.1572,0.1715,0.1811,0.2001,0.2904,0.4421,0.314,0.4085,0.3872,0.4024,0.4204,0.4204,0.4153,0.4082,0.4011,0.39,0.0,0.0,0.0,0.0,0.0,0.0,0.0,0.0,0.0,0.0,0.0,0.0,0.0,0.0,0.0,0.0,0.0,0.0,0.0,0.0,0.0,0.0,0.0,0.0,1.5255,1.5784,1.5255,1.4968,1.4968,1.4968,1.4484,1.3414,1.327,1.2538,1.1268,1.1268,0.0,0.0,0.0,0.0,0.7988,0.7988,0.7988,0.7988,0.7988,0.7988,0.7988,0.7988,0.7988,0.7988,0.7988,0.7988,0.7988,0.7988,0.7988,0.7988,0.7988,0.7988,0.7988,0.7988,0.7988,0.7988,0.7988,0.7988,0.7988,0.7988,0.7988,0.7988,0.7988,0.7892,0.7842,0.7992,0.7789,0.7537,0.7391,0.7244,0.7042,0.6639,0.6089,0.5286,0.4079,0.3425,0.267,0.1563,0.116,0.0908,0.0908,0.104,0.0832,0.0245,0.0783,0.0979,0.0588,0.1224,0.1371,0.098,0.1224,0.1371,0.1371,0.147,0.2104,0.3226,0.2592,0.3467,0.3913,0.4262,0.4558,0.4258,0.4195,0.4204,0.41,0.4063,0.0,0.0,0.0,0.0,0.0,0.6349,0.0,0.0,0.0,0.0,0.0,0.0,0.0,0.0,0.0,0.0,0.0,0.0,0.0,0.0,0.0,0.0,0.0,0.0,0.0,1.5784,1.5784,1.5784,1.5784,1.5784,1.535,1.4538,1.4538,1.3848,1.2528,1.2581,1.1755,0.0,0.0,0.0,0.8333,0.8137,0.8038,0.8038,0.8041,0.7988,0.7988,0.7988,0.7988,0.7988,0.7988,0.7988,0.7988,0.7988,0.7988,0.7988,0.7988,0.7988,0.7988,0.7988,0.7988,0.7988,0.7988,0.7988,0.7988,0.7988,0.7988,0.7988,0.7988,0.7988,0.7988,0.7988,0.7988,0.7892,0.7646,0.7596,0.7447,0.6945,0.6842,0.6339,0.5035,0.4883,0.4431,0.3374,0.2519,0.2067,0.2067,0.1262,0.0707,0.0556,0.0505,0.0657,0.0909,0.0909,0.101,0.1263,0.1465,0.1617,0.1617,0.1617,0.1768,0.212,0.2671,0.3224,0.4007,0.5239,0.6157,0.4466,0.4255,0.4446,0.4424,0.4759,0.4926,0.0,0.0,0.0,0.0,0.7061,0.0,0.0,0.0,0.0,0.0,0.0,0.0,0.0,0.0,0.0,0.0,0.0,0.0,0.0,0.0,0.0,0.0,0.0,0.0,1.5784,1.5784,1.5784,1.5784,1.5784,1.5737,1.5588,1.5588,1.4902,1.3638,1.3896,1.3125,0.0,0.0,1.044,0.9948,0.8825,0.8333,0.8333,0.8088,0.7988,0.7988,0.7988,0.7988,0.7988,0.7988,0.7988,0.7988,0.7988,0.7988,0.7988,0.7988,0.7988,0.7988,0.7988,0.7988,0.7988,0.7988,0.7988,0.7988,0.7988,0.7988,0.7988,0.7988,0.7988,0.7988,0.7988,0.7988,0.7892,0.7646,0.7596,0.7494,0.7188,0.6942,0.6389,0.5281,0.5131,0.4728,0.3671,0.2819,0.2316,0.2316,0.1412,0.0859,0.1061,0.1061,0.1212,0.1465,0.1465,0.1516,0.1516,0.1566,0.1617,0.1617,0.1617,0.2521,0.4275,0.2622,0.3325,0.407,0.5105,0.6116,0.586,0.661,0.7402,0.7402,0.7558,0.7447,0.0,0.0,0.0,0.0,0.0,0.0,0.0,0.0,0.0,0.0,0.0,0.0,0.0,0.0,0.0,0.0,0.0,0.0,0.0,0.0,0.0,0.0,0.0,0.0,0.0,1.5784,1.5784,1.5784,1.5784,1.5784,1.5784,1.5784,1.5486,1.4949,1.5057,1.4328,1.2958,0.0,1.1989,1.117,1.044,0.9801,0.9217,0.897,0.8528,0.7988,0.7988,0.7988,0.7988,0.7988,0.7988,0.7988,0.7988,0.7988,0.7988,0.7988,0.7988,0.7988,0.7988,0.7988,0.7988,0.7988,0.7988,0.7988,0.7988,0.7988,0.7988,0.7988,0.7988,0.7988,0.7988,0.7988,0.7942,0.7842,0.7793,0.7743,0.7441,0.7294,0.6992,0.6384,0.6282,0.6082,0.5577,0.4323,0.3723,0.4271,0.242,0.1212,0.1212,0.1314,0.1465,0.1617,0.1617,0.1617,0.1617,0.1617,0.1617,0.1617,0.217,0.2973,0.3924,0.3524,0.4427,0.4416,0.5322,0.6539,0.7467,0.8489,0.9398,0.9927,0.9885,0.9489,0.8816,0.0,0.0,0.0,0.0,0.0,0.0,0.0,0.0,0.0,0.0,0.0,0.0,0.0,0.0,0.0,0.0,0.0,0.0,0.0,0.0,0.0,0.0,0.0,0.0,1.5784,1.5784,1.5784,1.5784,1.5784,1.5784,1.5784,1.5784,1.5784,1.5784,1.5289,1.4316,1.4076,1.3397,1.2436,1.195,1.1121,1.0145,0.9903,0.9069,0.8088,0.8038,0.7988,0.7988,0.7988,0.7988,0.7988,0.7988,0.7988,0.7988,0.7988,0.7988,0.7988,0.7988,0.7988,0.7988,0.7988,0.7988,0.7988,0.7988,0.7988,0.7988,0.7988,0.7988,0.7988,0.7988,0.7988,0.7988,0.7988,0.7988,0.7942,0.7746,0.7646,0.7543,0.7341,0.7288,0.7288,0.7288,0.5832,0.4979,0.5327,0.3275,0.1768,0.1314,0.1465,0.1617,0.1617,0.1617,0.1617,0.1617,0.1617,0.1617,0.1617,0.2672,0.3323,0.3574,0.4423,0.5377,0.5346,0.6929,0.8779,0.886,0.8091,0.7867,1.0045,1.0095,0.9844,1.0304,0.0,0.0,0.0,0.0,0.0,0.0,0.0,0.0,0.0,0.0,0.0,0.0,0.0,0.0,0.0,0.0,0.0,0.0,0.0,0.0,0.0,0.0,0.0,0.0,0.0,1.5784,1.5784,1.5784,1.5784,1.5784,1.5784,1.5784,1.5784,1.5784,1.573,1.5635,1.4675,1.4202,1.4052,1.2775,1.1658,1.073,1.044,0.9558,0.8333,0.8088,0.7988,0.7988,0.7988,0.7988,0.7988,0.7988,0.7988,0.7988,0.7988,0.7988,0.7988,0.7988,0.7988,0.7988,0.7988,0.7988,0.7988,0.7988,0.7988,0.7988,0.7988,0.7988,0.7988,0.7988,0.7988,0.7988,0.7988,0.7988,0.7988,0.7992,0.7743,0.7596,0.7596,0.7596,0.7596,0.7596,0.6789,0.5482,0.3574,0.3224,0.2672,0.1617,0.1566,0.1617,0.1617,0.1617,0.1617,0.1617,0.1617,0.1617,0.1617,0.2672,0.3725,0.4674,0.4774,0.5377,0.5743,0.7366,0.8992,0.9003,0.9271,1.0115,1.2285,1.2595,1.2389,1.226,1.2877,0.0,0.0,0.0,0.0,0.0,0.0,0.0,0.0,0.0,0.0,0.0,0.0,0.0,0.0,0.0,0.0,0.0,0.0,0.0,0.0,0.0,0.0,0.0,0.0,1.5784,1.5784,1.5784,1.5784,1.5784,1.5784,1.5784,1.5784,1.5784,1.5784,1.5784,1.5397,1.5207,1.5159,1.4567,1.3692,1.2571,1.1023,0.9706,0.8627,0.8531,0.8382,0.8237,0.8237,0.8137,0.7988,0.7988,0.7988,0.7988,0.7988,0.7988,0.7988,0.7988,0.7988,0.7988,0.7988,0.7988,0.7988,0.7988,0.7988,0.7988,0.7988,0.7988,0.7988,0.7988,0.7988,0.7988,0.7988,0.7988,0.7988,0.7988,0.7892,0.7842,0.7842,0.7842,0.7842,0.7842,0.759,0.6534,0.4375,0.4828,0.4429,0.2722,0.1969,0.1617,0.1617,0.1617,0.1617,0.1617,0.1617,0.1919,0.2572,0.3674,0.4726,0.5832,0.6481,0.6983,0.6909,0.8121,0.9453,0.9811,1.0385,1.1423,1.3594,1.3874,1.3748,1.3988,1.4135,1.4128,1.3821,0.0,0.0,0.0,0.0,0.0,0.0,0.0,0.0,0.0,0.0,0.0,0.0,0.0,0.0,0.0,0.0,0.0,0.0,0.0,0.0,0.0,0.0,0.0,1.5784,1.5784,1.5784,1.5784,1.5784,1.5784,1.5784,1.5784,1.5784,1.5784,1.5784,1.5784,1.5778,1.5635,1.4956,1.3788,1.1458,1.0096,0.9361,0.897,0.8627,0.8382,0.8382,0.8233,0.7988,0.7988,0.7988,0.7988,0.7988,0.7988,0.7988,0.7988,0.7988,0.7988,0.7988,0.7988,0.7988,0.7988,0.7988,0.7988,0.7988,0.7988,0.7988,0.7988,0.7988,0.7988,0.7988,0.7988,0.7988,0.7988,0.7988,0.7988,0.7988,0.7988,0.7988,0.7988,0.7988,0.7285,0.5477,0.5982,0.5632,0.3825,0.3022,0.2471,0.212,0.212,0.227,0.2622,0.2622,0.2973,0.3725,0.4776,0.5679,0.6437,0.7487,0.7988,0.9011,0.9428,1.0408,1.1598,1.1256,1.1243,1.3554,1.3414,1.3367,1.5411,1.5092,1.4616,1.4955,0.0,0.0,0.0,0.0,0.0,0.0,0.0,0.0,0.0,0.0,0.0,0.0,0.0,0.0,0.0,0.0,0.0,0.0,0.0,0.0,0.0,0.0,0.0,1.5784,1.5778,1.5778,1.5778,1.5771,1.5778,1.5784,1.5784,1.5784,1.5784,1.5784,1.5784,1.5784,1.5784,1.5207,1.4052,1.1755,1.0828,1.0636,0.9312,0.8627,0.8382,0.8382,0.8233,0.7988,0.7988,0.7988,0.7988,0.7988,0.7988,0.7988,0.7988,0.7988,0.7988,0.7988,0.7988,0.7988,0.7988,0.7988,0.7988,0.7988,0.7988,0.7988,0.7988,0.7988,0.7988,0.7988,0.7988,0.7988,0.7988,0.7988,0.7988,0.7988,0.7988,0.7988,0.7988,0.7988,0.7587,0.6487,0.6437,0.5982,0.4874,0.4824,0.4325,0.3274,0.3224,0.3725,0.4774,0.4824,0.4824,0.4824,0.5882,0.6387,0.6437,0.7487,0.7988,0.8127,0.9561,0.0,1.0701,0.0,0.0,0.0,1.3888,0.0,0.0,1.5297,1.4863,1.4995,0.0,0.0,0.0,0.0,0.0,0.0,0.0,0.0,0.0,0.0,0.0,0.0,0.0,0.0,0.0,0.0,0.0,0.0,0.0,0.0,0.0,0.0,0.0,1.5784,1.5625,1.5524,1.5524,1.5317,1.5431,1.5784,1.5784,1.5784,1.5784,1.5784,1.5784,1.5784,1.5784,1.5207,1.425,1.3516,1.2393,1.1023,1.0632,0.9858,0.8935,0.873,0.8528,0.8237,0.8038,0.7988,0.7988,0.7988,0.7988,0.7988,0.7988,0.7988,0.7988,0.7988,0.7988,0.7988,0.7988,0.7988,0.7988,0.7988,0.7988,0.7988,0.7988,0.7988,0.7988,0.7988,0.7988,0.7988,0.7988,0.7988,0.7988,0.7988,0.7988,0.7988,0.7988,0.7988,0.7889,0.754,0.7537,0.7086,0.5982,0.5932,0.5429,0.4375,0.4325,0.4474,0.4774,0.4824,0.5177,0.5932,0.6234,0.6786,0.7537,0.7839,0.7988,0.9794,1.0936,0.0,1.2241,1.3373,1.4422,1.4716,0.0,0.0,0.0,0.0,0.0,0.0,0.0,0.0,0.0,0.0,0.0,0.0,0.0,0.0,0.0,0.0,0.0,0.0,0.0,0.0,0.0,0.0,0.0,0.0,0.0,0.0,0.0,0.0,0.0,1.5484,1.5311,1.5224,1.5224,1.5095,1.515,1.5484,1.5484,1.5484,1.5484,1.5484,1.5484,1.5484,1.5484,1.5113,1.4546,1.4119,1.2972,1.1502,1.1115,1.0184,0.909,0.9008,0.8779,0.8531,0.8382,0.8237,0.8137,0.8137,0.8088,0.7988,0.7988,0.7988,0.7988,0.7988,0.7988,0.7988,0.7988,0.7988,0.7988,0.7988,0.7988,0.7988,0.7988,0.7988,0.7988,0.7988,0.7988,0.7988,0.7988,0.7988,0.7988,0.7988,0.7988,0.7988,0.7988,0.7988,0.7988,0.7988,0.7988,0.7736,0.7089,0.7036,0.6734,0.6079,0.5677,0.5629,0.6077,0.6077,0.6381,0.7036,0.7036,0.7388,0.7988,0.7988,0.7988,1.2581,1.2827,0.0,1.5078,1.495,0.0,1.5538,0.0,0.0,0.0,0.0,0.0,0.0,0.0,0.0,0.0,0.0,0.0,0.0,0.0,0.0,0.0,0.0,0.0,0.0,0.0,0.0,0.0,0.0,0.0,0.0,0.0,0.0,0.0,0.0,0.0,1.5008,1.4981,1.4968,0.0,1.4941,1.4928,1.4934,1.4981,1.5008,1.5008,1.5008,1.5008,1.5008,1.5008,1.5008,1.4912,1.3941,1.2973,1.2043,1.1155,1.0201,0.9284,0.9318,0.9175,0.897,0.897,0.8726,0.8432,0.8382,0.8233,0.8038,0.7988,0.7988,0.7988,0.7988,0.7988,0.7988,0.7988,0.7988,0.7988,0.7988,0.7988,0.7988,0.7988,0.7988,0.7988,0.7988,0.7988,0.7988,0.7988,0.7988,0.7988,0.7988,0.7988,0.7988,0.7988,0.7988,0.7988,0.7988,0.7988,0.7988,0.7988,0.7988,0.7988,0.7988,0.7089,0.6986,0.7988,0.7988,0.7988,0.7988,0.7988,0.7988,0.7988,0.7988,0.7988,1.0321,1.1917,0.0,0.0,1.4963,1.5518,1.5724,1.5784,0.0,0.0,0.0,0.0,0.0,0.0,0.0,0.0,0.0,0.0,0.0,0.0,0.0,0.0,0.0,0.0,0.0,0.0,0.0,0.0,0.0,0.0,0.0,0.0,0.0,0.0,0.0,1.5008,1.5008,1.473,1.4616,0.0,1.4382,1.4275,1.4289,1.4794,1.5008,1.5008,1.5008,1.5008,1.5008,1.5008,1.5008,1.4963,1.4732,1.4038,1.3008,1.2244,1.1811,1.1467,1.0715,1.044,1.0342,1.0096,0.946,0.8676,0.8482,0.8382,0.8283,0.8038,0.7988,0.7988,0.7988,0.7988,0.7988,0.7988,0.7988,0.7988,0.7988,0.7988,0.7988,0.7988,0.7988,0.7988,0.7988,0.7988,0.7988,0.7988,0.7988,0.7988,0.7988,0.7988,0.7988,0.7988,0.7988,0.7988,0.7988,0.7988,0.7988,0.7988,0.7988,0.7988,0.7988,0.7789,0.7789,0.7988,0.7988,0.7988,0.7988,0.7988,0.7988,0.7988,0.7988,0.7988,1.0929,0.0,0.0,1.4603,0.0,1.5784,1.5784,0.0,0.0,0.0,0.0,0.0,0.0,0.0,0.0,0.0,0.0,0.0,0.0,0.0,0.0,0.0,0.0,0.0,0.0,0.0,0.0,0.0,0.0,0.0,0.0,0.0,0.0,0.0,1.466,1.4586,1.4586,1.4396,1.4315,1.4309,1.4162,1.4088,1.4095,1.4445,1.4586,1.4586,1.4586,1.4586,1.4586,1.4586,1.4586,1.4586,1.4586,1.3955,1.3069,1.2905,1.2529,1.2113,1.1786,1.1414,1.0979,1.0828,0.9953,0.8931,0.868,0.8478,0.8333,0.8088,0.7988,0.7988,0.7988,0.7988,0.7988,0.7988,0.7988,0.7988,0.7988,0.7988,0.7988,0.7988,0.7988,0.7988,0.7988,0.7988,0.7988,0.7988,0.7988,0.7988,0.7988,0.7988,0.7988,0.7988,0.7988,0.7988,0.7988,0.7988,0.7988,0.7988,0.7988,0.7988,0.7988,0.7487,0.7487,0.7988,0.6983,0.6983,0.7988,0.7487,0.7487,0.7988,0.7988,0.7988,1.1822,0.0,1.3066,1.5232,1.5784,0.0,1.5784,0.0,0.0,0.0,0.0,0.0,0.0,0.0,0.0,0.0,0.0,0.0,0.0,0.0,0.0,0.0,0.0,0.0,0.0,0.0,0.0,0.0,0.0,0.0,0.0,0.0,1.4442,1.4442,1.4215,1.4088,1.4088,1.4088,1.4088,1.4088,1.4088,1.4088,1.4088,1.4088,1.4088,1.4088,1.4088,1.4088,1.4088,1.4088,1.4088,1.4088,1.4088,1.3642,1.3047,1.3302,1.3047,1.2601,1.2868,1.2441,1.1755,1.1755,1.0739,0.9476,0.9217,0.8825,0.8432,0.8137,0.8038,0.7988,0.7988,0.7988,0.7988,0.7988,0.7988,0.7988,0.7988,0.7988,0.7988,0.7988,0.7988,0.7988,0.7988,0.7988,0.7988,0.7988,0.7988,0.7988,0.7988,0.7988,0.7988,0.7988,0.7988,0.7988,0.7988,0.7988,0.7988,0.7988,0.7988,0.7988,0.7988,0.6986,0.6886,0.7988,0.6079,0.5929,0.7736,0.7036,0.7138,0.7988,0.7988,0.7988,0.0,0.0,1.3806,0.0,1.5784,1.5784,0.0,0.0,0.0,0.0,0.0,0.0,0.0,0.0,0.0,0.0,0.0,0.0,0.0,0.0,0.0,0.0,0.0,0.0,0.0,0.0,0.0,0.0,0.0,0.0,0.0,1.4168,1.4142,1.4142,1.4108,1.4088,1.4088,1.4088,1.4088,1.4088,1.4088,1.4088,1.4088,1.4088,1.4088,1.4088,1.4088,1.4088,1.4088,1.4088,1.4088,1.4088,1.4088,1.4156,1.4191,1.3599,1.4045,1.4863,1.4285,1.4004,1.3908,1.3908,1.2538,1.0881,1.0587,0.9706,0.8676,0.8432,0.8187,0.7988,0.7988,0.7988,0.7988,0.7988,0.7988,0.7988,0.7988,0.7988,0.7988,0.7988,0.7988,0.7988,0.7988,0.7988,0.7988,0.7988,0.7988,0.7988,0.7988,0.7988,0.7988,0.7988,0.7988,0.7988,0.7988,0.7988,0.7988,0.7988,0.7988,0.7988,0.7988,0.6986,0.6886,0.7988,0.6786,0.6334,0.6637,0.7388,0.7839,0.7988,0.7988,0.7988,1.0107,1.2144,1.4079,0.0,1.6204,1.6109,0.0,0.0,0.0,0.0,0.0,0.0,0.0,0.0,0.0,0.0,0.0,0.0,0.0,0.0,0.0,0.0,0.0,0.0,0.0,0.0,0.0,0.0,0.0,0.0,1.4095,1.4088,1.4088,1.4088,1.4088,1.4088,1.4088,1.4088,1.4088,1.4088,1.4088,1.4088,1.4088,1.4088,1.4088,1.4088,1.4088,1.4088,1.4088,1.4088,1.4088,1.4088,1.4088,1.4262,1.4469,1.4346,1.4767,1.5391,1.5205,1.4777,1.4298,1.4298,1.2877,1.117,1.0877,0.9953,0.8931,0.8531,0.8333,0.8187,0.8038,0.7988,0.7988,0.7988,0.7988,0.7988,0.7988,0.7988,0.7988,0.7988,0.7988,0.7988,0.7988,0.7988,0.7988,0.7988,0.7988,0.7988,0.7988,0.7988,0.7988,0.7988,0.7988,0.7988,0.7988,0.7988,0.7988,0.7988,0.7988,0.7988,0.7988,0.6986,0.6637,0.7086,0.6032,0.6082,0.7288,0.7185,0.7388,0.7988,0.7988,0.7988,0.0,0.0,1.3255,1.6053,1.6232,1.6228,0.0,0.0,0.0,0.0,0.0,0.0,0.0,0.0,0.0,0.0,0.0,0.0,0.0,0.0,0.0,0.0,0.0,0.0,0.0,0.0,0.0,0.0,0.0,0.0,1.4088,1.4088,1.4088,1.4088,1.4088,1.4088,1.4088,1.4088,1.4088,1.4088,1.4088,1.4088,1.4088,1.4088,1.4088,1.4088,1.4088,1.4088,1.4088,1.4088,1.4088,1.4088,1.4088,1.4315,1.4663,1.4928,1.5197,1.5538,1.5752,1.5302,1.4682,1.4682,1.3463,1.1901,1.1414,1.0493,0.9472,0.8783,0.8482,0.8333,0.8137,0.8038,0.7988,0.7988,0.7988,0.7988,0.7988,0.7988,0.7988,0.7988,0.7988,0.7988,0.7988,0.7988,0.7988,0.7988,0.7988,0.7988,0.7988,0.7988,0.7988,0.7988,0.7988,0.7988,0.7988,0.7988,0.7988,0.7988,0.7988,0.7988,0.7988,0.7238,0.6786,0.6786,0.6029,0.6279,0.7587,0.7089,0.7238,0.7988,0.7988,0.7988,0.0,0.9419,0.0,1.4326,0.0,0.0,0.0,0.0,0.0,0.0,0.0,0.0,0.0,0.0,0.0,0.0,0.0,0.0,0.0,0.0,0.0,0.0,0.0,0.0,0.0,0.0,0.0,0.0,0.0,0.0,1.4088,1.4088,1.4088,1.4088,1.4088,1.4088,1.4088,1.4088,1.4088,1.4088,1.4088,1.4088,1.4088,1.4088,1.4088,1.4088,1.4088,1.4088,1.4088,1.4088,1.4088,1.4088,1.4088,1.4479,1.4988,1.5001,1.5317,1.5758,1.5778,1.5784,1.5737,1.5737,1.501,1.3956,1.2926,1.1707,1.0489,0.9476,0.8783,0.8382,0.8382,0.8187,0.7988,0.7988,0.7988,0.7988,0.7988,0.7988,0.7988,0.7988,0.7988,0.7988,0.7988,0.7988,0.7988,0.7988,0.7988,0.7988,0.7988,0.7988,0.7988,0.7988,0.7988,0.7988,0.7988,0.7988,0.7988,0.7988,0.7988,0.7988,0.7988,0.7939,0.7939,0.7939,0.7839,0.7388,0.6487,0.7437,0.7939,0.7988,0.7988,0.7988,0.0,0.0,0.0,1.3304,1.4656,0.0,0.0,0.0,0.0,0.0,0.0,0.0,0.0,0.0,0.0,0.0,0.0,0.0,0.0,0.0,0.0,0.0,0.0,0.0,0.0,0.0,0.0,0.0,0.0,0.0,1.4088,1.4088,1.4088,1.4088,1.4088,1.4088,1.4088,1.4088,1.4088,1.4088,1.4088,1.4088,1.4088,1.4088,1.4088,1.4088,1.4088,1.4088,1.4088,1.4088,1.4088,1.4088,1.4088,1.4486,1.5008,1.5008,1.5331,1.5784,1.5784,1.5784,1.5784,1.5784,1.5112,1.41,1.3022,1.195,1.0783,0.9575,0.8931,0.8627,0.8432,0.8187,0.7988,0.7988,0.7988,0.7988,0.7988,0.7988,0.7988,0.7988,0.7988,0.7988,0.7988,0.7988,0.7988,0.7988,0.7988,0.7988,0.7988,0.7988,0.7988,0.7988,0.7988,0.7988,0.7988,0.7988,0.7988,0.7988,0.7988,0.7988,0.7988,0.7988,0.7988,0.7988,0.7988,0.7789,0.7437,0.7789,0.7988,0.7988,0.7988,0.7988,0.7698,0.0,0.0,0.0,0.0,0.0,0.0,0.0,0.0,0.0,0.0,0.0,0.0,0.0,0.0,0.0,0.0,0.0,0.0,0.0,0.0,0.0,0.0,0.0,0.0,0.0,0.0,0.0,0.0,0.0,1.4088,1.4088,1.4088,1.4088,1.4088,1.4088,1.4088,1.4088,1.4088,1.4088,1.4088,1.4088,1.4088,1.4088,1.4088,1.4088,1.4088,1.4088,1.4088,1.4088,1.4088,1.4088,1.4088,1.4486,1.5008,1.5008,1.5331,1.5784,1.5784,1.5784,1.5784,1.5784,1.535,1.4627,1.3559,1.2533,1.1414,1.0109,0.927,0.8726,0.8482,0.8187,0.7988,0.7988,0.7988,0.7988,0.7988,0.7988,0.7988,0.7988,0.7988,0.7988,0.7988,0.7988,0.7988,0.7988,0.7988,0.7988,0.7988,0.7988,0.7988,0.7988,0.7988,0.7988,0.7988,0.7988,0.7988,0.7988,0.7988,0.7988,0.7988,0.7988,0.7988,0.7988,0.7988,0.7988,0.7988,0.7988,0.7988,0.7988,0.7988,0.7988,0.0,0.0,0.0,0.0,0.0,0.0,0.0,0.0,0.0,0.0,0.0,0.0,0.0,0.0,0.0,0.0,0.0,0.0,0.0,0.0,0.0,0.0,0.0,0.0,0.0,0.0,0.0,0.0,0.0,1.413,1.413,1.4088,1.4088,1.4088,1.4088,1.4088,1.4088,1.4088,1.4088,1.4088,1.4088,1.4088,1.4088,1.4088,1.4088,1.4088,1.4088,1.4088,1.4088,1.4088,1.4088,1.4088,1.4088,1.4486,1.5008,1.5008,1.5331,1.5784,1.5784,1.5784,1.5784,1.5784,1.5784,1.5588,1.4586,1.3565,1.2436,1.117,0.9854,0.8726,0.8482,0.8187,0.7988,0.7988,0.7988,0.7988,0.7988,0.7988,0.7988,0.7988,0.7988,0.7988,0.7988,0.7988,0.7988,0.7988,0.7988,0.7988,0.7988,0.7988,0.7988,0.7988,0.7988,0.7988,0.7988,0.7988,0.7988,0.7988,0.7988,0.7988,0.7988,0.7988,0.7988,0.7988,0.7988,0.7988,0.7988,0.7988,0.7988,0.7988,0.7988,0.7988,0.686,0.0,0.0,0.0,0.0,0.0,0.0,1.5053,0.0,0.0,0.0,0.0,0.0,0.0,0.0,0.0,0.0,0.0,0.0,0.0,0.0,0.0,0.0,0.0,0.0,0.0,0.0,0.0,1.4405,1.4321,1.4321,1.4166,1.4088,1.4088,1.4088,1.4088,1.4088,1.4088,1.4088,1.4088,1.4088,1.4088,1.4088,1.4088,1.4088,1.4088,1.4088,1.4088,1.4088,1.4088,1.4088,1.4088,1.4088,1.4486,1.5008,1.5008,1.5331,1.5784,1.5784,1.5784,1.5784,1.5784,1.5784,1.5588,1.4586,1.3565,1.2484,1.1365,1.0105,0.8985,0.8531,0.8187,0.7988,0.7988,0.7988,0.7988,0.7988,0.7988,0.7988,0.7988,0.7988,0.7988,0.7988,0.7988,0.7988,0.7988,0.7988,0.7988,0.7988,0.7988,0.7988,0.7988,0.7988,0.7988,0.7988,0.7988,0.7988,0.7988,0.7988,0.7988,0.7988,0.7988,0.7988,0.7988,0.7988,0.7988,0.7988,0.7988,0.7988,0.7988,0.7988,0.7988,0.0,0.0,0.0,0.0,0.0,0.0,1.2709,1.4688,0.0,0.0,0.0,0.0,0.0,0.0,0.0,0.0,0.0,0.0,0.0,0.0,0.0,0.0,0.0,0.0,0.0,0.0,0.0,0.0,1.4608,1.4482,1.4398,1.4201,1.4088,1.4088,1.4088,1.4088,1.4088,1.4088,1.4088,1.4088,1.4088,1.4088,1.4088,1.4088,1.4088,1.4088,1.4088,1.4088,1.4088,1.4088,1.4088,1.4088,1.4088,1.4486,1.5008,1.5008,1.5331,1.5784,1.5784,1.5784,1.5784,1.5784,1.5784,1.5689,1.5112,1.419,1.3221,1.2528,1.0979,0.9373,0.8581,0.8187,0.7988,0.7988,0.7988,0.7988,0.7988,0.7988,0.7988,0.7988,0.7988,0.7988,0.7988,0.7988,0.7988,0.7988,0.7988,0.7988,0.7988,0.7988,0.7988,0.7988,0.7988,0.7988,0.7988,0.7988,0.7988,0.7988,0.7988,0.7988,0.7988,0.7988,0.7988,0.7988,0.7988,0.8022,0.8136,0.8022,0.7988,0.7988,0.7988,0.7988,0.0,0.0,0.0,0.0,0.0,0.0,1.3705,1.4672,1.5782,0.0,0.0,0.0,0.0,0.0,0.0,0.0,0.0,0.0,0.0,0.0,0.0,0.0,0.0,0.0,0.0,0.0,1.4692,1.4734,1.4741,1.4608,1.4398,1.4243,1.4124,1.4124,1.4124,1.4124,1.4173,1.4124,1.4124,1.4124,1.4124,1.413,1.4088,1.4088,1.4088,1.4088,1.4088,1.4088,1.4088,1.4088,1.4088,1.4088,1.4122,1.4476,1.5015,1.5042,1.5357,1.5784,1.5784,1.5784,1.5784,1.5784,1.5784,1.5784,1.5784,1.5112,1.4196,1.3734,1.1843,0.9706,0.8676,0.8237,0.8038,0.7988,0.7988,0.7988,0.7988,0.7988,0.7988,0.7988,0.7988,0.7988,0.7988,0.7988,0.7988,0.7988,0.7988,0.7988,0.7988,0.7988,0.7988,0.7988,0.7988,0.7988,0.7988,0.7988,0.7988,0.7988,0.7988,0.7988,0.7988,0.7988,0.7998,0.8015,0.8029,0.8157,0.8344,0.8157,0.8039,0.8039,0.8039,0.8039,0.0,0.0,0.0,0.0,0.0,0.0,0.9235,1.0265,1.1471,0.0,0.0,0.0,0.0,0.0,0.0,0.0,0.0,0.0,0.0,0.0,0.0,0.0,0.0,0.0,0.0,0.0,1.4783,1.4999,1.4824,1.4608,1.4398,1.4356,1.4356,1.4356,1.4356,1.4398,1.4573,1.4398,1.4356,1.4356,1.4356,1.4243,1.4088,1.4088,1.4088,1.4088,1.4088,1.4088,1.4088,1.4088,1.4088,1.4108,1.4342,1.4649,1.5035,1.5224,1.5531,1.5784,1.5784,1.5784,1.5784,1.5784,1.5784,1.5784,1.5784,1.5112,1.3956,1.2193,1.0592,0.9278,0.8829,0.8531,0.8283,0.8038,0.7988,0.7988,0.7988,0.7988,0.7988,0.7988,0.7988,0.7988,0.7988,0.7988,0.7988,0.7988,0.7988,0.7988,0.7988,0.7988,0.7988,0.7988,0.7988,0.7988,0.7988,0.7988,0.7988,0.7988,0.7988,0.7988,0.7988,0.7988,0.8099,0.8221,0.8336,0.8411,0.8442,0.8411,0.8394,0.8394,0.8394,0.8394,0.0,0.0,0.0,0.8591,0.0,0.0,0.0,1.047,1.1248,0.0,0.0,0.0,0.0,0.0,0.0,0.0,0.0,0.0,0.0,0.0,0.0,0.0,0.0,0.0,0.0,0.0,1.4915,1.4915,1.4783,1.465,1.4566,1.4566,1.4566,1.4566,1.4566,1.4608,1.4692,1.4608,1.4566,1.4566,1.4566,1.4489,1.4412,1.4412,1.4412,1.4412,1.4412,1.4328,1.4243,1.4243,1.4208,1.4115,1.4409,1.4703,1.5042,1.5291,1.5578,1.5784,1.5784,1.5784,1.5784,1.5784,1.5784,1.5784,1.5784,1.5445,1.4621,1.2533,1.137,1.0498,0.9324,0.868,0.8382,0.8233,0.8088,0.7988,0.7988,0.7988,0.7988,0.7988,0.7988,0.7988,0.7988,0.7988,0.7988,0.7988,0.7988,0.7988,0.7988,0.7988,0.7988,0.7988,0.7988,0.7988,0.7988,0.7988,0.7988,0.7988,0.7988,0.8022,0.815,0.8153,0.8225,0.8374,0.852,0.8598,0.8598,0.8672,0.8632,0.8482,0.8482,0.8482,0.0,0.0,0.0,0.0,0.0,0.9279,0.0,0.0,0.0,0.0,0.0,0.0,0.0,0.0,0.0,0.0,0.0,0.0,0.0,0.0,0.0,0.0,0.0,0.0,0.0,0.0,1.4765,1.4768,1.4573,1.4503,1.4685,1.4741,1.4783,1.4783,1.4783,1.4783,1.4824,1.4783,1.4783,1.4783,1.4783,1.4741,1.4692,1.4692,1.4692,1.4692,1.4692,1.4608,1.444,1.4433,1.4321,1.42,1.4469,1.475,1.5055,1.5351,1.5625,1.5784,1.5784,1.5784,1.5784,1.5784,1.5784,1.5784,1.5784,1.5642,1.5153,1.3457,1.2678,1.195,1.001,0.9175,0.8775,0.8482,0.8233,0.8088,0.7988,0.7988,0.7988,0.7988,0.7988,0.7988,0.7988,0.7988,0.7988,0.7988,0.7988,0.7988,0.7988,0.7988,0.7988,0.7988,0.7988,0.7988,0.7988,0.7988,0.7988,0.7988,0.8019,0.814,0.8316,0.8326,0.8411,0.8523,0.8676,0.8754,0.8754,0.8824,0.8811,0.857,0.857,0.857,0.0,0.0,0.0,0.0,0.9788,0.0,0.0,0.0,0.0,0.0,0.0,0.0,0.0,0.0,0.0,0.0,0.0,0.0,0.0,0.0,0.0,0.0,0.0,0.0,0.0,0.0,0.0,1.4976,1.4104,1.3873,1.465,1.4915,1.5041,1.5041,1.5041,1.5131,1.5298,1.5131,1.5041,1.5041,1.5041,1.4915,1.4692,1.4692,1.4692,1.4692,1.4692,1.4692,1.465,1.4482,1.4398,1.4418,1.4777,1.4981,1.5075,1.5578,1.5751,1.5784,1.5784,1.5784,1.5784,1.5784,1.5784,1.5784,1.5784,1.5159,1.4442,1.4196,1.3414,1.2339,1.0979,1.0587,1.0145,0.8726,0.8382,0.8283,0.8038,0.7988,0.7988,0.7988,0.7988,0.7988,0.7988,0.7988,0.7988,0.7988,0.7988,0.7988,0.7988,0.7988,0.7988,0.7988,0.7988,0.7988,0.7988,0.7988,0.7988,0.7988,0.817,0.8252,0.8323,0.8523,0.8669,0.8682,0.8835,0.8858,0.8858,0.8875,0.8865,0.8831,0.8831,0.8831,0.0,0.0,0.0,0.0,0.0,0.0,0.0,0.0,0.9086,0.0,0.0,0.0,0.0,0.0,0.0,0.0,0.0,0.0,0.0,0.0,0.0,0.0,0.0,0.0,0.0,0.0,0.0,0.0,0.0,1.4368,1.4894,1.5131,1.5257,1.5257,1.5257,1.5305,1.5389,1.5305,1.5257,1.5257,1.5257,1.5215,1.5124,1.5124,1.5124,1.5124,1.5124,1.5041,1.4915,1.4824,1.4657,1.446,1.495,1.5098,1.5075,1.5618,1.5784,1.5784,1.5784,1.5784,1.5784,1.5784,1.5784,1.5784,1.5784,1.5493,1.5064,1.4442,1.4004,1.3366,1.2193,1.1365,1.0632,0.9948,0.9217,0.8577,0.8283,0.8233,0.8187,0.8038,0.7988,0.7988,0.7988,0.7988,0.7988,0.7988,0.7988,0.7988,0.7988,0.7988,0.7988,0.7988,0.7988,0.7988,0.7988,0.7988,0.8029,0.8167,0.8394,0.8526,0.8526,0.873,0.8842,0.8842,0.8851,0.8885,0.8885,0.8885,0.8885,0.8885,0.8885,0.8885,1.4059,0.0,0.0,0.0,0.0,0.0,0.0,0.0,0.0,0.0,0.0,0.0,0.0,0.0,0.0,0.0,0.0,0.0,0.0,0.0,0.0,0.0,0.0,0.0,0.0,0.0,0.0,0.0,0.0,0.0,1.5075,1.5305,1.5389,1.5389,1.5389,1.5389,1.5389,1.5389,1.5389,1.5389,1.5389,1.5389,1.5389,1.5389,1.5389,1.5389,1.5389,1.5305,1.5173,1.5131,1.4915,1.4635,1.5126,1.5187,1.5127,1.5618,1.5784,1.5784,1.5784,1.5784,1.5784,1.5784,1.5784,1.5784,1.5784,1.5784,1.5635,1.4921,1.4729,1.4388,1.3071,1.1999,1.117,1.0493,0.9612,0.8829,0.8581,0.8432,0.8333,0.8137,0.8038,0.7988,0.7988,0.7988,0.7988,0.7988,0.7988,0.7988,0.7988,0.7988,0.7988,0.7988,0.7988,0.7988,0.7988,0.8029,0.8184,0.8381,0.8591,0.873,0.8771,0.8824,0.8885,0.8885,0.8885,0.8885,0.8885,0.8885,0.8885,0.8885,0.8885,0.8885,0.0,0.0,0.0,1.2134,0.0,0.0,0.0,0.0,0.9981,0.0,0.0,0.0,0.0,0.0,0.0,0.0,0.0,0.0,0.0,0.0,0.0,0.0,0.0,0.0,0.0,0.0,0.0,0.0,0.0,0.0,1.5039,1.5305,1.5389,1.5389,1.5389,1.5389,1.5389,1.5389,1.5389,1.5389,1.5389,1.5389,1.5389,1.5389,1.5389,1.5389,1.5389,1.5389,1.5389,1.5173,1.509,1.5112,1.5258,1.5284,1.5307,1.5658,1.5784,1.5784,1.5784,1.5784,1.5784,1.5784,1.5784,1.5784,1.5784,1.5784,1.5778,1.5778,1.5737,1.5296,1.3216,1.2684,1.2052,0.9768,0.9232,0.9133,0.8825,0.8577,0.8382,0.8382,0.8187,0.7988,0.7988,0.7988,0.7988,0.7988,0.7988,0.7988,0.7988,0.7988,0.7988,0.7988,0.7988,0.7988,0.7988,0.8177,0.8387,0.8679,0.8706,0.8777,0.8868,0.8881,0.8885,0.8885,0.8885,0.8885,0.8885,0.8885,0.8885,0.8885,0.8885,0.8885,0.0,0.0,1.8611,1.5213,0.0,0.0,0.0,0.0,0.0,0.0,0.0,0.0,0.0,0.0,0.0,0.0,0.0,0.0,0.0,0.0,0.0,0.0,0.0,0.0,0.0,0.0,0.0,0.0,0.0,0.0,0.0,1.5347,1.5389,1.5389,1.5389,1.5389,1.5389,1.5389,1.5389,1.5389,1.5389,1.5389,1.5389,1.5389,1.5389,1.5389,1.5389,1.5389,1.5389,1.534,1.5131,1.4888,1.5332,1.5435,1.5331,1.5658,1.5784,1.5784,1.5784,1.5784,1.5784,1.5784,1.5784,1.5784,1.5784,1.5784,1.5784,1.5784,1.5784,1.5493,1.4094,1.3221,1.2339,1.0886,0.9961,0.9381,0.913,0.8985,0.8882,0.8676,0.8577,0.8531,0.8531,0.8382,0.8187,0.8038,0.7988,0.7988,0.7988,0.7988,0.7988,0.7988,0.7988,0.8029,0.8184,0.8421,0.8604,0.8703,0.8968,0.9157,0.921,0.9213,0.9213,0.9213,0.8995,0.8885,0.8885,0.8885,0.8885,0.8885,0.8885,0.8885,2.0098,2.0557,0.0,1.7351,1.7158,0.0,1.336,0.0,0.0,0.0,0.0,0.0,0.0,0.0,0.0,0.0,0.0,0.0,0.0,0.7497,0.0,0.0,0.0,0.0,0.0,0.0,0.0,0.0,0.0,0.0,0.0,0.0,1.5389,1.5389,1.5389,1.5389,1.5389,1.5389,1.5389,1.5389,1.5389,1.5389,1.5389,1.5389,1.5389,1.5389,1.5389,1.5389,1.5389,1.5389,1.528,1.517,1.5498,1.5586,1.561,1.5738,1.5784,1.5784,1.5784,1.5784,1.5784,1.5784,1.5784,1.5784,1.5784,1.5784,1.5784,1.5784,1.5784,1.5493,1.4094,1.3221,1.2344,1.0984,1.0109,0.9529,0.9385,0.9282,0.9133,0.8977,0.8874,0.8825,0.8825,0.8676,0.8432,0.8184,0.8137,0.8088,0.7988,0.8088,0.8137,0.8137,0.8139,0.8255,0.8567,0.8863,0.9054,0.911,0.9377,0.9541,0.9541,0.9541,0.9541,0.9541,0.9323,0.9213,0.9213,0.9213,0.9158,0.9103,0.9103,0.8995]}]]